<?xml version="1.0" encoding="UTF-8" standalone="no" ?>
<gpx xmlns="http://www.topografix.com/GPX/1/1" xmlns:xsi="http://www.w3.org/2001/XMLSchema-instance" xsi:schemaLocation="http://www.topografix.com/GPX/1/1 http://www.topografix.com/GPX/1/1/gpx.xsd" version="1.1" creator="VisuGPX - https://www.visugpx.com">
  <metadata>
    <name>Road trip fait P/E</name>
  </metadata>
  <trk>
    <name><![CDATA[Road trip fait P/E_10]]></name>
    <extensions>
      <line xmlns="http://www.topografix.com/GPX/gpx_style/0/2">
        <color>FFFF00</color>
        <width>4</width>
      </line>
    </extensions>
    <trkseg>
      <trkpt lat="36.53778" lon="-5.25115">
        <ele>381.1093</ele>
        <time>2021-07-15T19:16:06Z</time>
      </trkpt>
      <trkpt lat="36.53778" lon="-5.25115">
        <ele>381.1093</ele>
        <time>2021-07-15T19:16:06Z</time>
      </trkpt>
      <trkpt lat="36.53777" lon="-5.25102">
        <ele>380.3876</ele>
        <time>2021-07-16T07:34:43Z</time>
      </trkpt>
      <trkpt lat="36.53784" lon="-5.25121">
        <ele>377.9548</ele>
        <time>2021-07-16T07:34:54Z</time>
      </trkpt>
      <trkpt lat="36.53783" lon="-5.25126">
        <ele>374.3628</ele>
        <time>2021-07-16T07:35:05Z</time>
      </trkpt>
      <trkpt lat="36.53782" lon="-5.25121">
        <ele>376.7857</ele>
        <time>2021-07-16T07:35:16Z</time>
      </trkpt>
      <trkpt lat="36.53785" lon="-5.25124">
        <ele>381.5833</ele>
        <time>2021-07-16T07:35:31Z</time>
      </trkpt>
      <trkpt lat="36.53781" lon="-5.25124">
        <ele>384.3781</ele>
        <time>2021-07-16T07:35:49Z</time>
      </trkpt>
      <trkpt lat="36.53785" lon="-5.25122">
        <ele>377.4897</ele>
        <time>2021-07-16T07:36:09Z</time>
      </trkpt>
      <trkpt lat="36.53782" lon="-5.25125">
        <ele>380.9009</ele>
        <time>2021-07-16T07:37:08Z</time>
      </trkpt>
      <trkpt lat="36.53784" lon="-5.25121">
        <ele>377.4654</ele>
        <time>2021-07-16T07:37:51Z</time>
      </trkpt>
      <trkpt lat="36.5378" lon="-5.25118">
        <ele>379.366</ele>
        <time>2021-07-16T07:38:04Z</time>
      </trkpt>
      <trkpt lat="36.5377" lon="-5.25117">
        <ele>377.7773</ele>
        <time>2021-07-16T07:38:15Z</time>
      </trkpt>
      <trkpt lat="36.53767" lon="-5.25115">
        <ele>376.3986</ele>
        <time>2021-07-16T07:38:31Z</time>
      </trkpt>
      <trkpt lat="36.53762" lon="-5.25114">
        <ele>379.7023</ele>
        <time>2021-07-16T07:38:44Z</time>
      </trkpt>
      <trkpt lat="36.53737" lon="-5.25076">
        <ele>381.0467</ele>
        <time>2021-07-16T07:38:55Z</time>
      </trkpt>
      <trkpt lat="36.53733" lon="-5.25071">
        <ele>379.8904</ele>
        <time>2021-07-16T07:39:06Z</time>
      </trkpt>
      <trkpt lat="36.53726" lon="-5.25078">
        <ele>379.1357</ele>
        <time>2021-07-16T07:39:17Z</time>
      </trkpt>
      <trkpt lat="36.53723" lon="-5.25052">
        <ele>383.3549</ele>
        <time>2021-07-16T07:39:28Z</time>
      </trkpt>
      <trkpt lat="36.53719" lon="-5.25039">
        <ele>385.9843</ele>
        <time>2021-07-16T07:39:39Z</time>
      </trkpt>
      <trkpt lat="36.53717" lon="-5.25035">
        <ele>386.6285</ele>
        <time>2021-07-16T07:39:55Z</time>
      </trkpt>
      <trkpt lat="36.53668" lon="-5.24985">
        <ele>395.5752</ele>
        <time>2021-07-16T07:40:06Z</time>
      </trkpt>
      <trkpt lat="36.53592" lon="-5.24984">
        <ele>409.4825</ele>
        <time>2021-07-16T07:40:17Z</time>
      </trkpt>
      <trkpt lat="36.53543" lon="-5.24895">
        <ele>417.243</ele>
        <time>2021-07-16T07:40:28Z</time>
      </trkpt>
      <trkpt lat="36.53461" lon="-5.24843">
        <ele>414.1086</ele>
        <time>2021-07-16T07:40:39Z</time>
      </trkpt>
      <trkpt lat="36.53358" lon="-5.24848">
        <ele>422.2494</ele>
        <time>2021-07-16T07:40:50Z</time>
      </trkpt>
      <trkpt lat="36.53242" lon="-5.24839">
        <ele>436.0754</ele>
        <time>2021-07-16T07:41:01Z</time>
      </trkpt>
      <trkpt lat="36.53165" lon="-5.24856">
        <ele>442.7771</ele>
        <time>2021-07-16T07:41:12Z</time>
      </trkpt>
      <trkpt lat="36.5309" lon="-5.24859">
        <ele>442.9602</ele>
        <time>2021-07-16T07:41:23Z</time>
      </trkpt>
      <trkpt lat="36.53005" lon="-5.24815">
        <ele>439.8985</ele>
        <time>2021-07-16T07:41:34Z</time>
      </trkpt>
      <trkpt lat="36.5291" lon="-5.24815">
        <ele>430.7816</ele>
        <time>2021-07-16T07:41:45Z</time>
      </trkpt>
      <trkpt lat="36.5282" lon="-5.24719">
        <ele>428.3034</ele>
        <time>2021-07-16T07:41:56Z</time>
      </trkpt>
      <trkpt lat="36.5279" lon="-5.24653">
        <ele>431.5578</ele>
        <time>2021-07-16T07:42:07Z</time>
      </trkpt>
      <trkpt lat="36.52799" lon="-5.24571">
        <ele>420.241</ele>
        <time>2021-07-16T07:42:18Z</time>
      </trkpt>
      <trkpt lat="36.52738" lon="-5.24515">
        <ele>416.624</ele>
        <time>2021-07-16T07:42:29Z</time>
      </trkpt>
      <trkpt lat="36.52768" lon="-5.2444">
        <ele>410.885</ele>
        <time>2021-07-16T07:42:40Z</time>
      </trkpt>
      <trkpt lat="36.52672" lon="-5.24418">
        <ele>408.217</ele>
        <time>2021-07-16T07:42:51Z</time>
      </trkpt>
      <trkpt lat="36.52618" lon="-5.24364">
        <ele>404.7151</ele>
        <time>2021-07-16T07:43:02Z</time>
      </trkpt>
      <trkpt lat="36.52541" lon="-5.24362">
        <ele>407.8092</ele>
        <time>2021-07-16T07:43:13Z</time>
      </trkpt>
      <trkpt lat="36.52482" lon="-5.24354">
        <ele>408.5788</ele>
        <time>2021-07-16T07:43:24Z</time>
      </trkpt>
      <trkpt lat="36.52502" lon="-5.24282">
        <ele>407.7166</ele>
        <time>2021-07-16T07:43:35Z</time>
      </trkpt>
      <trkpt lat="36.52535" lon="-5.24199">
        <ele>394.0535</ele>
        <time>2021-07-16T07:43:46Z</time>
      </trkpt>
      <trkpt lat="36.52497" lon="-5.24125">
        <ele>392.9811</ele>
        <time>2021-07-16T07:43:57Z</time>
      </trkpt>
      <trkpt lat="36.5244" lon="-5.24075">
        <ele>405.8876</ele>
        <time>2021-07-16T07:44:08Z</time>
      </trkpt>
      <trkpt lat="36.52429" lon="-5.24007">
        <ele>412.861</ele>
        <time>2021-07-16T07:44:19Z</time>
      </trkpt>
      <trkpt lat="36.5238" lon="-5.23961">
        <ele>398.9278</ele>
        <time>2021-07-16T07:44:30Z</time>
      </trkpt>
      <trkpt lat="36.52358" lon="-5.23893">
        <ele>391.4715</ele>
        <time>2021-07-16T07:44:41Z</time>
      </trkpt>
      <trkpt lat="36.5231" lon="-5.23843">
        <ele>379.6797</ele>
        <time>2021-07-16T07:44:52Z</time>
      </trkpt>
      <trkpt lat="36.52262" lon="-5.23809">
        <ele>379.8336</ele>
        <time>2021-07-16T07:45:03Z</time>
      </trkpt>
      <trkpt lat="36.52326" lon="-5.23765">
        <ele>389.9166</ele>
        <time>2021-07-16T07:45:14Z</time>
      </trkpt>
      <trkpt lat="36.52404" lon="-5.23781">
        <ele>399.9352</ele>
        <time>2021-07-16T07:45:25Z</time>
      </trkpt>
      <trkpt lat="36.52459" lon="-5.2375">
        <ele>404.682</ele>
        <time>2021-07-16T07:45:36Z</time>
      </trkpt>
      <trkpt lat="36.52535" lon="-5.23786">
        <ele>385.5407</ele>
        <time>2021-07-16T07:45:47Z</time>
      </trkpt>
      <trkpt lat="36.52604" lon="-5.23785">
        <ele>374.7099</ele>
        <time>2021-07-16T07:45:58Z</time>
      </trkpt>
      <trkpt lat="36.52629" lon="-5.23689">
        <ele>354.7616</ele>
        <time>2021-07-16T07:46:09Z</time>
      </trkpt>
      <trkpt lat="36.52738" lon="-5.23633">
        <ele>315.1407</ele>
        <time>2021-07-16T07:46:20Z</time>
      </trkpt>
      <trkpt lat="36.52731" lon="-5.23683">
        <ele>348.0394</ele>
        <time>2021-07-16T07:46:31Z</time>
      </trkpt>
      <trkpt lat="36.52782" lon="-5.23624">
        <ele>337.9737</ele>
        <time>2021-07-16T07:46:42Z</time>
      </trkpt>
      <trkpt lat="36.52708" lon="-5.23603">
        <ele>321.7016</ele>
        <time>2021-07-16T07:46:53Z</time>
      </trkpt>
      <trkpt lat="36.5265" lon="-5.23544">
        <ele>310.4608</ele>
        <time>2021-07-16T07:47:04Z</time>
      </trkpt>
      <trkpt lat="36.52657" lon="-5.23451">
        <ele>313.6921</ele>
        <time>2021-07-16T07:47:15Z</time>
      </trkpt>
      <trkpt lat="36.52691" lon="-5.23346">
        <ele>320.7557</ele>
        <time>2021-07-16T07:47:26Z</time>
      </trkpt>
      <trkpt lat="36.52698" lon="-5.23234">
        <ele>326.968</ele>
        <time>2021-07-16T07:47:37Z</time>
      </trkpt>
      <trkpt lat="36.52657" lon="-5.23198">
        <ele>321.2624</ele>
        <time>2021-07-16T07:47:48Z</time>
      </trkpt>
      <trkpt lat="36.52532" lon="-5.23175">
        <ele>332.7609</ele>
        <time>2021-07-16T07:47:59Z</time>
      </trkpt>
      <trkpt lat="36.52458" lon="-5.23117">
        <ele>342.3689</ele>
        <time>2021-07-16T07:48:10Z</time>
      </trkpt>
      <trkpt lat="36.52431" lon="-5.23034">
        <ele>337.0674</ele>
        <time>2021-07-16T07:48:21Z</time>
      </trkpt>
      <trkpt lat="36.52431" lon="-5.22984">
        <ele>343.0002</ele>
        <time>2021-07-16T07:48:32Z</time>
      </trkpt>
      <trkpt lat="36.52494" lon="-5.23">
        <ele>343.1276</ele>
        <time>2021-07-16T07:48:43Z</time>
      </trkpt>
      <trkpt lat="36.52541" lon="-5.23024">
        <ele>352.5079</ele>
        <time>2021-07-16T07:48:54Z</time>
      </trkpt>
      <trkpt lat="36.52623" lon="-5.23038">
        <ele>359.2978</ele>
        <time>2021-07-16T07:49:05Z</time>
      </trkpt>
      <trkpt lat="36.52692" lon="-5.23029">
        <ele>366.1434</ele>
        <time>2021-07-16T07:49:16Z</time>
      </trkpt>
      <trkpt lat="36.52761" lon="-5.23035">
        <ele>373.0316</ele>
        <time>2021-07-16T07:49:27Z</time>
      </trkpt>
      <trkpt lat="36.52843" lon="-5.23068">
        <ele>369.7984</ele>
        <time>2021-07-16T07:49:38Z</time>
      </trkpt>
      <trkpt lat="36.52877" lon="-5.23151">
        <ele>382.0492</ele>
        <time>2021-07-16T07:49:49Z</time>
      </trkpt>
      <trkpt lat="36.52899" lon="-5.23128">
        <ele>398.4328</ele>
        <time>2021-07-16T07:50:00Z</time>
      </trkpt>
      <trkpt lat="36.52956" lon="-5.23067">
        <ele>405.0185</ele>
        <time>2021-07-16T07:50:11Z</time>
      </trkpt>
      <trkpt lat="36.53009" lon="-5.23039">
        <ele>408.0795</ele>
        <time>2021-07-16T07:50:22Z</time>
      </trkpt>
      <trkpt lat="36.53087" lon="-5.23017">
        <ele>399.4173</ele>
        <time>2021-07-16T07:50:33Z</time>
      </trkpt>
      <trkpt lat="36.53118" lon="-5.22926">
        <ele>399.8374</ele>
        <time>2021-07-16T07:50:44Z</time>
      </trkpt>
      <trkpt lat="36.53089" lon="-5.22861">
        <ele>402.1036</ele>
        <time>2021-07-16T07:50:55Z</time>
      </trkpt>
      <trkpt lat="36.53003" lon="-5.22826">
        <ele>415.4926</ele>
        <time>2021-07-16T07:51:06Z</time>
      </trkpt>
      <trkpt lat="36.52956" lon="-5.22784">
        <ele>413.5729</ele>
        <time>2021-07-16T07:51:17Z</time>
      </trkpt>
      <trkpt lat="36.52851" lon="-5.22755">
        <ele>411.9156</ele>
        <time>2021-07-16T07:51:28Z</time>
      </trkpt>
      <trkpt lat="36.5275" lon="-5.22625">
        <ele>333.9898</ele>
        <time>2021-07-16T07:51:39Z</time>
      </trkpt>
      <trkpt lat="36.52706" lon="-5.22597">
        <ele>437.3644</ele>
        <time>2021-07-16T07:51:50Z</time>
      </trkpt>
      <trkpt lat="36.52651" lon="-5.22598">
        <ele>446.8189</ele>
        <time>2021-07-16T07:52:01Z</time>
      </trkpt>
      <trkpt lat="36.52643" lon="-5.22515">
        <ele>448.6417</ele>
        <time>2021-07-16T07:52:12Z</time>
      </trkpt>
      <trkpt lat="36.52648" lon="-5.22456">
        <ele>451.9681</ele>
        <time>2021-07-16T07:52:23Z</time>
      </trkpt>
      <trkpt lat="36.52646" lon="-5.2239">
        <ele>446.6454</ele>
        <time>2021-07-16T07:52:34Z</time>
      </trkpt>
      <trkpt lat="36.52609" lon="-5.22305">
        <ele>449.7038</ele>
        <time>2021-07-16T07:52:45Z</time>
      </trkpt>
      <trkpt lat="36.52587" lon="-5.22239">
        <ele>455.2232</ele>
        <time>2021-07-16T07:52:56Z</time>
      </trkpt>
      <trkpt lat="36.52539" lon="-5.22177">
        <ele>456.0985</ele>
        <time>2021-07-16T07:53:07Z</time>
      </trkpt>
      <trkpt lat="36.52584" lon="-5.22171">
        <ele>459.0487</ele>
        <time>2021-07-16T07:53:18Z</time>
      </trkpt>
      <trkpt lat="36.52621" lon="-5.22177">
        <ele>460.1876</ele>
        <time>2021-07-16T07:53:29Z</time>
      </trkpt>
      <trkpt lat="36.5268" lon="-5.22183">
        <ele>462.437</ele>
        <time>2021-07-16T07:53:40Z</time>
      </trkpt>
      <trkpt lat="36.5268" lon="-5.221">
        <ele>468.2895</ele>
        <time>2021-07-16T07:53:51Z</time>
      </trkpt>
      <trkpt lat="36.52723" lon="-5.21995">
        <ele>467.5626</ele>
        <time>2021-07-16T07:54:02Z</time>
      </trkpt>
      <trkpt lat="36.52711" lon="-5.21911">
        <ele>463.4864</ele>
        <time>2021-07-16T07:54:13Z</time>
      </trkpt>
      <trkpt lat="36.52705" lon="-5.21837">
        <ele>460.4551</ele>
        <time>2021-07-16T07:54:24Z</time>
      </trkpt>
      <trkpt lat="36.5276" lon="-5.2182">
        <ele>460.0844</ele>
        <time>2021-07-16T07:54:35Z</time>
      </trkpt>
      <trkpt lat="36.52835" lon="-5.21773">
        <ele>458.1266</ele>
        <time>2021-07-16T07:54:46Z</time>
      </trkpt>
      <trkpt lat="36.52845" lon="-5.2169">
        <ele>450.6883</ele>
        <time>2021-07-16T07:54:57Z</time>
      </trkpt>
      <trkpt lat="36.52884" lon="-5.2161">
        <ele>453.3491</ele>
        <time>2021-07-16T07:55:08Z</time>
      </trkpt>
      <trkpt lat="36.52875" lon="-5.21568">
        <ele>455.5956</ele>
        <time>2021-07-16T07:55:19Z</time>
      </trkpt>
      <trkpt lat="36.52793" lon="-5.21537">
        <ele>456.3207</ele>
        <time>2021-07-16T07:55:30Z</time>
      </trkpt>
      <trkpt lat="36.52696" lon="-5.21501">
        <ele>459.2982</ele>
        <time>2021-07-16T07:55:41Z</time>
      </trkpt>
      <trkpt lat="36.5265" lon="-5.21464">
        <ele>464.1091</ele>
        <time>2021-07-16T07:55:52Z</time>
      </trkpt>
      <trkpt lat="36.52617" lon="-5.21386">
        <ele>463.1062</ele>
        <time>2021-07-16T07:56:03Z</time>
      </trkpt>
      <trkpt lat="36.52528" lon="-5.21359">
        <ele>467.6588</ele>
        <time>2021-07-16T07:56:14Z</time>
      </trkpt>
      <trkpt lat="36.525" lon="-5.213">
        <ele>468.4322</ele>
        <time>2021-07-16T07:56:25Z</time>
      </trkpt>
      <trkpt lat="36.52436" lon="-5.21318">
        <ele>468.8911</ele>
        <time>2021-07-16T07:56:36Z</time>
      </trkpt>
      <trkpt lat="36.52386" lon="-5.21301">
        <ele>477.1649</ele>
        <time>2021-07-16T07:56:47Z</time>
      </trkpt>
      <trkpt lat="36.52303" lon="-5.21247">
        <ele>474.8935</ele>
        <time>2021-07-16T07:56:58Z</time>
      </trkpt>
      <trkpt lat="36.52218" lon="-5.21257">
        <ele>474.0783</ele>
        <time>2021-07-16T07:57:09Z</time>
      </trkpt>
      <trkpt lat="36.52226" lon="-5.21205">
        <ele>473.9386</ele>
        <time>2021-07-16T07:57:20Z</time>
      </trkpt>
      <trkpt lat="36.52298" lon="-5.21128">
        <ele>457.6034</ele>
        <time>2021-07-16T07:57:31Z</time>
      </trkpt>
      <trkpt lat="36.52315" lon="-5.21021">
        <ele>465.5747</ele>
        <time>2021-07-16T07:57:42Z</time>
      </trkpt>
      <trkpt lat="36.52296" lon="-5.20891">
        <ele>460.831</ele>
        <time>2021-07-16T07:57:53Z</time>
      </trkpt>
      <trkpt lat="36.52247" lon="-5.2085">
        <ele>454.068</ele>
        <time>2021-07-16T07:58:04Z</time>
      </trkpt>
      <trkpt lat="36.52202" lon="-5.20861">
        <ele>448.5424</ele>
        <time>2021-07-16T07:58:15Z</time>
      </trkpt>
      <trkpt lat="36.52197" lon="-5.20854">
        <ele>449.499</ele>
        <time>2021-07-16T07:58:26Z</time>
      </trkpt>
      <trkpt lat="36.52196" lon="-5.20855">
        <ele>449.2561</ele>
        <time>2021-07-16T07:59:26Z</time>
      </trkpt>
      <trkpt lat="36.52199" lon="-5.20858">
        <ele>450.8092</ele>
        <time>2021-07-16T07:59:45Z</time>
      </trkpt>
      <trkpt lat="36.52198" lon="-5.20855">
        <ele>452.9606</ele>
        <time>2021-07-16T08:00:45Z</time>
      </trkpt>
      <trkpt lat="36.5223" lon="-5.20804">
        <ele>445.1817</ele>
        <time>2021-07-16T08:00:56Z</time>
      </trkpt>
      <trkpt lat="36.52313" lon="-5.20733">
        <ele>447.0485</ele>
        <time>2021-07-16T08:01:07Z</time>
      </trkpt>
      <trkpt lat="36.52382" lon="-5.20697">
        <ele>464.425</ele>
        <time>2021-07-16T08:01:18Z</time>
      </trkpt>
      <trkpt lat="36.52418" lon="-5.20759">
        <ele>467.6188</ele>
        <time>2021-07-16T08:01:29Z</time>
      </trkpt>
      <trkpt lat="36.52417" lon="-5.20873">
        <ele>465.9057</ele>
        <time>2021-07-16T08:01:40Z</time>
      </trkpt>
      <trkpt lat="36.52473" lon="-5.20978">
        <ele>465.0896</ele>
        <time>2021-07-16T08:01:51Z</time>
      </trkpt>
      <trkpt lat="36.52544" lon="-5.21023">
        <ele>470.4073</ele>
        <time>2021-07-16T08:02:02Z</time>
      </trkpt>
      <trkpt lat="36.52616" lon="-5.21057">
        <ele>470.7278</ele>
        <time>2021-07-16T08:02:13Z</time>
      </trkpt>
      <trkpt lat="36.52674" lon="-5.21071">
        <ele>476.7179</ele>
        <time>2021-07-16T08:02:24Z</time>
      </trkpt>
      <trkpt lat="36.5273" lon="-5.21183">
        <ele>480.6011</ele>
        <time>2021-07-16T08:02:35Z</time>
      </trkpt>
      <trkpt lat="36.52835" lon="-5.21175">
        <ele>487.0914</ele>
        <time>2021-07-16T08:02:46Z</time>
      </trkpt>
      <trkpt lat="36.52867" lon="-5.21239">
        <ele>493.1813</ele>
        <time>2021-07-16T08:02:57Z</time>
      </trkpt>
      <trkpt lat="36.52965" lon="-5.21128">
        <ele>497.3244</ele>
        <time>2021-07-16T08:03:08Z</time>
      </trkpt>
      <trkpt lat="36.52986" lon="-5.20992">
        <ele>503.7764</ele>
        <time>2021-07-16T08:03:19Z</time>
      </trkpt>
      <trkpt lat="36.53077" lon="-5.20906">
        <ele>508.1798</ele>
        <time>2021-07-16T08:03:30Z</time>
      </trkpt>
      <trkpt lat="36.53083" lon="-5.2076">
        <ele>513.3465</ele>
        <time>2021-07-16T08:03:41Z</time>
      </trkpt>
      <trkpt lat="36.52993" lon="-5.207">
        <ele>521.7395</ele>
        <time>2021-07-16T08:03:52Z</time>
      </trkpt>
      <trkpt lat="36.52994" lon="-5.20553">
        <ele>531.2364</ele>
        <time>2021-07-16T08:04:03Z</time>
      </trkpt>
      <trkpt lat="36.52936" lon="-5.20444">
        <ele>536.5607</ele>
        <time>2021-07-16T08:04:14Z</time>
      </trkpt>
      <trkpt lat="36.52873" lon="-5.20352">
        <ele>542.9975</ele>
        <time>2021-07-16T08:04:25Z</time>
      </trkpt>
      <trkpt lat="36.52792" lon="-5.20258">
        <ele>558.0107</ele>
        <time>2021-07-16T08:04:36Z</time>
      </trkpt>
      <trkpt lat="36.52847" lon="-5.20173">
        <ele>561.0827</ele>
        <time>2021-07-16T08:04:47Z</time>
      </trkpt>
      <trkpt lat="36.52845" lon="-5.20072">
        <ele>561.9376</ele>
        <time>2021-07-16T08:04:58Z</time>
      </trkpt>
      <trkpt lat="36.52946" lon="-5.2005">
        <ele>569.8805</ele>
        <time>2021-07-16T08:05:09Z</time>
      </trkpt>
      <trkpt lat="36.53023" lon="-5.20084">
        <ele>584.5126</ele>
        <time>2021-07-16T08:05:20Z</time>
      </trkpt>
      <trkpt lat="36.53075" lon="-5.20162">
        <ele>589.9366</ele>
        <time>2021-07-16T08:05:31Z</time>
      </trkpt>
      <trkpt lat="36.53086" lon="-5.20077">
        <ele>595.9481</ele>
        <time>2021-07-16T08:05:42Z</time>
      </trkpt>
      <trkpt lat="36.53034" lon="-5.2001">
        <ele>596.965</ele>
        <time>2021-07-16T08:05:53Z</time>
      </trkpt>
      <trkpt lat="36.53055" lon="-5.20049">
        <ele>596.0334</ele>
        <time>2021-07-16T08:06:04Z</time>
      </trkpt>
      <trkpt lat="36.53091" lon="-5.2016">
        <ele>588.4396</ele>
        <time>2021-07-16T08:06:15Z</time>
      </trkpt>
      <trkpt lat="36.53017" lon="-5.20109">
        <ele>585.614</ele>
        <time>2021-07-16T08:06:26Z</time>
      </trkpt>
      <trkpt lat="36.52958" lon="-5.20045">
        <ele>575.9187</ele>
        <time>2021-07-16T08:06:37Z</time>
      </trkpt>
      <trkpt lat="36.52891" lon="-5.2006">
        <ele>564.0919</ele>
        <time>2021-07-16T08:06:48Z</time>
      </trkpt>
      <trkpt lat="36.52951" lon="-5.20071">
        <ele>552.9439</ele>
        <time>2021-07-16T08:06:59Z</time>
      </trkpt>
      <trkpt lat="36.52982" lon="-5.20112">
        <ele>553.7862</ele>
        <time>2021-07-16T08:07:10Z</time>
      </trkpt>
      <trkpt lat="36.52997" lon="-5.20224">
        <ele>546.5144</ele>
        <time>2021-07-16T08:07:21Z</time>
      </trkpt>
      <trkpt lat="36.53056" lon="-5.20276">
        <ele>531.9871</ele>
        <time>2021-07-16T08:07:32Z</time>
      </trkpt>
      <trkpt lat="36.5312" lon="-5.20306">
        <ele>536.8666</ele>
        <time>2021-07-16T08:07:43Z</time>
      </trkpt>
      <trkpt lat="36.53174" lon="-5.20337">
        <ele>531.6735</ele>
        <time>2021-07-16T08:07:54Z</time>
      </trkpt>
      <trkpt lat="36.53213" lon="-5.20248">
        <ele>519.7474</ele>
        <time>2021-07-16T08:08:05Z</time>
      </trkpt>
      <trkpt lat="36.53252" lon="-5.20225">
        <ele>521.4406</ele>
        <time>2021-07-16T08:08:16Z</time>
      </trkpt>
      <trkpt lat="36.53287" lon="-5.20159">
        <ele>502.5124</ele>
        <time>2021-07-16T08:08:27Z</time>
      </trkpt>
      <trkpt lat="36.53328" lon="-5.20063">
        <ele>500.9216</ele>
        <time>2021-07-16T08:08:38Z</time>
      </trkpt>
      <trkpt lat="36.53235" lon="-5.19999">
        <ele>487.5302</ele>
        <time>2021-07-16T08:08:49Z</time>
      </trkpt>
      <trkpt lat="36.53236" lon="-5.19931">
        <ele>489.7035</ele>
        <time>2021-07-16T08:09:00Z</time>
      </trkpt>
      <trkpt lat="36.53264" lon="-5.19811">
        <ele>473.869</ele>
        <time>2021-07-16T08:09:11Z</time>
      </trkpt>
      <trkpt lat="36.53295" lon="-5.19758">
        <ele>468.5832</ele>
        <time>2021-07-16T08:09:22Z</time>
      </trkpt>
      <trkpt lat="36.53326" lon="-5.19692">
        <ele>471.0205</ele>
        <time>2021-07-16T08:09:33Z</time>
      </trkpt>
      <trkpt lat="36.53369" lon="-5.19628">
        <ele>468.6442</ele>
        <time>2021-07-16T08:09:44Z</time>
      </trkpt>
      <trkpt lat="36.53392" lon="-5.19583">
        <ele>481.1853</ele>
        <time>2021-07-16T08:09:55Z</time>
      </trkpt>
      <trkpt lat="36.53398" lon="-5.19689">
        <ele>499.278</ele>
        <time>2021-07-16T08:10:06Z</time>
      </trkpt>
      <trkpt lat="36.53436" lon="-5.1979">
        <ele>501.4588</ele>
        <time>2021-07-16T08:10:17Z</time>
      </trkpt>
      <trkpt lat="36.53462" lon="-5.19864">
        <ele>479.1596</ele>
        <time>2021-07-16T08:10:28Z</time>
      </trkpt>
      <trkpt lat="36.53569" lon="-5.19926">
        <ele>463.6831</ele>
        <time>2021-07-16T08:10:39Z</time>
      </trkpt>
      <trkpt lat="36.53642" lon="-5.19996">
        <ele>467.3497</ele>
        <time>2021-07-16T08:10:50Z</time>
      </trkpt>
      <trkpt lat="36.53718" lon="-5.19987">
        <ele>479.2861</ele>
        <time>2021-07-16T08:11:01Z</time>
      </trkpt>
      <trkpt lat="36.53781" lon="-5.19903">
        <ele>478.9094</ele>
        <time>2021-07-16T08:11:12Z</time>
      </trkpt>
      <trkpt lat="36.53869" lon="-5.19838">
        <ele>464.3563</ele>
        <time>2021-07-16T08:11:23Z</time>
      </trkpt>
      <trkpt lat="36.53968" lon="-5.19768">
        <ele>462.5662</ele>
        <time>2021-07-16T08:11:34Z</time>
      </trkpt>
      <trkpt lat="36.5407" lon="-5.19673">
        <ele>465.5863</ele>
        <time>2021-07-16T08:11:45Z</time>
      </trkpt>
      <trkpt lat="36.54141" lon="-5.19619">
        <ele>470.0774</ele>
        <time>2021-07-16T08:11:56Z</time>
      </trkpt>
      <trkpt lat="36.5424" lon="-5.19587">
        <ele>476.8704</ele>
        <time>2021-07-16T08:12:07Z</time>
      </trkpt>
      <trkpt lat="36.54329" lon="-5.19518">
        <ele>483.7932</ele>
        <time>2021-07-16T08:12:18Z</time>
      </trkpt>
      <trkpt lat="36.54369" lon="-5.19559">
        <ele>490.3158</ele>
        <time>2021-07-16T08:12:29Z</time>
      </trkpt>
      <trkpt lat="36.54447" lon="-5.19513">
        <ele>496.9807</ele>
        <time>2021-07-16T08:12:40Z</time>
      </trkpt>
      <trkpt lat="36.54484" lon="-5.19402">
        <ele>505.415</ele>
        <time>2021-07-16T08:12:51Z</time>
      </trkpt>
      <trkpt lat="36.54576" lon="-5.19349">
        <ele>507.2785</ele>
        <time>2021-07-16T08:13:02Z</time>
      </trkpt>
      <trkpt lat="36.54668" lon="-5.1933">
        <ele>516.2353</ele>
        <time>2021-07-16T08:13:13Z</time>
      </trkpt>
      <trkpt lat="36.54728" lon="-5.19325">
        <ele>513.8694</ele>
        <time>2021-07-16T08:13:24Z</time>
      </trkpt>
      <trkpt lat="36.54707" lon="-5.19402">
        <ele>521.3991</ele>
        <time>2021-07-16T08:13:35Z</time>
      </trkpt>
      <trkpt lat="36.54666" lon="-5.19424">
        <ele>519.06</ele>
        <time>2021-07-16T08:13:46Z</time>
      </trkpt>
      <trkpt lat="36.54644" lon="-5.19429">
        <ele>524.9787</ele>
        <time>2021-07-16T08:13:57Z</time>
      </trkpt>
      <trkpt lat="36.54637" lon="-5.19429">
        <ele>523.0337</ele>
        <time>2021-07-16T08:14:08Z</time>
      </trkpt>
      <trkpt lat="36.54656" lon="-5.19421">
        <ele>524.4382</ele>
        <time>2021-07-16T08:14:19Z</time>
      </trkpt>
      <trkpt lat="36.54733" lon="-5.19364">
        <ele>522.0225</ele>
        <time>2021-07-16T08:14:30Z</time>
      </trkpt>
      <trkpt lat="36.54757" lon="-5.19273">
        <ele>534.7321</ele>
        <time>2021-07-16T08:14:41Z</time>
      </trkpt>
      <trkpt lat="36.54841" lon="-5.19268">
        <ele>550.609</ele>
        <time>2021-07-16T08:14:52Z</time>
      </trkpt>
      <trkpt lat="36.54796" lon="-5.19235">
        <ele>551.1537</ele>
        <time>2021-07-16T08:15:03Z</time>
      </trkpt>
      <trkpt lat="36.54782" lon="-5.19197">
        <ele>555.3506</ele>
        <time>2021-07-16T08:15:14Z</time>
      </trkpt>
      <trkpt lat="36.54848" lon="-5.19212">
        <ele>560.9026</ele>
        <time>2021-07-16T08:15:25Z</time>
      </trkpt>
      <trkpt lat="36.54915" lon="-5.19171">
        <ele>570.8556</ele>
        <time>2021-07-16T08:15:36Z</time>
      </trkpt>
      <trkpt lat="36.54988" lon="-5.19132">
        <ele>585.6318</ele>
        <time>2021-07-16T08:15:47Z</time>
      </trkpt>
      <trkpt lat="36.55055" lon="-5.192">
        <ele>580.5961</ele>
        <time>2021-07-16T08:15:58Z</time>
      </trkpt>
      <trkpt lat="36.5506" lon="-5.19088">
        <ele>590.2145</ele>
        <time>2021-07-16T08:16:09Z</time>
      </trkpt>
      <trkpt lat="36.55157" lon="-5.19077">
        <ele>602.5949</ele>
        <time>2021-07-16T08:16:20Z</time>
      </trkpt>
      <trkpt lat="36.5516" lon="-5.19078">
        <ele>619.3946</ele>
        <time>2021-07-16T08:16:45Z</time>
      </trkpt>
      <trkpt lat="36.55164" lon="-5.19078">
        <ele>620.7763</ele>
        <time>2021-07-16T08:17:22Z</time>
      </trkpt>
      <trkpt lat="36.55189" lon="-5.1908">
        <ele>616.4821</ele>
        <time>2021-07-16T08:17:33Z</time>
      </trkpt>
      <trkpt lat="36.55264" lon="-5.19034">
        <ele>605.8219</ele>
        <time>2021-07-16T08:17:44Z</time>
      </trkpt>
      <trkpt lat="36.55226" lon="-5.19017">
        <ele>610.5233</ele>
        <time>2021-07-16T08:17:55Z</time>
      </trkpt>
      <trkpt lat="36.55119" lon="-5.18951">
        <ele>618.5828</ele>
        <time>2021-07-16T08:18:06Z</time>
      </trkpt>
      <trkpt lat="36.55038" lon="-5.18874">
        <ele>619.7372</ele>
        <time>2021-07-16T08:18:17Z</time>
      </trkpt>
      <trkpt lat="36.54957" lon="-5.18853">
        <ele>630.8114</ele>
        <time>2021-07-16T08:18:28Z</time>
      </trkpt>
      <trkpt lat="36.54955" lon="-5.18846">
        <ele>630.6508</ele>
        <time>2021-07-16T08:19:25Z</time>
      </trkpt>
      <trkpt lat="36.54954" lon="-5.18841">
        <ele>631.5117</ele>
        <time>2021-07-16T08:19:50Z</time>
      </trkpt>
      <trkpt lat="36.54972" lon="-5.18841">
        <ele>633.9561</ele>
        <time>2021-07-16T08:20:01Z</time>
      </trkpt>
      <trkpt lat="36.5498" lon="-5.18843">
        <ele>633.2746</ele>
        <time>2021-07-16T08:20:12Z</time>
      </trkpt>
      <trkpt lat="36.54997" lon="-5.1884">
        <ele>634.6841</ele>
        <time>2021-07-16T08:20:23Z</time>
      </trkpt>
      <trkpt lat="36.55121" lon="-5.18836">
        <ele>641.5367</ele>
        <time>2021-07-16T08:20:34Z</time>
      </trkpt>
      <trkpt lat="36.552" lon="-5.1888">
        <ele>652.6942</ele>
        <time>2021-07-16T08:20:45Z</time>
      </trkpt>
      <trkpt lat="36.55287" lon="-5.18877">
        <ele>659.7256</ele>
        <time>2021-07-16T08:20:56Z</time>
      </trkpt>
      <trkpt lat="36.55374" lon="-5.18808">
        <ele>659.2521</ele>
        <time>2021-07-16T08:21:07Z</time>
      </trkpt>
      <trkpt lat="36.55426" lon="-5.18833">
        <ele>667.4441</ele>
        <time>2021-07-16T08:21:18Z</time>
      </trkpt>
      <trkpt lat="36.55521" lon="-5.18874">
        <ele>678.1826</ele>
        <time>2021-07-16T08:21:29Z</time>
      </trkpt>
      <trkpt lat="36.55609" lon="-5.18908">
        <ele>684.3339</ele>
        <time>2021-07-16T08:21:40Z</time>
      </trkpt>
      <trkpt lat="36.55619" lon="-5.18838">
        <ele>694.0374</ele>
        <time>2021-07-16T08:21:51Z</time>
      </trkpt>
      <trkpt lat="36.5553" lon="-5.18805">
        <ele>701.9462</ele>
        <time>2021-07-16T08:22:02Z</time>
      </trkpt>
      <trkpt lat="36.55447" lon="-5.18733">
        <ele>714.9326</ele>
        <time>2021-07-16T08:22:13Z</time>
      </trkpt>
      <trkpt lat="36.55447" lon="-5.18705">
        <ele>722.0482</ele>
        <time>2021-07-16T08:22:24Z</time>
      </trkpt>
      <trkpt lat="36.5555" lon="-5.18747">
        <ele>728.4193</ele>
        <time>2021-07-16T08:22:35Z</time>
      </trkpt>
      <trkpt lat="36.55673" lon="-5.18665">
        <ele>728.5678</ele>
        <time>2021-07-16T08:22:46Z</time>
      </trkpt>
      <trkpt lat="36.55764" lon="-5.18522">
        <ele>744.8626</ele>
        <time>2021-07-16T08:22:57Z</time>
      </trkpt>
      <trkpt lat="36.5583" lon="-5.18381">
        <ele>753.508</ele>
        <time>2021-07-16T08:23:08Z</time>
      </trkpt>
      <trkpt lat="36.55873" lon="-5.1827">
        <ele>759.0539</ele>
        <time>2021-07-16T08:23:19Z</time>
      </trkpt>
      <trkpt lat="36.55926" lon="-5.18193">
        <ele>757.9559</ele>
        <time>2021-07-16T08:23:30Z</time>
      </trkpt>
      <trkpt lat="36.55957" lon="-5.18006">
        <ele>760.6236</ele>
        <time>2021-07-16T08:23:41Z</time>
      </trkpt>
      <trkpt lat="36.55991" lon="-5.1784">
        <ele>767.1287</ele>
        <time>2021-07-16T08:23:52Z</time>
      </trkpt>
      <trkpt lat="36.56033" lon="-5.17872">
        <ele>773.1576</ele>
        <time>2021-07-16T08:24:03Z</time>
      </trkpt>
      <trkpt lat="36.56067" lon="-5.17986">
        <ele>773.9676</ele>
        <time>2021-07-16T08:24:14Z</time>
      </trkpt>
      <trkpt lat="36.56078" lon="-5.18099">
        <ele>781.1403</ele>
        <time>2021-07-16T08:24:25Z</time>
      </trkpt>
      <trkpt lat="36.56123" lon="-5.18214">
        <ele>779.2934</ele>
        <time>2021-07-16T08:24:36Z</time>
      </trkpt>
      <trkpt lat="36.56137" lon="-5.18232">
        <ele>783.0233</ele>
        <time>2021-07-16T08:24:48Z</time>
      </trkpt>
      <trkpt lat="36.56135" lon="-5.18236">
        <ele>781.3739</ele>
        <time>2021-07-16T08:25:06Z</time>
      </trkpt>
      <trkpt lat="36.5614" lon="-5.18236">
        <ele>784.7089</ele>
        <time>2021-07-16T08:25:43Z</time>
      </trkpt>
      <trkpt lat="36.56165" lon="-5.18145">
        <ele>788.8559</ele>
        <time>2021-07-16T08:25:54Z</time>
      </trkpt>
      <trkpt lat="36.56213" lon="-5.18037">
        <ele>795.6281</ele>
        <time>2021-07-16T08:26:05Z</time>
      </trkpt>
      <trkpt lat="36.56264" lon="-5.17943">
        <ele>796.1031</ele>
        <time>2021-07-16T08:26:16Z</time>
      </trkpt>
      <trkpt lat="36.5635" lon="-5.17939">
        <ele>797.6132</ele>
        <time>2021-07-16T08:26:27Z</time>
      </trkpt>
      <trkpt lat="36.56377" lon="-5.17847">
        <ele>804.4774</ele>
        <time>2021-07-16T08:26:38Z</time>
      </trkpt>
      <trkpt lat="36.56403" lon="-5.17768">
        <ele>816.0558</ele>
        <time>2021-07-16T08:26:49Z</time>
      </trkpt>
      <trkpt lat="36.56405" lon="-5.17666">
        <ele>823.3383</ele>
        <time>2021-07-16T08:27:00Z</time>
      </trkpt>
      <trkpt lat="36.56389" lon="-5.17559">
        <ele>826.7261</ele>
        <time>2021-07-16T08:27:11Z</time>
      </trkpt>
      <trkpt lat="36.56381" lon="-5.17475">
        <ele>834.0836</ele>
        <time>2021-07-16T08:27:22Z</time>
      </trkpt>
      <trkpt lat="36.56439" lon="-5.17379">
        <ele>836.5161</ele>
        <time>2021-07-16T08:27:33Z</time>
      </trkpt>
      <trkpt lat="36.56416" lon="-5.17291">
        <ele>838.2252</ele>
        <time>2021-07-16T08:27:44Z</time>
      </trkpt>
      <trkpt lat="36.56478" lon="-5.17251">
        <ele>840.3974</ele>
        <time>2021-07-16T08:27:55Z</time>
      </trkpt>
      <trkpt lat="36.56503" lon="-5.17177">
        <ele>842.6426</ele>
        <time>2021-07-16T08:28:06Z</time>
      </trkpt>
      <trkpt lat="36.56576" lon="-5.1723">
        <ele>850.1572</ele>
        <time>2021-07-16T08:28:17Z</time>
      </trkpt>
      <trkpt lat="36.56636" lon="-5.1726">
        <ele>855.1993</ele>
        <time>2021-07-16T08:28:28Z</time>
      </trkpt>
      <trkpt lat="36.56664" lon="-5.17164">
        <ele>860.5689</ele>
        <time>2021-07-16T08:28:39Z</time>
      </trkpt>
      <trkpt lat="36.56705" lon="-5.17125">
        <ele>864.46</ele>
        <time>2021-07-16T08:28:50Z</time>
      </trkpt>
      <trkpt lat="36.56776" lon="-5.17091">
        <ele>873.0776</ele>
        <time>2021-07-16T08:29:01Z</time>
      </trkpt>
      <trkpt lat="36.56808" lon="-5.16999">
        <ele>881.3812</ele>
        <time>2021-07-16T08:29:12Z</time>
      </trkpt>
      <trkpt lat="36.56819" lon="-5.16938">
        <ele>879.2556</ele>
        <time>2021-07-16T08:29:23Z</time>
      </trkpt>
      <trkpt lat="36.56913" lon="-5.16933">
        <ele>884.5256</ele>
        <time>2021-07-16T08:29:34Z</time>
      </trkpt>
      <trkpt lat="36.56909" lon="-5.16848">
        <ele>892.9003</ele>
        <time>2021-07-16T08:29:45Z</time>
      </trkpt>
      <trkpt lat="36.56871" lon="-5.16781">
        <ele>891.4812</ele>
        <time>2021-07-16T08:29:56Z</time>
      </trkpt>
      <trkpt lat="36.56935" lon="-5.16722">
        <ele>896.1716</ele>
        <time>2021-07-16T08:30:07Z</time>
      </trkpt>
      <trkpt lat="36.57002" lon="-5.16641">
        <ele>909.3456</ele>
        <time>2021-07-16T08:30:18Z</time>
      </trkpt>
      <trkpt lat="36.57086" lon="-5.16623">
        <ele>928.4528</ele>
        <time>2021-07-16T08:30:30Z</time>
      </trkpt>
      <trkpt lat="36.57162" lon="-5.16586">
        <ele>954.9635</ele>
        <time>2021-07-16T08:30:41Z</time>
      </trkpt>
      <trkpt lat="36.57171" lon="-5.16593">
        <ele>939.8129</ele>
        <time>2021-07-16T08:30:52Z</time>
      </trkpt>
      <trkpt lat="36.5718" lon="-5.16592">
        <ele>939.5861</ele>
        <time>2021-07-16T08:31:03Z</time>
      </trkpt>
      <trkpt lat="36.57227" lon="-5.16662">
        <ele>941.509</ele>
        <time>2021-07-16T08:31:14Z</time>
      </trkpt>
      <trkpt lat="36.57267" lon="-5.16713">
        <ele>943.1637</ele>
        <time>2021-07-16T08:31:25Z</time>
      </trkpt>
      <trkpt lat="36.57349" lon="-5.16774">
        <ele>953.4265</ele>
        <time>2021-07-16T08:31:36Z</time>
      </trkpt>
      <trkpt lat="36.57433" lon="-5.16786">
        <ele>963.1387</ele>
        <time>2021-07-16T08:31:47Z</time>
      </trkpt>
      <trkpt lat="36.57495" lon="-5.16821">
        <ele>974.7598</ele>
        <time>2021-07-16T08:31:58Z</time>
      </trkpt>
      <trkpt lat="36.57529" lon="-5.16897">
        <ele>982.6156</ele>
        <time>2021-07-16T08:32:09Z</time>
      </trkpt>
      <trkpt lat="36.57581" lon="-5.16958">
        <ele>991.453</ele>
        <time>2021-07-16T08:32:20Z</time>
      </trkpt>
      <trkpt lat="36.57623" lon="-5.17048">
        <ele>1003.948</ele>
        <time>2021-07-16T08:32:31Z</time>
      </trkpt>
      <trkpt lat="36.57632" lon="-5.1713">
        <ele>1009.023</ele>
        <time>2021-07-16T08:32:42Z</time>
      </trkpt>
      <trkpt lat="36.57649" lon="-5.17234">
        <ele>1016.16</ele>
        <time>2021-07-16T08:32:53Z</time>
      </trkpt>
      <trkpt lat="36.57729" lon="-5.17296">
        <ele>1025.795</ele>
        <time>2021-07-16T08:33:04Z</time>
      </trkpt>
      <trkpt lat="36.57739" lon="-5.1739">
        <ele>1034.279</ele>
        <time>2021-07-16T08:33:15Z</time>
      </trkpt>
      <trkpt lat="36.57742" lon="-5.17496">
        <ele>1039.92</ele>
        <time>2021-07-16T08:33:26Z</time>
      </trkpt>
      <trkpt lat="36.57745" lon="-5.1756">
        <ele>1046.091</ele>
        <time>2021-07-16T08:33:37Z</time>
      </trkpt>
      <trkpt lat="36.57756" lon="-5.17581">
        <ele>1045.406</ele>
        <time>2021-07-16T08:34:02Z</time>
      </trkpt>
      <trkpt lat="36.57796" lon="-5.1754">
        <ele>1043.169</ele>
        <time>2021-07-16T08:34:13Z</time>
      </trkpt>
      <trkpt lat="36.57785" lon="-5.17389">
        <ele>1054.968</ele>
        <time>2021-07-16T08:34:24Z</time>
      </trkpt>
      <trkpt lat="36.57808" lon="-5.17276">
        <ele>1056.872</ele>
        <time>2021-07-16T08:34:35Z</time>
      </trkpt>
      <trkpt lat="36.57803" lon="-5.17188">
        <ele>1050.446</ele>
        <time>2021-07-16T08:34:46Z</time>
      </trkpt>
      <trkpt lat="36.57821" lon="-5.17107">
        <ele>1046.316</ele>
        <time>2021-07-16T08:34:57Z</time>
      </trkpt>
      <trkpt lat="36.57821" lon="-5.16991">
        <ele>1045.984</ele>
        <time>2021-07-16T08:35:08Z</time>
      </trkpt>
      <trkpt lat="36.57867" lon="-5.16915">
        <ele>1049.397</ele>
        <time>2021-07-16T08:35:19Z</time>
      </trkpt>
      <trkpt lat="36.57875" lon="-5.16804">
        <ele>1051.627</ele>
        <time>2021-07-16T08:35:30Z</time>
      </trkpt>
      <trkpt lat="36.57946" lon="-5.16709">
        <ele>1057.348</ele>
        <time>2021-07-16T08:35:41Z</time>
      </trkpt>
      <trkpt lat="36.5802" lon="-5.16674">
        <ele>1046.768</ele>
        <time>2021-07-16T08:35:52Z</time>
      </trkpt>
      <trkpt lat="36.581" lon="-5.16556">
        <ele>1042.766</ele>
        <time>2021-07-16T08:36:03Z</time>
      </trkpt>
      <trkpt lat="36.58156" lon="-5.16458">
        <ele>1053.034</ele>
        <time>2021-07-16T08:36:14Z</time>
      </trkpt>
      <trkpt lat="36.58173" lon="-5.16445">
        <ele>1059.92</ele>
        <time>2021-07-16T08:36:25Z</time>
      </trkpt>
      <trkpt lat="36.58176" lon="-5.16443">
        <ele>1061.495</ele>
        <time>2021-07-16T08:36:37Z</time>
      </trkpt>
      <trkpt lat="36.58198" lon="-5.16427">
        <ele>1067.555</ele>
        <time>2021-07-16T08:36:48Z</time>
      </trkpt>
      <trkpt lat="36.58212" lon="-5.164">
        <ele>1075.514</ele>
        <time>2021-07-16T08:36:59Z</time>
      </trkpt>
      <trkpt lat="36.58215" lon="-5.16396">
        <ele>1075.985</ele>
        <time>2021-07-16T08:37:10Z</time>
      </trkpt>
      <trkpt lat="36.58202" lon="-5.164">
        <ele>1075.418</ele>
        <time>2021-07-16T08:37:21Z</time>
      </trkpt>
      <trkpt lat="36.582" lon="-5.16443">
        <ele>1067.373</ele>
        <time>2021-07-16T08:37:32Z</time>
      </trkpt>
      <trkpt lat="36.5816" lon="-5.16435">
        <ele>1061.334</ele>
        <time>2021-07-16T08:37:43Z</time>
      </trkpt>
      <trkpt lat="36.5816" lon="-5.1643">
        <ele>1059.639</ele>
        <time>2021-07-16T08:38:02Z</time>
      </trkpt>
      <trkpt lat="36.58175" lon="-5.16316">
        <ele>1054.773</ele>
        <time>2021-07-16T08:38:13Z</time>
      </trkpt>
      <trkpt lat="36.58242" lon="-5.16263">
        <ele>1056.106</ele>
        <time>2021-07-16T08:38:24Z</time>
      </trkpt>
      <trkpt lat="36.58323" lon="-5.16237">
        <ele>1062.492</ele>
        <time>2021-07-16T08:38:35Z</time>
      </trkpt>
      <trkpt lat="36.58398" lon="-5.16224">
        <ele>1067.548</ele>
        <time>2021-07-16T08:38:46Z</time>
      </trkpt>
      <trkpt lat="36.58491" lon="-5.16192">
        <ele>1060.537</ele>
        <time>2021-07-16T08:38:57Z</time>
      </trkpt>
      <trkpt lat="36.58527" lon="-5.16114">
        <ele>1050.914</ele>
        <time>2021-07-16T08:39:08Z</time>
      </trkpt>
      <trkpt lat="36.58549" lon="-5.16019">
        <ele>1040.712</ele>
        <time>2021-07-16T08:39:19Z</time>
      </trkpt>
      <trkpt lat="36.58567" lon="-5.15953">
        <ele>1040.129</ele>
        <time>2021-07-16T08:39:30Z</time>
      </trkpt>
      <trkpt lat="36.58607" lon="-5.15915">
        <ele>1037.725</ele>
        <time>2021-07-16T08:39:41Z</time>
      </trkpt>
      <trkpt lat="36.58676" lon="-5.15914">
        <ele>1048.815</ele>
        <time>2021-07-16T08:39:52Z</time>
      </trkpt>
      <trkpt lat="36.58757" lon="-5.15872">
        <ele>1047.464</ele>
        <time>2021-07-16T08:40:03Z</time>
      </trkpt>
      <trkpt lat="36.58828" lon="-5.15804">
        <ele>1047.528</ele>
        <time>2021-07-16T08:40:14Z</time>
      </trkpt>
      <trkpt lat="36.58856" lon="-5.15675">
        <ele>1049.92</ele>
        <time>2021-07-16T08:40:25Z</time>
      </trkpt>
      <trkpt lat="36.58857" lon="-5.15582">
        <ele>1047.727</ele>
        <time>2021-07-16T08:40:36Z</time>
      </trkpt>
      <trkpt lat="36.58915" lon="-5.15511">
        <ele>1036.955</ele>
        <time>2021-07-16T08:40:47Z</time>
      </trkpt>
      <trkpt lat="36.58967" lon="-5.15402">
        <ele>1028.67</ele>
        <time>2021-07-16T08:40:58Z</time>
      </trkpt>
      <trkpt lat="36.59011" lon="-5.15329">
        <ele>1020.927</ele>
        <time>2021-07-16T08:41:09Z</time>
      </trkpt>
      <trkpt lat="36.59091" lon="-5.15328">
        <ele>1015.01</ele>
        <time>2021-07-16T08:41:20Z</time>
      </trkpt>
      <trkpt lat="36.59166" lon="-5.15333">
        <ele>1017.526</ele>
        <time>2021-07-16T08:41:31Z</time>
      </trkpt>
      <trkpt lat="36.59252" lon="-5.15322">
        <ele>1021.274</ele>
        <time>2021-07-16T08:41:42Z</time>
      </trkpt>
      <trkpt lat="36.5932" lon="-5.15253">
        <ele>1019.784</ele>
        <time>2021-07-16T08:41:53Z</time>
      </trkpt>
      <trkpt lat="36.59379" lon="-5.15161">
        <ele>1008.464</ele>
        <time>2021-07-16T08:42:04Z</time>
      </trkpt>
      <trkpt lat="36.59419" lon="-5.15069">
        <ele>1001.805</ele>
        <time>2021-07-16T08:42:15Z</time>
      </trkpt>
      <trkpt lat="36.59449" lon="-5.14952">
        <ele>987.7827</ele>
        <time>2021-07-16T08:42:26Z</time>
      </trkpt>
      <trkpt lat="36.59521" lon="-5.14872">
        <ele>999.4914</ele>
        <time>2021-07-16T08:42:37Z</time>
      </trkpt>
      <trkpt lat="36.59524" lon="-5.14811">
        <ele>1001.214</ele>
        <time>2021-07-16T08:42:48Z</time>
      </trkpt>
      <trkpt lat="36.59498" lon="-5.14735">
        <ele>999.0629</ele>
        <time>2021-07-16T08:42:59Z</time>
      </trkpt>
      <trkpt lat="36.5952" lon="-5.1464">
        <ele>1003.694</ele>
        <time>2021-07-16T08:43:10Z</time>
      </trkpt>
      <trkpt lat="36.59567" lon="-5.14563">
        <ele>991.3299</ele>
        <time>2021-07-16T08:43:21Z</time>
      </trkpt>
      <trkpt lat="36.59571" lon="-5.14437">
        <ele>962.1179</ele>
        <time>2021-07-16T08:43:32Z</time>
      </trkpt>
      <trkpt lat="36.59586" lon="-5.14355">
        <ele>954.7267</ele>
        <time>2021-07-16T08:43:43Z</time>
      </trkpt>
      <trkpt lat="36.59627" lon="-5.14274">
        <ele>954.2843</ele>
        <time>2021-07-16T08:43:54Z</time>
      </trkpt>
      <trkpt lat="36.5965" lon="-5.1421">
        <ele>949.7078</ele>
        <time>2021-07-16T08:44:05Z</time>
      </trkpt>
      <trkpt lat="36.59658" lon="-5.14178">
        <ele>941.3987</ele>
        <time>2021-07-16T08:44:16Z</time>
      </trkpt>
      <trkpt lat="36.59657" lon="-5.14081">
        <ele>934.8711</ele>
        <time>2021-07-16T08:44:27Z</time>
      </trkpt>
      <trkpt lat="36.59662" lon="-5.1397">
        <ele>936.9133</ele>
        <time>2021-07-16T08:44:38Z</time>
      </trkpt>
      <trkpt lat="36.59662" lon="-5.139">
        <ele>929.3031</ele>
        <time>2021-07-16T08:44:49Z</time>
      </trkpt>
      <trkpt lat="36.59637" lon="-5.13801">
        <ele>926.5072</ele>
        <time>2021-07-16T08:45:00Z</time>
      </trkpt>
      <trkpt lat="36.59618" lon="-5.13669">
        <ele>926.759</ele>
        <time>2021-07-16T08:45:11Z</time>
      </trkpt>
      <trkpt lat="36.59601" lon="-5.13545">
        <ele>929.8701</ele>
        <time>2021-07-16T08:45:22Z</time>
      </trkpt>
      <trkpt lat="36.59655" lon="-5.13458">
        <ele>927.3309</ele>
        <time>2021-07-16T08:45:33Z</time>
      </trkpt>
      <trkpt lat="36.59707" lon="-5.13412">
        <ele>922.5924</ele>
        <time>2021-07-16T08:45:44Z</time>
      </trkpt>
      <trkpt lat="36.59723" lon="-5.13309">
        <ele>932.216</ele>
        <time>2021-07-16T08:45:55Z</time>
      </trkpt>
      <trkpt lat="36.59808" lon="-5.13221">
        <ele>948.8758</ele>
        <time>2021-07-16T08:46:06Z</time>
      </trkpt>
      <trkpt lat="36.5991" lon="-5.13156">
        <ele>961.9809</ele>
        <time>2021-07-16T08:46:17Z</time>
      </trkpt>
      <trkpt lat="36.59935" lon="-5.12977">
        <ele>971.5719</ele>
        <time>2021-07-16T08:46:28Z</time>
      </trkpt>
      <trkpt lat="36.59873" lon="-5.12817">
        <ele>973.5533</ele>
        <time>2021-07-16T08:46:39Z</time>
      </trkpt>
      <trkpt lat="36.59794" lon="-5.12738">
        <ele>980.1691</ele>
        <time>2021-07-16T08:46:50Z</time>
      </trkpt>
      <trkpt lat="36.59751" lon="-5.12634">
        <ele>989.7972</ele>
        <time>2021-07-16T08:47:01Z</time>
      </trkpt>
      <trkpt lat="36.59877" lon="-5.12583">
        <ele>1005.421</ele>
        <time>2021-07-16T08:47:12Z</time>
      </trkpt>
      <trkpt lat="36.59966" lon="-5.12513">
        <ele>1022.16</ele>
        <time>2021-07-16T08:47:23Z</time>
      </trkpt>
      <trkpt lat="36.60002" lon="-5.12398">
        <ele>1024.973</ele>
        <time>2021-07-16T08:47:34Z</time>
      </trkpt>
      <trkpt lat="36.60039" lon="-5.12255">
        <ele>1034.226</ele>
        <time>2021-07-16T08:47:45Z</time>
      </trkpt>
      <trkpt lat="36.60099" lon="-5.12114">
        <ele>1040.029</ele>
        <time>2021-07-16T08:47:56Z</time>
      </trkpt>
      <trkpt lat="36.6017" lon="-5.1202">
        <ele>1040.353</ele>
        <time>2021-07-16T08:48:07Z</time>
      </trkpt>
      <trkpt lat="36.60169" lon="-5.11885">
        <ele>1032.519</ele>
        <time>2021-07-16T08:48:18Z</time>
      </trkpt>
      <trkpt lat="36.60093" lon="-5.11808">
        <ele>1019.602</ele>
        <time>2021-07-16T08:48:29Z</time>
      </trkpt>
      <trkpt lat="36.5999" lon="-5.11706">
        <ele>1012.504</ele>
        <time>2021-07-16T08:48:40Z</time>
      </trkpt>
      <trkpt lat="36.59988" lon="-5.116">
        <ele>1012.297</ele>
        <time>2021-07-16T08:48:51Z</time>
      </trkpt>
      <trkpt lat="36.60093" lon="-5.11627">
        <ele>1005.803</ele>
        <time>2021-07-16T08:49:02Z</time>
      </trkpt>
      <trkpt lat="36.60156" lon="-5.11647">
        <ele>1001.081</ele>
        <time>2021-07-16T08:49:13Z</time>
      </trkpt>
      <trkpt lat="36.60237" lon="-5.11612">
        <ele>994.9565</ele>
        <time>2021-07-16T08:49:24Z</time>
      </trkpt>
      <trkpt lat="36.60304" lon="-5.11572">
        <ele>996.3862</ele>
        <time>2021-07-16T08:49:35Z</time>
      </trkpt>
      <trkpt lat="36.60277" lon="-5.11456">
        <ele>995.4498</ele>
        <time>2021-07-16T08:49:46Z</time>
      </trkpt>
      <trkpt lat="36.60333" lon="-5.11372">
        <ele>989.8628</ele>
        <time>2021-07-16T08:49:57Z</time>
      </trkpt>
      <trkpt lat="36.60411" lon="-5.11327">
        <ele>985.1168</ele>
        <time>2021-07-16T08:50:08Z</time>
      </trkpt>
      <trkpt lat="36.60428" lon="-5.11182">
        <ele>988.8437</ele>
        <time>2021-07-16T08:50:19Z</time>
      </trkpt>
      <trkpt lat="36.60419" lon="-5.11072">
        <ele>983.8067</ele>
        <time>2021-07-16T08:50:30Z</time>
      </trkpt>
      <trkpt lat="36.60452" lon="-5.10909">
        <ele>978.0457</ele>
        <time>2021-07-16T08:50:41Z</time>
      </trkpt>
      <trkpt lat="36.60503" lon="-5.10839">
        <ele>975.7132</ele>
        <time>2021-07-16T08:50:52Z</time>
      </trkpt>
      <trkpt lat="36.60538" lon="-5.10786">
        <ele>970.1424</ele>
        <time>2021-07-16T08:51:03Z</time>
      </trkpt>
      <trkpt lat="36.60538" lon="-5.10787">
        <ele>962.2574</ele>
        <time>2021-07-16T08:52:02Z</time>
      </trkpt>
      <trkpt lat="36.60541" lon="-5.10781">
        <ele>960.8682</ele>
        <time>2021-07-16T08:52:52Z</time>
      </trkpt>
      <trkpt lat="36.60557" lon="-5.10697">
        <ele>957.0253</ele>
        <time>2021-07-16T08:53:03Z</time>
      </trkpt>
      <trkpt lat="36.6056" lon="-5.10599">
        <ele>952.9225</ele>
        <time>2021-07-16T08:53:14Z</time>
      </trkpt>
      <trkpt lat="36.60583" lon="-5.10549">
        <ele>947.3202</ele>
        <time>2021-07-16T08:53:25Z</time>
      </trkpt>
      <trkpt lat="36.60672" lon="-5.10519">
        <ele>941.0689</ele>
        <time>2021-07-16T08:53:36Z</time>
      </trkpt>
      <trkpt lat="36.60751" lon="-5.10511">
        <ele>937.1212</ele>
        <time>2021-07-16T08:53:47Z</time>
      </trkpt>
      <trkpt lat="36.6081" lon="-5.10469">
        <ele>934.8067</ele>
        <time>2021-07-16T08:53:58Z</time>
      </trkpt>
      <trkpt lat="36.60834" lon="-5.10379">
        <ele>918.1068</ele>
        <time>2021-07-16T08:54:09Z</time>
      </trkpt>
      <trkpt lat="36.60906" lon="-5.1035">
        <ele>901.9227</ele>
        <time>2021-07-16T08:54:20Z</time>
      </trkpt>
      <trkpt lat="36.60899" lon="-5.10302">
        <ele>904.9816</ele>
        <time>2021-07-16T08:54:31Z</time>
      </trkpt>
      <trkpt lat="36.60945" lon="-5.1023">
        <ele>914.7844</ele>
        <time>2021-07-16T08:54:42Z</time>
      </trkpt>
      <trkpt lat="36.60953" lon="-5.10145">
        <ele>898.1856</ele>
        <time>2021-07-16T08:54:53Z</time>
      </trkpt>
      <trkpt lat="36.60932" lon="-5.10071">
        <ele>890.147</ele>
        <time>2021-07-16T08:55:04Z</time>
      </trkpt>
      <trkpt lat="36.60976" lon="-5.09997">
        <ele>900.3616</ele>
        <time>2021-07-16T08:55:15Z</time>
      </trkpt>
      <trkpt lat="36.6105" lon="-5.09993">
        <ele>889.9609</ele>
        <time>2021-07-16T08:55:26Z</time>
      </trkpt>
      <trkpt lat="36.61087" lon="-5.09938">
        <ele>892.2728</ele>
        <time>2021-07-16T08:55:37Z</time>
      </trkpt>
      <trkpt lat="36.61076" lon="-5.09861">
        <ele>897.8586</ele>
        <time>2021-07-16T08:55:48Z</time>
      </trkpt>
      <trkpt lat="36.61142" lon="-5.09839">
        <ele>896.4136</ele>
        <time>2021-07-16T08:55:59Z</time>
      </trkpt>
      <trkpt lat="36.61146" lon="-5.09738">
        <ele>903.7688</ele>
        <time>2021-07-16T08:56:10Z</time>
      </trkpt>
      <trkpt lat="36.61171" lon="-5.09707">
        <ele>906.8123</ele>
        <time>2021-07-16T08:56:21Z</time>
      </trkpt>
      <trkpt lat="36.6124" lon="-5.09675">
        <ele>903.7873</ele>
        <time>2021-07-16T08:56:32Z</time>
      </trkpt>
      <trkpt lat="36.61263" lon="-5.09601">
        <ele>897.2992</ele>
        <time>2021-07-16T08:56:43Z</time>
      </trkpt>
      <trkpt lat="36.61361" lon="-5.0957">
        <ele>890.9931</ele>
        <time>2021-07-16T08:56:54Z</time>
      </trkpt>
      <trkpt lat="36.61457" lon="-5.0951">
        <ele>884.6691</ele>
        <time>2021-07-16T08:57:05Z</time>
      </trkpt>
      <trkpt lat="36.6154" lon="-5.09491">
        <ele>885.5449</ele>
        <time>2021-07-16T08:57:16Z</time>
      </trkpt>
      <trkpt lat="36.61581" lon="-5.09401">
        <ele>896.3145</ele>
        <time>2021-07-16T08:57:27Z</time>
      </trkpt>
      <trkpt lat="36.61503" lon="-5.09302">
        <ele>904.2483</ele>
        <time>2021-07-16T08:57:38Z</time>
      </trkpt>
      <trkpt lat="36.61467" lon="-5.09199">
        <ele>913.5295</ele>
        <time>2021-07-16T08:57:49Z</time>
      </trkpt>
      <trkpt lat="36.61446" lon="-5.09082">
        <ele>910.6519</ele>
        <time>2021-07-16T08:58:00Z</time>
      </trkpt>
      <trkpt lat="36.61375" lon="-5.09005">
        <ele>917.9906</ele>
        <time>2021-07-16T08:58:11Z</time>
      </trkpt>
      <trkpt lat="36.61431" lon="-5.08984">
        <ele>922.6439</ele>
        <time>2021-07-16T08:58:22Z</time>
      </trkpt>
      <trkpt lat="36.61552" lon="-5.08963">
        <ele>920.026</ele>
        <time>2021-07-16T08:58:33Z</time>
      </trkpt>
      <trkpt lat="36.61654" lon="-5.08976">
        <ele>909.4749</ele>
        <time>2021-07-16T08:58:44Z</time>
      </trkpt>
      <trkpt lat="36.61712" lon="-5.08913">
        <ele>906.357</ele>
        <time>2021-07-16T08:58:55Z</time>
      </trkpt>
      <trkpt lat="36.61808" lon="-5.08914">
        <ele>892.4085</ele>
        <time>2021-07-16T08:59:06Z</time>
      </trkpt>
      <trkpt lat="36.61851" lon="-5.08832">
        <ele>874.9365</ele>
        <time>2021-07-16T08:59:17Z</time>
      </trkpt>
      <trkpt lat="36.61861" lon="-5.08738">
        <ele>864.8819</ele>
        <time>2021-07-16T08:59:28Z</time>
      </trkpt>
      <trkpt lat="36.61803" lon="-5.08697">
        <ele>845.5309</ele>
        <time>2021-07-16T08:59:39Z</time>
      </trkpt>
      <trkpt lat="36.61754" lon="-5.08641">
        <ele>842.8963</ele>
        <time>2021-07-16T08:59:50Z</time>
      </trkpt>
      <trkpt lat="36.61748" lon="-5.08566">
        <ele>862.2567</ele>
        <time>2021-07-16T09:00:02Z</time>
      </trkpt>
      <trkpt lat="36.61714" lon="-5.08477">
        <ele>873.0109</ele>
        <time>2021-07-16T09:00:13Z</time>
      </trkpt>
      <trkpt lat="36.61769" lon="-5.08463">
        <ele>885.498</ele>
        <time>2021-07-16T09:00:24Z</time>
      </trkpt>
      <trkpt lat="36.61865" lon="-5.08431">
        <ele>879.8749</ele>
        <time>2021-07-16T09:00:35Z</time>
      </trkpt>
      <trkpt lat="36.61885" lon="-5.08375">
        <ele>879.0342</ele>
        <time>2021-07-16T09:00:46Z</time>
      </trkpt>
      <trkpt lat="36.6181" lon="-5.08258">
        <ele>857.6429</ele>
        <time>2021-07-16T09:00:57Z</time>
      </trkpt>
      <trkpt lat="36.61794" lon="-5.08212">
        <ele>839.5635</ele>
        <time>2021-07-16T09:01:08Z</time>
      </trkpt>
      <trkpt lat="36.61846" lon="-5.08182">
        <ele>865.6373</ele>
        <time>2021-07-16T09:01:19Z</time>
      </trkpt>
      <trkpt lat="36.61899" lon="-5.08145">
        <ele>881.3327</ele>
        <time>2021-07-16T09:01:30Z</time>
      </trkpt>
      <trkpt lat="36.61844" lon="-5.0805">
        <ele>894.35</ele>
        <time>2021-07-16T09:01:41Z</time>
      </trkpt>
      <trkpt lat="36.61838" lon="-5.07939">
        <ele>896.6696</ele>
        <time>2021-07-16T09:01:52Z</time>
      </trkpt>
      <trkpt lat="36.61841" lon="-5.07837">
        <ele>898.1168</ele>
        <time>2021-07-16T09:02:03Z</time>
      </trkpt>
      <trkpt lat="36.61841" lon="-5.07762">
        <ele>904.2876</ele>
        <time>2021-07-16T09:02:14Z</time>
      </trkpt>
      <trkpt lat="36.61777" lon="-5.07713">
        <ele>891.5166</ele>
        <time>2021-07-16T09:02:25Z</time>
      </trkpt>
      <trkpt lat="36.61768" lon="-5.07665">
        <ele>896.6937</ele>
        <time>2021-07-16T09:02:36Z</time>
      </trkpt>
      <trkpt lat="36.61814" lon="-5.07622">
        <ele>888.1312</ele>
        <time>2021-07-16T09:02:47Z</time>
      </trkpt>
      <trkpt lat="36.61894" lon="-5.07536">
        <ele>873.6325</ele>
        <time>2021-07-16T09:02:58Z</time>
      </trkpt>
      <trkpt lat="36.6183" lon="-5.07457">
        <ele>867.1866</ele>
        <time>2021-07-16T09:03:09Z</time>
      </trkpt>
      <trkpt lat="36.61818" lon="-5.07342">
        <ele>871.6957</ele>
        <time>2021-07-16T09:03:20Z</time>
      </trkpt>
      <trkpt lat="36.6181" lon="-5.07249">
        <ele>866.7137</ele>
        <time>2021-07-16T09:03:31Z</time>
      </trkpt>
      <trkpt lat="36.61836" lon="-5.07232">
        <ele>866.943</ele>
        <time>2021-07-16T09:03:42Z</time>
      </trkpt>
      <trkpt lat="36.61871" lon="-5.07313">
        <ele>836.299</ele>
        <time>2021-07-16T09:03:53Z</time>
      </trkpt>
      <trkpt lat="36.61917" lon="-5.07352">
        <ele>846.2199</ele>
        <time>2021-07-16T09:04:04Z</time>
      </trkpt>
      <trkpt lat="36.62011" lon="-5.07415">
        <ele>849.3594</ele>
        <time>2021-07-16T09:04:15Z</time>
      </trkpt>
      <trkpt lat="36.62076" lon="-5.07456">
        <ele>898.4099</ele>
        <time>2021-07-16T09:04:26Z</time>
      </trkpt>
      <trkpt lat="36.62122" lon="-5.07374">
        <ele>906.6701</ele>
        <time>2021-07-16T09:04:37Z</time>
      </trkpt>
      <trkpt lat="36.62209" lon="-5.07296">
        <ele>912.0129</ele>
        <time>2021-07-16T09:04:48Z</time>
      </trkpt>
      <trkpt lat="36.62252" lon="-5.07174">
        <ele>911.6989</ele>
        <time>2021-07-16T09:04:59Z</time>
      </trkpt>
      <trkpt lat="36.62352" lon="-5.07082">
        <ele>921.1952</ele>
        <time>2021-07-16T09:05:10Z</time>
      </trkpt>
      <trkpt lat="36.62408" lon="-5.06977">
        <ele>930.1273</ele>
        <time>2021-07-16T09:05:21Z</time>
      </trkpt>
      <trkpt lat="36.62437" lon="-5.06937">
        <ele>931.2914</ele>
        <time>2021-07-16T09:05:32Z</time>
      </trkpt>
      <trkpt lat="36.62492" lon="-5.07015">
        <ele>936.1702</ele>
        <time>2021-07-16T09:05:43Z</time>
      </trkpt>
      <trkpt lat="36.62538" lon="-5.0708">
        <ele>949.5634</ele>
        <time>2021-07-16T09:05:54Z</time>
      </trkpt>
      <trkpt lat="36.62583" lon="-5.07024">
        <ele>950.1709</ele>
        <time>2021-07-16T09:06:05Z</time>
      </trkpt>
      <trkpt lat="36.62612" lon="-5.07099">
        <ele>955.673</ele>
        <time>2021-07-16T09:06:16Z</time>
      </trkpt>
      <trkpt lat="36.62664" lon="-5.07166">
        <ele>957.8949</ele>
        <time>2021-07-16T09:06:27Z</time>
      </trkpt>
      <trkpt lat="36.62622" lon="-5.072">
        <ele>963.1271</ele>
        <time>2021-07-16T09:06:38Z</time>
      </trkpt>
      <trkpt lat="36.62551" lon="-5.07249">
        <ele>977.3324</ele>
        <time>2021-07-16T09:06:49Z</time>
      </trkpt>
      <trkpt lat="36.6249" lon="-5.07332">
        <ele>987.7554</ele>
        <time>2021-07-16T09:07:00Z</time>
      </trkpt>
      <trkpt lat="36.62516" lon="-5.07423">
        <ele>987.6547</ele>
        <time>2021-07-16T09:07:11Z</time>
      </trkpt>
      <trkpt lat="36.62587" lon="-5.07441">
        <ele>995.0239</ele>
        <time>2021-07-16T09:07:22Z</time>
      </trkpt>
      <trkpt lat="36.62621" lon="-5.07529">
        <ele>1012.852</ele>
        <time>2021-07-16T09:07:33Z</time>
      </trkpt>
      <trkpt lat="36.62558" lon="-5.07619">
        <ele>1005.743</ele>
        <time>2021-07-16T09:07:44Z</time>
      </trkpt>
      <trkpt lat="36.6256" lon="-5.07712">
        <ele>999.2391</ele>
        <time>2021-07-16T09:07:55Z</time>
      </trkpt>
      <trkpt lat="36.62553" lon="-5.07701">
        <ele>1029.323</ele>
        <time>2021-07-16T09:08:06Z</time>
      </trkpt>
      <trkpt lat="36.62548" lon="-5.077">
        <ele>1032.182</ele>
        <time>2021-07-16T09:08:17Z</time>
      </trkpt>
      <trkpt lat="36.62549" lon="-5.07698">
        <ele>1032.228</ele>
        <time>2021-07-16T09:09:17Z</time>
      </trkpt>
      <trkpt lat="36.62549" lon="-5.07703">
        <ele>1031.951</ele>
        <time>2021-07-16T09:10:01Z</time>
      </trkpt>
      <trkpt lat="36.6255" lon="-5.07702">
        <ele>1028.505</ele>
        <time>2021-07-16T09:11:00Z</time>
      </trkpt>
      <trkpt lat="36.62549" lon="-5.07697">
        <ele>1026.532</ele>
        <time>2021-07-16T09:11:36Z</time>
      </trkpt>
      <trkpt lat="36.62551" lon="-5.07701">
        <ele>1028.153</ele>
        <time>2021-07-16T09:11:53Z</time>
      </trkpt>
      <trkpt lat="36.62549" lon="-5.07712">
        <ele>1030.736</ele>
        <time>2021-07-16T09:12:13Z</time>
      </trkpt>
      <trkpt lat="36.62592" lon="-5.0775">
        <ele>1028.622</ele>
        <time>2021-07-16T09:12:24Z</time>
      </trkpt>
      <trkpt lat="36.62548" lon="-5.07921">
        <ele>1032.288</ele>
        <time>2021-07-16T09:12:35Z</time>
      </trkpt>
      <trkpt lat="36.62592" lon="-5.08075">
        <ele>1030.942</ele>
        <time>2021-07-16T09:12:46Z</time>
      </trkpt>
      <trkpt lat="36.62752" lon="-5.08082">
        <ele>1029.704</ele>
        <time>2021-07-16T09:12:57Z</time>
      </trkpt>
      <trkpt lat="36.62715" lon="-5.08258">
        <ele>1031.742</ele>
        <time>2021-07-16T09:13:08Z</time>
      </trkpt>
      <trkpt lat="36.62661" lon="-5.08415">
        <ele>1033.511</ele>
        <time>2021-07-16T09:13:19Z</time>
      </trkpt>
      <trkpt lat="36.62606" lon="-5.08543">
        <ele>1032.615</ele>
        <time>2021-07-16T09:13:30Z</time>
      </trkpt>
      <trkpt lat="36.62476" lon="-5.08633">
        <ele>1034.245</ele>
        <time>2021-07-16T09:13:41Z</time>
      </trkpt>
      <trkpt lat="36.62474" lon="-5.08831">
        <ele>1035.805</ele>
        <time>2021-07-16T09:13:52Z</time>
      </trkpt>
      <trkpt lat="36.62422" lon="-5.09031">
        <ele>1037.739</ele>
        <time>2021-07-16T09:14:03Z</time>
      </trkpt>
      <trkpt lat="36.62496" lon="-5.09226">
        <ele>1034.537</ele>
        <time>2021-07-16T09:14:14Z</time>
      </trkpt>
      <trkpt lat="36.62603" lon="-5.09368">
        <ele>1034.171</ele>
        <time>2021-07-16T09:14:25Z</time>
      </trkpt>
      <trkpt lat="36.62737" lon="-5.09479">
        <ele>1036.303</ele>
        <time>2021-07-16T09:14:36Z</time>
      </trkpt>
      <trkpt lat="36.62897" lon="-5.0947">
        <ele>1042.436</ele>
        <time>2021-07-16T09:14:47Z</time>
      </trkpt>
      <trkpt lat="36.63046" lon="-5.0948">
        <ele>1050.32</ele>
        <time>2021-07-16T09:14:58Z</time>
      </trkpt>
      <trkpt lat="36.6315" lon="-5.09351">
        <ele>1058.541</ele>
        <time>2021-07-16T09:15:09Z</time>
      </trkpt>
      <trkpt lat="36.63277" lon="-5.09266">
        <ele>1070.983</ele>
        <time>2021-07-16T09:15:20Z</time>
      </trkpt>
      <trkpt lat="36.63377" lon="-5.09178">
        <ele>1083.681</ele>
        <time>2021-07-16T09:15:31Z</time>
      </trkpt>
      <trkpt lat="36.63425" lon="-5.0902">
        <ele>1094.845</ele>
        <time>2021-07-16T09:15:42Z</time>
      </trkpt>
      <trkpt lat="36.63584" lon="-5.09041">
        <ele>1102.334</ele>
        <time>2021-07-16T09:15:53Z</time>
      </trkpt>
      <trkpt lat="36.63759" lon="-5.09023">
        <ele>1109.948</ele>
        <time>2021-07-16T09:16:04Z</time>
      </trkpt>
      <trkpt lat="36.6392" lon="-5.08981">
        <ele>1117.034</ele>
        <time>2021-07-16T09:16:15Z</time>
      </trkpt>
      <trkpt lat="36.64083" lon="-5.09056">
        <ele>1120.317</ele>
        <time>2021-07-16T09:16:26Z</time>
      </trkpt>
      <trkpt lat="36.64222" lon="-5.0892">
        <ele>1121.863</ele>
        <time>2021-07-16T09:16:37Z</time>
      </trkpt>
      <trkpt lat="36.64342" lon="-5.08805">
        <ele>1119.403</ele>
        <time>2021-07-16T09:16:48Z</time>
      </trkpt>
      <trkpt lat="36.64477" lon="-5.08945">
        <ele>1118.873</ele>
        <time>2021-07-16T09:16:59Z</time>
      </trkpt>
      <trkpt lat="36.64658" lon="-5.09004">
        <ele>1115.12</ele>
        <time>2021-07-16T09:17:10Z</time>
      </trkpt>
      <trkpt lat="36.64797" lon="-5.09091">
        <ele>1106.844</ele>
        <time>2021-07-16T09:17:21Z</time>
      </trkpt>
      <trkpt lat="36.64981" lon="-5.09144">
        <ele>1095.013</ele>
        <time>2021-07-16T09:17:32Z</time>
      </trkpt>
      <trkpt lat="36.65187" lon="-5.0917">
        <ele>1088.347</ele>
        <time>2021-07-16T09:17:43Z</time>
      </trkpt>
      <trkpt lat="36.65379" lon="-5.09207">
        <ele>1083.763</ele>
        <time>2021-07-16T09:17:54Z</time>
      </trkpt>
      <trkpt lat="36.65535" lon="-5.09311">
        <ele>1083.85</ele>
        <time>2021-07-16T09:18:05Z</time>
      </trkpt>
      <trkpt lat="36.65637" lon="-5.09466">
        <ele>1083.796</ele>
        <time>2021-07-16T09:18:16Z</time>
      </trkpt>
      <trkpt lat="36.65629" lon="-5.09697">
        <ele>1091.623</ele>
        <time>2021-07-16T09:18:27Z</time>
      </trkpt>
      <trkpt lat="36.65716" lon="-5.09873">
        <ele>1088.79</ele>
        <time>2021-07-16T09:18:38Z</time>
      </trkpt>
      <trkpt lat="36.65894" lon="-5.0993">
        <ele>1077.669</ele>
        <time>2021-07-16T09:18:49Z</time>
      </trkpt>
      <trkpt lat="36.66079" lon="-5.09946">
        <ele>1071.141</ele>
        <time>2021-07-16T09:19:00Z</time>
      </trkpt>
      <trkpt lat="36.66174" lon="-5.10123">
        <ele>1064.286</ele>
        <time>2021-07-16T09:19:11Z</time>
      </trkpt>
      <trkpt lat="36.66268" lon="-5.10326">
        <ele>1052.124</ele>
        <time>2021-07-16T09:19:22Z</time>
      </trkpt>
      <trkpt lat="36.66422" lon="-5.10474">
        <ele>1046.493</ele>
        <time>2021-07-16T09:19:33Z</time>
      </trkpt>
      <trkpt lat="36.66488" lon="-5.10658">
        <ele>1046.707</ele>
        <time>2021-07-16T09:19:44Z</time>
      </trkpt>
      <trkpt lat="36.66617" lon="-5.10773">
        <ele>1054.374</ele>
        <time>2021-07-16T09:19:55Z</time>
      </trkpt>
      <trkpt lat="36.66692" lon="-5.10918">
        <ele>1051.785</ele>
        <time>2021-07-16T09:20:06Z</time>
      </trkpt>
      <trkpt lat="36.66719" lon="-5.11121">
        <ele>1045.666</ele>
        <time>2021-07-16T09:20:17Z</time>
      </trkpt>
      <trkpt lat="36.66806" lon="-5.11277">
        <ele>1034.912</ele>
        <time>2021-07-16T09:20:28Z</time>
      </trkpt>
      <trkpt lat="36.66903" lon="-5.1143">
        <ele>1021.449</ele>
        <time>2021-07-16T09:20:39Z</time>
      </trkpt>
      <trkpt lat="36.67016" lon="-5.1154">
        <ele>1010.299</ele>
        <time>2021-07-16T09:20:50Z</time>
      </trkpt>
      <trkpt lat="36.67081" lon="-5.11667">
        <ele>1008.425</ele>
        <time>2021-07-16T09:21:01Z</time>
      </trkpt>
      <trkpt lat="36.67105" lon="-5.11817">
        <ele>1006.049</ele>
        <time>2021-07-16T09:21:12Z</time>
      </trkpt>
      <trkpt lat="36.67198" lon="-5.11953">
        <ele>1002.21</ele>
        <time>2021-07-16T09:21:23Z</time>
      </trkpt>
      <trkpt lat="36.67344" lon="-5.11997">
        <ele>995.272</ele>
        <time>2021-07-16T09:21:34Z</time>
      </trkpt>
      <trkpt lat="36.675" lon="-5.11936">
        <ele>990.3746</ele>
        <time>2021-07-16T09:21:45Z</time>
      </trkpt>
      <trkpt lat="36.67654" lon="-5.11855">
        <ele>988.427</ele>
        <time>2021-07-16T09:21:56Z</time>
      </trkpt>
      <trkpt lat="36.67871" lon="-5.11799">
        <ele>981.2551</ele>
        <time>2021-07-16T09:22:07Z</time>
      </trkpt>
      <trkpt lat="36.68063" lon="-5.11613">
        <ele>971.9932</ele>
        <time>2021-07-16T09:22:18Z</time>
      </trkpt>
      <trkpt lat="36.68214" lon="-5.11499">
        <ele>968.3612</ele>
        <time>2021-07-16T09:22:29Z</time>
      </trkpt>
      <trkpt lat="36.68398" lon="-5.11518">
        <ele>956.3791</ele>
        <time>2021-07-16T09:22:40Z</time>
      </trkpt>
      <trkpt lat="36.68617" lon="-5.11561">
        <ele>942.2322</ele>
        <time>2021-07-16T09:22:51Z</time>
      </trkpt>
      <trkpt lat="36.68813" lon="-5.11655">
        <ele>937.2385</ele>
        <time>2021-07-16T09:23:02Z</time>
      </trkpt>
      <trkpt lat="36.68915" lon="-5.11794">
        <ele>940.9011</ele>
        <time>2021-07-16T09:23:13Z</time>
      </trkpt>
      <trkpt lat="36.68948" lon="-5.11978">
        <ele>941.0478</ele>
        <time>2021-07-16T09:23:24Z</time>
      </trkpt>
      <trkpt lat="36.69084" lon="-5.12044">
        <ele>940.4426</ele>
        <time>2021-07-16T09:23:35Z</time>
      </trkpt>
      <trkpt lat="36.69274" lon="-5.12004">
        <ele>944.6148</ele>
        <time>2021-07-16T09:23:46Z</time>
      </trkpt>
      <trkpt lat="36.69425" lon="-5.11964">
        <ele>951.2386</ele>
        <time>2021-07-16T09:23:57Z</time>
      </trkpt>
      <trkpt lat="36.69617" lon="-5.11919">
        <ele>959.6728</ele>
        <time>2021-07-16T09:24:08Z</time>
      </trkpt>
      <trkpt lat="36.69789" lon="-5.1187">
        <ele>961.1364</ele>
        <time>2021-07-16T09:24:19Z</time>
      </trkpt>
      <trkpt lat="36.69903" lon="-5.11715">
        <ele>959.8309</ele>
        <time>2021-07-16T09:24:30Z</time>
      </trkpt>
      <trkpt lat="36.70019" lon="-5.11771">
        <ele>963.3818</ele>
        <time>2021-07-16T09:24:41Z</time>
      </trkpt>
      <trkpt lat="36.70148" lon="-5.1193">
        <ele>960.5195</ele>
        <time>2021-07-16T09:24:52Z</time>
      </trkpt>
      <trkpt lat="36.70179" lon="-5.1212">
        <ele>956.5325</ele>
        <time>2021-07-16T09:25:03Z</time>
      </trkpt>
      <trkpt lat="36.7017" lon="-5.12294">
        <ele>955.4985</ele>
        <time>2021-07-16T09:25:14Z</time>
      </trkpt>
      <trkpt lat="36.70173" lon="-5.1248">
        <ele>949.0753</ele>
        <time>2021-07-16T09:25:25Z</time>
      </trkpt>
      <trkpt lat="36.70213" lon="-5.1269">
        <ele>935.3061</ele>
        <time>2021-07-16T09:25:36Z</time>
      </trkpt>
      <trkpt lat="36.70334" lon="-5.12865">
        <ele>928.3823</ele>
        <time>2021-07-16T09:25:47Z</time>
      </trkpt>
      <trkpt lat="36.70453" lon="-5.13022">
        <ele>927.143</ele>
        <time>2021-07-16T09:25:58Z</time>
      </trkpt>
      <trkpt lat="36.70639" lon="-5.13033">
        <ele>919.4609</ele>
        <time>2021-07-16T09:26:09Z</time>
      </trkpt>
      <trkpt lat="36.708" lon="-5.13057">
        <ele>905.4564</ele>
        <time>2021-07-16T09:26:20Z</time>
      </trkpt>
      <trkpt lat="36.70835" lon="-5.1325">
        <ele>889.2001</ele>
        <time>2021-07-16T09:26:31Z</time>
      </trkpt>
      <trkpt lat="36.70981" lon="-5.13231">
        <ele>871.2136</ele>
        <time>2021-07-16T09:26:42Z</time>
      </trkpt>
      <trkpt lat="36.71101" lon="-5.13106">
        <ele>861.5519</ele>
        <time>2021-07-16T09:26:53Z</time>
      </trkpt>
      <trkpt lat="36.71256" lon="-5.13158">
        <ele>848.3347</ele>
        <time>2021-07-16T09:27:04Z</time>
      </trkpt>
      <trkpt lat="36.71347" lon="-5.13318">
        <ele>834.8483</ele>
        <time>2021-07-16T09:27:15Z</time>
      </trkpt>
      <trkpt lat="36.71393" lon="-5.13501">
        <ele>820.342</ele>
        <time>2021-07-16T09:27:26Z</time>
      </trkpt>
      <trkpt lat="36.71413" lon="-5.13709">
        <ele>808.6621</ele>
        <time>2021-07-16T09:27:37Z</time>
      </trkpt>
      <trkpt lat="36.7153" lon="-5.13879">
        <ele>795.157</ele>
        <time>2021-07-16T09:27:48Z</time>
      </trkpt>
      <trkpt lat="36.71719" lon="-5.13936">
        <ele>781.8497</ele>
        <time>2021-07-16T09:27:59Z</time>
      </trkpt>
      <trkpt lat="36.71873" lon="-5.13982">
        <ele>773.7718</ele>
        <time>2021-07-16T09:28:10Z</time>
      </trkpt>
      <trkpt lat="36.71991" lon="-5.14123">
        <ele>765.3598</ele>
        <time>2021-07-16T09:28:21Z</time>
      </trkpt>
      <trkpt lat="36.7203" lon="-5.14282">
        <ele>758.1011</ele>
        <time>2021-07-16T09:28:32Z</time>
      </trkpt>
      <trkpt lat="36.72073" lon="-5.1445">
        <ele>750.1468</ele>
        <time>2021-07-16T09:28:43Z</time>
      </trkpt>
      <trkpt lat="36.72176" lon="-5.14551">
        <ele>751.4131</ele>
        <time>2021-07-16T09:28:54Z</time>
      </trkpt>
      <trkpt lat="36.72331" lon="-5.14588">
        <ele>749.8663</ele>
        <time>2021-07-16T09:29:05Z</time>
      </trkpt>
      <trkpt lat="36.72485" lon="-5.1463">
        <ele>748.3902</ele>
        <time>2021-07-16T09:29:16Z</time>
      </trkpt>
      <trkpt lat="36.72646" lon="-5.14683">
        <ele>742.0809</ele>
        <time>2021-07-16T09:29:27Z</time>
      </trkpt>
      <trkpt lat="36.72835" lon="-5.14734">
        <ele>729.7708</ele>
        <time>2021-07-16T09:29:38Z</time>
      </trkpt>
      <trkpt lat="36.73043" lon="-5.14739">
        <ele>713.9086</ele>
        <time>2021-07-16T09:29:49Z</time>
      </trkpt>
      <trkpt lat="36.73246" lon="-5.14706">
        <ele>705.4565</ele>
        <time>2021-07-16T09:30:00Z</time>
      </trkpt>
      <trkpt lat="36.734" lon="-5.14715">
        <ele>698.5302</ele>
        <time>2021-07-16T09:30:11Z</time>
      </trkpt>
      <trkpt lat="36.73553" lon="-5.14775">
        <ele>690.665</ele>
        <time>2021-07-16T09:30:22Z</time>
      </trkpt>
      <trkpt lat="36.73723" lon="-5.14833">
        <ele>683.164</ele>
        <time>2021-07-16T09:30:33Z</time>
      </trkpt>
      <trkpt lat="36.73881" lon="-5.14855">
        <ele>689.9703</ele>
        <time>2021-07-16T09:30:44Z</time>
      </trkpt>
      <trkpt lat="36.74044" lon="-5.14835">
        <ele>697.3213</ele>
        <time>2021-07-16T09:30:55Z</time>
      </trkpt>
      <trkpt lat="36.74184" lon="-5.14784">
        <ele>702.6444</ele>
        <time>2021-07-16T09:31:06Z</time>
      </trkpt>
      <trkpt lat="36.7433" lon="-5.147">
        <ele>703.2626</ele>
        <time>2021-07-16T09:31:17Z</time>
      </trkpt>
      <trkpt lat="36.74502" lon="-5.14592">
        <ele>705.452</ele>
        <time>2021-07-16T09:31:28Z</time>
      </trkpt>
      <trkpt lat="36.7467" lon="-5.14527">
        <ele>706.5728</ele>
        <time>2021-07-16T09:31:39Z</time>
      </trkpt>
      <trkpt lat="36.74841" lon="-5.14532">
        <ele>709.2841</ele>
        <time>2021-07-16T09:31:50Z</time>
      </trkpt>
      <trkpt lat="36.74984" lon="-5.14587">
        <ele>711.7467</ele>
        <time>2021-07-16T09:32:01Z</time>
      </trkpt>
      <trkpt lat="36.75134" lon="-5.14659">
        <ele>715.4695</ele>
        <time>2021-07-16T09:32:12Z</time>
      </trkpt>
      <trkpt lat="36.75256" lon="-5.14724">
        <ele>719.5948</ele>
        <time>2021-07-16T09:32:23Z</time>
      </trkpt>
      <trkpt lat="36.75316" lon="-5.14762">
        <ele>725.0755</ele>
        <time>2021-07-16T09:32:34Z</time>
      </trkpt>
      <trkpt lat="36.7533" lon="-5.14777">
        <ele>726.0542</ele>
        <time>2021-07-16T09:32:45Z</time>
      </trkpt>
      <trkpt lat="36.75358" lon="-5.14809">
        <ele>731.2142</ele>
        <time>2021-07-16T09:32:56Z</time>
      </trkpt>
      <trkpt lat="36.75412" lon="-5.14826">
        <ele>737.9854</ele>
        <time>2021-07-16T09:33:07Z</time>
      </trkpt>
      <trkpt lat="36.75478" lon="-5.14938">
        <ele>735.6257</ele>
        <time>2021-07-16T09:33:18Z</time>
      </trkpt>
      <trkpt lat="36.75378" lon="-5.14955">
        <ele>727.2307</ele>
        <time>2021-07-16T09:33:29Z</time>
      </trkpt>
      <trkpt lat="36.75338" lon="-5.14984">
        <ele>731.6923</ele>
        <time>2021-07-16T09:33:40Z</time>
      </trkpt>
      <trkpt lat="36.75285" lon="-5.15019">
        <ele>733.2504</ele>
        <time>2021-07-16T09:33:51Z</time>
      </trkpt>
      <trkpt lat="36.75229" lon="-5.15062">
        <ele>733.5592</ele>
        <time>2021-07-16T09:34:02Z</time>
      </trkpt>
      <trkpt lat="36.75179" lon="-5.15097">
        <ele>734.19</ele>
        <time>2021-07-16T09:34:13Z</time>
      </trkpt>
      <trkpt lat="36.75135" lon="-5.1513">
        <ele>741.9267</ele>
        <time>2021-07-16T09:34:24Z</time>
      </trkpt>
      <trkpt lat="36.75082" lon="-5.15184">
        <ele>739.9324</ele>
        <time>2021-07-16T09:34:35Z</time>
      </trkpt>
      <trkpt lat="36.75057" lon="-5.1521">
        <ele>746.3377</ele>
        <time>2021-07-16T09:34:46Z</time>
      </trkpt>
      <trkpt lat="36.75027" lon="-5.15242">
        <ele>755.0456</ele>
        <time>2021-07-16T09:34:57Z</time>
      </trkpt>
      <trkpt lat="36.74987" lon="-5.15292">
        <ele>748.805</ele>
        <time>2021-07-16T09:35:08Z</time>
      </trkpt>
      <trkpt lat="36.74951" lon="-5.1535">
        <ele>747.6453</ele>
        <time>2021-07-16T09:35:19Z</time>
      </trkpt>
      <trkpt lat="36.74913" lon="-5.15418">
        <ele>751.5597</ele>
        <time>2021-07-16T09:35:30Z</time>
      </trkpt>
      <trkpt lat="36.74876" lon="-5.15482">
        <ele>751.3342</ele>
        <time>2021-07-16T09:35:41Z</time>
      </trkpt>
      <trkpt lat="36.7484" lon="-5.15551">
        <ele>748.4575</ele>
        <time>2021-07-16T09:35:52Z</time>
      </trkpt>
      <trkpt lat="36.74813" lon="-5.15594">
        <ele>751.1651</ele>
        <time>2021-07-16T09:36:03Z</time>
      </trkpt>
      <trkpt lat="36.74781" lon="-5.15653">
        <ele>751.1467</ele>
        <time>2021-07-16T09:36:14Z</time>
      </trkpt>
      <trkpt lat="36.74755" lon="-5.15702">
        <ele>750.1998</ele>
        <time>2021-07-16T09:36:25Z</time>
      </trkpt>
      <trkpt lat="36.74718" lon="-5.15765">
        <ele>752.2273</ele>
        <time>2021-07-16T09:36:36Z</time>
      </trkpt>
      <trkpt lat="36.74671" lon="-5.15845">
        <ele>750.3783</ele>
        <time>2021-07-16T09:36:47Z</time>
      </trkpt>
      <trkpt lat="36.74641" lon="-5.159">
        <ele>748.4693</ele>
        <time>2021-07-16T09:36:58Z</time>
      </trkpt>
      <trkpt lat="36.7461" lon="-5.15955">
        <ele>745.7724</ele>
        <time>2021-07-16T09:37:09Z</time>
      </trkpt>
      <trkpt lat="36.74602" lon="-5.15987">
        <ele>744.8153</ele>
        <time>2021-07-16T09:37:20Z</time>
      </trkpt>
      <trkpt lat="36.74667" lon="-5.1604">
        <ele>746.7542</ele>
        <time>2021-07-16T09:37:31Z</time>
      </trkpt>
      <trkpt lat="36.74744" lon="-5.16102">
        <ele>743.8202</ele>
        <time>2021-07-16T09:37:42Z</time>
      </trkpt>
      <trkpt lat="36.74808" lon="-5.16151">
        <ele>744.8801</ele>
        <time>2021-07-16T09:37:53Z</time>
      </trkpt>
      <trkpt lat="36.74792" lon="-5.16211">
        <ele>744.5697</ele>
        <time>2021-07-16T09:38:04Z</time>
      </trkpt>
      <trkpt lat="36.74776" lon="-5.16242">
        <ele>744.1792</ele>
        <time>2021-07-16T09:38:15Z</time>
      </trkpt>
      <trkpt lat="36.74771" lon="-5.1625">
        <ele>745.0472</ele>
        <time>2021-07-16T09:38:26Z</time>
      </trkpt>
      <trkpt lat="36.74746" lon="-5.16298">
        <ele>746.322</ele>
        <time>2021-07-16T09:38:37Z</time>
      </trkpt>
      <trkpt lat="36.74713" lon="-5.16362">
        <ele>741.2386</ele>
        <time>2021-07-16T09:38:48Z</time>
      </trkpt>
      <trkpt lat="36.74739" lon="-5.16445">
        <ele>746.4194</ele>
        <time>2021-07-16T09:39:00Z</time>
      </trkpt>
      <trkpt lat="36.74756" lon="-5.16582">
        <ele>747.5889</ele>
        <time>2021-07-16T09:39:11Z</time>
      </trkpt>
      <trkpt lat="36.74765" lon="-5.16655">
        <ele>748.7701</ele>
        <time>2021-07-16T09:39:22Z</time>
      </trkpt>
      <trkpt lat="36.74713" lon="-5.16619">
        <ele>743.6453</ele>
        <time>2021-07-16T09:39:33Z</time>
      </trkpt>
      <trkpt lat="36.74671" lon="-5.16586">
        <ele>747.186</ele>
        <time>2021-07-16T09:39:44Z</time>
      </trkpt>
      <trkpt lat="36.74653" lon="-5.16569">
        <ele>749.2334</ele>
        <time>2021-07-16T09:39:55Z</time>
      </trkpt>
      <trkpt lat="36.74649" lon="-5.16562">
        <ele>754.2672</ele>
        <time>2021-07-16T09:40:06Z</time>
      </trkpt>
      <trkpt lat="36.74649" lon="-5.16558">
        <ele>757.0148</ele>
        <time>2021-07-16T09:40:17Z</time>
      </trkpt>
      <trkpt lat="36.74648" lon="-5.16563">
        <ele>760.0414</ele>
        <time>2021-07-16T09:40:29Z</time>
      </trkpt>
      <trkpt lat="36.74645" lon="-5.16569">
        <ele>758.7208</ele>
        <time>2021-07-16T09:40:40Z</time>
      </trkpt>
      <trkpt lat="36.74644" lon="-5.16573">
        <ele>759.7348</ele>
        <time>2021-07-16T09:40:54Z</time>
      </trkpt>
      <trkpt lat="36.74647" lon="-5.16574">
        <ele>756.4097</ele>
        <time>2021-07-16T09:41:53Z</time>
      </trkpt>
      <trkpt lat="36.74644" lon="-5.16571">
        <ele>759.1867</ele>
        <time>2021-07-16T09:42:08Z</time>
      </trkpt>
      <trkpt lat="36.74638" lon="-5.16554">
        <ele>765.1578</ele>
        <time>2021-07-16T09:42:19Z</time>
      </trkpt>
      <trkpt lat="36.7465" lon="-5.16553">
        <ele>737.9658</ele>
        <time>2021-07-16T09:42:30Z</time>
      </trkpt>
      <trkpt lat="36.74646" lon="-5.16551">
        <ele>740.4792</ele>
        <time>2021-07-16T09:42:41Z</time>
      </trkpt>
      <trkpt lat="36.74642" lon="-5.16559">
        <ele>736.5348</ele>
        <time>2021-07-16T09:42:52Z</time>
      </trkpt>
      <trkpt lat="36.74638" lon="-5.16563">
        <ele>737.9894</ele>
        <time>2021-07-16T09:43:03Z</time>
      </trkpt>
      <trkpt lat="36.74636" lon="-5.16563">
        <ele>738.9827</ele>
        <time>2021-07-16T09:44:03Z</time>
      </trkpt>
      <trkpt lat="36.7464" lon="-5.16563">
        <ele>739.2507</ele>
        <time>2021-07-16T09:44:15Z</time>
      </trkpt>
      <trkpt lat="36.74644" lon="-5.16562">
        <ele>739.4546</ele>
        <time>2021-07-16T09:44:40Z</time>
      </trkpt>
      <trkpt lat="36.7464" lon="-5.1656">
        <ele>738.6829</ele>
        <time>2021-07-16T09:44:53Z</time>
      </trkpt>
      <trkpt lat="36.74639" lon="-5.16561">
        <ele>740.1007</ele>
        <time>2021-07-16T09:45:52Z</time>
      </trkpt>
      <trkpt lat="36.74642" lon="-5.16563">
        <ele>740.2835</ele>
        <time>2021-07-16T09:46:12Z</time>
      </trkpt>
      <trkpt lat="36.74645" lon="-5.1656">
        <ele>739.486</ele>
        <time>2021-07-16T09:46:23Z</time>
      </trkpt>
      <trkpt lat="36.74649" lon="-5.16558">
        <ele>739.3639</ele>
        <time>2021-07-16T09:47:09Z</time>
      </trkpt>
      <trkpt lat="36.74643" lon="-5.16565">
        <ele>739.4822</ele>
        <time>2021-07-16T09:47:21Z</time>
      </trkpt>
      <trkpt lat="36.74646" lon="-5.16569">
        <ele>739.7386</ele>
        <time>2021-07-16T09:48:20Z</time>
      </trkpt>
      <trkpt lat="36.74643" lon="-5.16566">
        <ele>739.226</ele>
        <time>2021-07-16T09:48:40Z</time>
      </trkpt>
      <trkpt lat="36.74646" lon="-5.16563">
        <ele>739.0183</ele>
        <time>2021-07-16T09:49:14Z</time>
      </trkpt>
      <trkpt lat="36.7465" lon="-5.1656">
        <ele>739.2429</ele>
        <time>2021-07-16T09:49:38Z</time>
      </trkpt>
      <trkpt lat="36.74646" lon="-5.16561">
        <ele>739.4185</ele>
        <time>2021-07-16T09:49:59Z</time>
      </trkpt>
      <trkpt lat="36.74643" lon="-5.16562">
        <ele>739.4127</ele>
        <time>2021-07-16T09:50:14Z</time>
      </trkpt>
      <trkpt lat="36.74648" lon="-5.1656">
        <ele>739.4187</ele>
        <time>2021-07-16T09:50:25Z</time>
      </trkpt>
      <trkpt lat="36.74646" lon="-5.16557">
        <ele>740.8985</ele>
        <time>2021-07-16T09:51:25Z</time>
      </trkpt>
      <trkpt lat="36.74646" lon="-5.16557">
        <ele>740.8985</ele>
        <time>2021-07-16T09:52:25Z</time>
      </trkpt>
      <trkpt lat="36.74646" lon="-5.16557">
        <ele>740.8985</ele>
        <time>2021-07-16T09:53:25Z</time>
      </trkpt>
      <trkpt lat="36.74646" lon="-5.16557">
        <ele>740.8985</ele>
        <time>2021-07-16T09:54:25Z</time>
      </trkpt>
      <trkpt lat="36.74642" lon="-5.16561">
        <ele>740.3278</ele>
        <time>2021-07-16T09:55:20Z</time>
      </trkpt>
      <trkpt lat="36.74641" lon="-5.16557">
        <ele>740.2049</ele>
        <time>2021-07-16T09:55:44Z</time>
      </trkpt>
      <trkpt lat="36.74645" lon="-5.16561">
        <ele>739.7346</ele>
        <time>2021-07-16T09:56:39Z</time>
      </trkpt>
      <trkpt lat="36.74647" lon="-5.16557">
        <ele>739.272</ele>
        <time>2021-07-16T09:56:59Z</time>
      </trkpt>
      <trkpt lat="36.74651" lon="-5.16556">
        <ele>740.1827</ele>
        <time>2021-07-16T09:57:41Z</time>
      </trkpt>
      <trkpt lat="36.74648" lon="-5.16556">
        <ele>740.3507</ele>
        <time>2021-07-16T09:58:41Z</time>
      </trkpt>
      <trkpt lat="36.74645" lon="-5.16555">
        <ele>741.1748</ele>
        <time>2021-07-16T09:59:19Z</time>
      </trkpt>
      <trkpt lat="36.74643" lon="-5.16559">
        <ele>740.8843</ele>
        <time>2021-07-16T10:00:11Z</time>
      </trkpt>
      <trkpt lat="36.74644" lon="-5.16561">
        <ele>739.4104</ele>
        <time>2021-07-16T10:01:11Z</time>
      </trkpt>
      <trkpt lat="36.74641" lon="-5.16557">
        <ele>739.5661</ele>
        <time>2021-07-16T10:01:29Z</time>
      </trkpt>
      <trkpt lat="36.74645" lon="-5.16554">
        <ele>738.7761</ele>
        <time>2021-07-16T10:01:40Z</time>
      </trkpt>
      <trkpt lat="36.74642" lon="-5.16557">
        <ele>739.9822</ele>
        <time>2021-07-16T10:01:55Z</time>
      </trkpt>
      <trkpt lat="36.74638" lon="-5.16558">
        <ele>741.3192</ele>
        <time>2021-07-16T10:02:20Z</time>
      </trkpt>
      <trkpt lat="36.74642" lon="-5.16558">
        <ele>739.5622</ele>
        <time>2021-07-16T10:02:48Z</time>
      </trkpt>
      <trkpt lat="36.74646" lon="-5.16556">
        <ele>740.0705</ele>
        <time>2021-07-16T10:02:59Z</time>
      </trkpt>
      <trkpt lat="36.7465" lon="-5.16556">
        <ele>738.8452</ele>
        <time>2021-07-16T10:03:13Z</time>
      </trkpt>
      <trkpt lat="36.74644" lon="-5.1656">
        <ele>737.3107</ele>
        <time>2021-07-16T10:03:24Z</time>
      </trkpt>
      <trkpt lat="36.7464" lon="-5.1656">
        <ele>740.1878</ele>
        <time>2021-07-16T10:03:35Z</time>
      </trkpt>
      <trkpt lat="36.74642" lon="-5.16554">
        <ele>739.5647</ele>
        <time>2021-07-16T10:03:46Z</time>
      </trkpt>
      <trkpt lat="36.74646" lon="-5.16554">
        <ele>739.5905</ele>
        <time>2021-07-16T10:03:57Z</time>
      </trkpt>
      <trkpt lat="36.74648" lon="-5.16561">
        <ele>739.4403</ele>
        <time>2021-07-16T10:04:08Z</time>
      </trkpt>
      <trkpt lat="36.74647" lon="-5.16558">
        <ele>737.8542</ele>
        <time>2021-07-16T10:05:06Z</time>
      </trkpt>
      <trkpt lat="36.74646" lon="-5.16548">
        <ele>739.3099</ele>
        <time>2021-07-16T10:05:17Z</time>
      </trkpt>
      <trkpt lat="36.74648" lon="-5.16544">
        <ele>739.0356</ele>
        <time>2021-07-16T10:05:28Z</time>
      </trkpt>
      <trkpt lat="36.7464" lon="-5.16544">
        <ele>746.4311</ele>
        <time>2021-07-16T10:05:43Z</time>
      </trkpt>
      <trkpt lat="36.74637" lon="-5.16541">
        <ele>746.4311</ele>
        <time>2021-07-16T10:05:55Z</time>
      </trkpt>
      <trkpt lat="36.74638" lon="-5.16546">
        <ele>746.4311</ele>
        <time>2021-07-16T10:06:08Z</time>
      </trkpt>
      <trkpt lat="36.74637" lon="-5.16541">
        <ele>746.4311</ele>
        <time>2021-07-16T10:06:20Z</time>
      </trkpt>
      <trkpt lat="36.74641" lon="-5.16542">
        <ele>719.9012</ele>
        <time>2021-07-16T10:07:00Z</time>
      </trkpt>
      <trkpt lat="36.74637" lon="-5.16541">
        <ele>746.4311</ele>
        <time>2021-07-16T10:07:18Z</time>
      </trkpt>
      <trkpt lat="36.74633" lon="-5.16554">
        <ele>739.8126</ele>
        <time>2021-07-16T10:07:29Z</time>
      </trkpt>
      <trkpt lat="36.74664" lon="-5.16544">
        <ele>739.0196</ele>
        <time>2021-07-16T10:07:40Z</time>
      </trkpt>
      <trkpt lat="36.74648" lon="-5.1655">
        <ele>737.7276</ele>
        <time>2021-07-16T10:07:51Z</time>
      </trkpt>
      <trkpt lat="36.74644" lon="-5.16552">
        <ele>740.4912</ele>
        <time>2021-07-16T10:08:02Z</time>
      </trkpt>
      <trkpt lat="36.74641" lon="-5.16554">
        <ele>738.8599</ele>
        <time>2021-07-16T10:08:13Z</time>
      </trkpt>
      <trkpt lat="36.74645" lon="-5.16554">
        <ele>740.1441</ele>
        <time>2021-07-16T10:09:05Z</time>
      </trkpt>
      <trkpt lat="36.74644" lon="-5.16559">
        <ele>739.0702</ele>
        <time>2021-07-16T10:09:16Z</time>
      </trkpt>
      <trkpt lat="36.74646" lon="-5.16567">
        <ele>737.7425</ele>
        <time>2021-07-16T10:09:27Z</time>
      </trkpt>
      <trkpt lat="36.74643" lon="-5.1657">
        <ele>738.6114</ele>
        <time>2021-07-16T10:09:38Z</time>
      </trkpt>
      <trkpt lat="36.7464" lon="-5.16575">
        <ele>738.5773</ele>
        <time>2021-07-16T10:09:49Z</time>
      </trkpt>
      <trkpt lat="36.74641" lon="-5.16576">
        <ele>739.3163</ele>
        <time>2021-07-16T10:10:47Z</time>
      </trkpt>
      <trkpt lat="36.74638" lon="-5.16573">
        <ele>738.5059</ele>
        <time>2021-07-16T10:11:00Z</time>
      </trkpt>
      <trkpt lat="36.74597" lon="-5.16532">
        <ele>735.741</ele>
        <time>2021-07-16T10:11:11Z</time>
      </trkpt>
      <trkpt lat="36.74552" lon="-5.16509">
        <ele>735.9336</ele>
        <time>2021-07-16T10:11:22Z</time>
      </trkpt>
      <trkpt lat="36.74542" lon="-5.16499">
        <ele>737.2535</ele>
        <time>2021-07-16T10:11:33Z</time>
      </trkpt>
      <trkpt lat="36.74515" lon="-5.16557">
        <ele>734.9936</ele>
        <time>2021-07-16T10:11:44Z</time>
      </trkpt>
      <trkpt lat="36.74495" lon="-5.16584">
        <ele>733.2698</ele>
        <time>2021-07-16T10:11:55Z</time>
      </trkpt>
      <trkpt lat="36.74493" lon="-5.16598">
        <ele>734.4456</ele>
        <time>2021-07-16T10:12:06Z</time>
      </trkpt>
      <trkpt lat="36.74484" lon="-5.16621">
        <ele>733.5181</ele>
        <time>2021-07-16T10:12:17Z</time>
      </trkpt>
      <trkpt lat="36.74461" lon="-5.16663">
        <ele>732.2595</ele>
        <time>2021-07-16T10:12:28Z</time>
      </trkpt>
      <trkpt lat="36.7445" lon="-5.16692">
        <ele>730.9894</ele>
        <time>2021-07-16T10:12:39Z</time>
      </trkpt>
      <trkpt lat="36.74454" lon="-5.16695">
        <ele>731.633</ele>
        <time>2021-07-16T10:12:50Z</time>
      </trkpt>
      <trkpt lat="36.74447" lon="-5.16706">
        <ele>732.2954</ele>
        <time>2021-07-16T10:13:01Z</time>
      </trkpt>
      <trkpt lat="36.74443" lon="-5.16713">
        <ele>731.5562</ele>
        <time>2021-07-16T10:13:12Z</time>
      </trkpt>
      <trkpt lat="36.74442" lon="-5.16722">
        <ele>731.4703</ele>
        <time>2021-07-16T10:13:23Z</time>
      </trkpt>
      <trkpt lat="36.74429" lon="-5.1673">
        <ele>730.9427</ele>
        <time>2021-07-16T10:13:34Z</time>
      </trkpt>
      <trkpt lat="36.74404" lon="-5.16721">
        <ele>729.2135</ele>
        <time>2021-07-16T10:13:45Z</time>
      </trkpt>
      <trkpt lat="36.74336" lon="-5.167">
        <ele>725.7756</ele>
        <time>2021-07-16T10:13:56Z</time>
      </trkpt>
      <trkpt lat="36.74289" lon="-5.16682">
        <ele>724.1739</ele>
        <time>2021-07-16T10:14:07Z</time>
      </trkpt>
      <trkpt lat="36.74257" lon="-5.16667">
        <ele>723.9328</ele>
        <time>2021-07-16T10:14:18Z</time>
      </trkpt>
      <trkpt lat="36.74236" lon="-5.16659">
        <ele>724.7755</ele>
        <time>2021-07-16T10:14:29Z</time>
      </trkpt>
      <trkpt lat="36.74228" lon="-5.16654">
        <ele>726.05</ele>
        <time>2021-07-16T10:14:40Z</time>
      </trkpt>
      <trkpt lat="36.74199" lon="-5.16641">
        <ele>726.3809</ele>
        <time>2021-07-16T10:14:51Z</time>
      </trkpt>
      <trkpt lat="36.74146" lon="-5.16622">
        <ele>724.1445</ele>
        <time>2021-07-16T10:15:02Z</time>
      </trkpt>
      <trkpt lat="36.74105" lon="-5.16612">
        <ele>715.8307</ele>
        <time>2021-07-16T10:15:13Z</time>
      </trkpt>
      <trkpt lat="36.74053" lon="-5.16576">
        <ele>716.8488</ele>
        <time>2021-07-16T10:15:24Z</time>
      </trkpt>
      <trkpt lat="36.74012" lon="-5.16567">
        <ele>719.0435</ele>
        <time>2021-07-16T10:15:35Z</time>
      </trkpt>
      <trkpt lat="36.73959" lon="-5.16547">
        <ele>729.7936</ele>
        <time>2021-07-16T10:15:46Z</time>
      </trkpt>
      <trkpt lat="36.73899" lon="-5.16524">
        <ele>731.8224</ele>
        <time>2021-07-16T10:15:57Z</time>
      </trkpt>
      <trkpt lat="36.73841" lon="-5.16511">
        <ele>729.48</ele>
        <time>2021-07-16T10:16:08Z</time>
      </trkpt>
      <trkpt lat="36.73809" lon="-5.16489">
        <ele>728.764</ele>
        <time>2021-07-16T10:16:19Z</time>
      </trkpt>
      <trkpt lat="36.73769" lon="-5.16472">
        <ele>727.3803</ele>
        <time>2021-07-16T10:16:30Z</time>
      </trkpt>
      <trkpt lat="36.73719" lon="-5.16476">
        <ele>726.1784</ele>
        <time>2021-07-16T10:16:41Z</time>
      </trkpt>
      <trkpt lat="36.73642" lon="-5.16448">
        <ele>722.0283</ele>
        <time>2021-07-16T10:16:52Z</time>
      </trkpt>
      <trkpt lat="36.7359" lon="-5.16426">
        <ele>711.307</ele>
        <time>2021-07-16T10:17:03Z</time>
      </trkpt>
      <trkpt lat="36.73553" lon="-5.16423">
        <ele>710.6687</ele>
        <time>2021-07-16T10:17:14Z</time>
      </trkpt>
      <trkpt lat="36.73511" lon="-5.16503">
        <ele>712.7174</ele>
        <time>2021-07-16T10:17:25Z</time>
      </trkpt>
      <trkpt lat="36.73448" lon="-5.16489">
        <ele>700.3035</ele>
        <time>2021-07-16T10:17:36Z</time>
      </trkpt>
      <trkpt lat="36.73439" lon="-5.16488">
        <ele>701.8568</ele>
        <time>2021-07-16T10:17:47Z</time>
      </trkpt>
      <trkpt lat="36.73448" lon="-5.16489">
        <ele>702.6692</ele>
        <time>2021-07-16T10:17:58Z</time>
      </trkpt>
      <trkpt lat="36.73493" lon="-5.16542">
        <ele>697.3374</ele>
        <time>2021-07-16T10:18:09Z</time>
      </trkpt>
      <trkpt lat="36.73562" lon="-5.1661">
        <ele>680.6958</ele>
        <time>2021-07-16T10:18:20Z</time>
      </trkpt>
      <trkpt lat="36.73597" lon="-5.16643">
        <ele>682.7312</ele>
        <time>2021-07-16T10:18:31Z</time>
      </trkpt>
      <trkpt lat="36.7362" lon="-5.16666">
        <ele>680.2272</ele>
        <time>2021-07-16T10:18:42Z</time>
      </trkpt>
      <trkpt lat="36.7366" lon="-5.16729">
        <ele>668.5662</ele>
        <time>2021-07-16T10:18:53Z</time>
      </trkpt>
      <trkpt lat="36.73671" lon="-5.1681">
        <ele>659.1425</ele>
        <time>2021-07-16T10:19:04Z</time>
      </trkpt>
      <trkpt lat="36.73738" lon="-5.16859">
        <ele>648.0548</ele>
        <time>2021-07-16T10:19:15Z</time>
      </trkpt>
      <trkpt lat="36.73762" lon="-5.16896">
        <ele>640.5228</ele>
        <time>2021-07-16T10:19:26Z</time>
      </trkpt>
      <trkpt lat="36.73708" lon="-5.16928">
        <ele>628.5774</ele>
        <time>2021-07-16T10:19:37Z</time>
      </trkpt>
      <trkpt lat="36.73732" lon="-5.16991">
        <ele>620.2438</ele>
        <time>2021-07-16T10:19:48Z</time>
      </trkpt>
      <trkpt lat="36.73785" lon="-5.16995">
        <ele>608.8472</ele>
        <time>2021-07-16T10:19:59Z</time>
      </trkpt>
      <trkpt lat="36.73861" lon="-5.17016">
        <ele>598.0996</ele>
        <time>2021-07-16T10:20:10Z</time>
      </trkpt>
      <trkpt lat="36.73885" lon="-5.17018">
        <ele>594.9581</ele>
        <time>2021-07-16T10:20:21Z</time>
      </trkpt>
      <trkpt lat="36.73938" lon="-5.1702">
        <ele>598.8759</ele>
        <time>2021-07-16T10:20:32Z</time>
      </trkpt>
      <trkpt lat="36.73933" lon="-5.17027">
        <ele>593.3371</ele>
        <time>2021-07-16T10:20:43Z</time>
      </trkpt>
      <trkpt lat="36.73936" lon="-5.17016">
        <ele>592.1057</ele>
        <time>2021-07-16T10:21:03Z</time>
      </trkpt>
      <trkpt lat="36.73921" lon="-5.17016">
        <ele>592.9271</ele>
        <time>2021-07-16T10:21:14Z</time>
      </trkpt>
      <trkpt lat="36.73925" lon="-5.1701">
        <ele>590.1145</ele>
        <time>2021-07-16T10:21:25Z</time>
      </trkpt>
      <trkpt lat="36.73934" lon="-5.17018">
        <ele>590.2988</ele>
        <time>2021-07-16T10:21:36Z</time>
      </trkpt>
      <trkpt lat="36.73931" lon="-5.17028">
        <ele>590.2845</ele>
        <time>2021-07-16T10:21:47Z</time>
      </trkpt>
      <trkpt lat="36.73939" lon="-5.17018">
        <ele>590.7182</ele>
        <time>2021-07-16T10:22:01Z</time>
      </trkpt>
      <trkpt lat="36.73932" lon="-5.17028">
        <ele>590.9907</ele>
        <time>2021-07-16T10:22:12Z</time>
      </trkpt>
      <trkpt lat="36.73908" lon="-5.16988">
        <ele>589.6788</ele>
        <time>2021-07-16T10:22:23Z</time>
      </trkpt>
      <trkpt lat="36.73907" lon="-5.16989">
        <ele>589.5413</ele>
        <time>2021-07-16T10:23:21Z</time>
      </trkpt>
      <trkpt lat="36.73907" lon="-5.16989">
        <ele>590.3861</ele>
        <time>2021-07-16T10:24:20Z</time>
      </trkpt>
      <trkpt lat="36.73907" lon="-5.16986">
        <ele>590.7577</ele>
        <time>2021-07-16T10:25:19Z</time>
      </trkpt>
      <trkpt lat="36.73908" lon="-5.16991">
        <ele>590.2795</ele>
        <time>2021-07-16T10:26:06Z</time>
      </trkpt>
      <trkpt lat="36.73897" lon="-5.17013">
        <ele>589.4581</ele>
        <time>2021-07-16T10:26:17Z</time>
      </trkpt>
      <trkpt lat="36.73831" lon="-5.17023">
        <ele>602.6142</ele>
        <time>2021-07-16T10:26:28Z</time>
      </trkpt>
      <trkpt lat="36.73786" lon="-5.16999">
        <ele>609.0362</ele>
        <time>2021-07-16T10:26:39Z</time>
      </trkpt>
      <trkpt lat="36.73742" lon="-5.17009">
        <ele>615.2884</ele>
        <time>2021-07-16T10:26:50Z</time>
      </trkpt>
      <trkpt lat="36.73719" lon="-5.16958">
        <ele>625.0876</ele>
        <time>2021-07-16T10:27:01Z</time>
      </trkpt>
      <trkpt lat="36.73739" lon="-5.16903">
        <ele>635.5042</ele>
        <time>2021-07-16T10:27:12Z</time>
      </trkpt>
      <trkpt lat="36.73749" lon="-5.16866">
        <ele>644.2991</ele>
        <time>2021-07-16T10:27:23Z</time>
      </trkpt>
      <trkpt lat="36.73679" lon="-5.16817">
        <ele>658.9252</ele>
        <time>2021-07-16T10:27:34Z</time>
      </trkpt>
      <trkpt lat="36.7366" lon="-5.16746">
        <ele>669.0312</ele>
        <time>2021-07-16T10:27:45Z</time>
      </trkpt>
      <trkpt lat="36.73617" lon="-5.16666">
        <ele>678.5783</ele>
        <time>2021-07-16T10:27:56Z</time>
      </trkpt>
      <trkpt lat="36.73554" lon="-5.16606">
        <ele>686.3209</ele>
        <time>2021-07-16T10:28:07Z</time>
      </trkpt>
      <trkpt lat="36.735" lon="-5.16554">
        <ele>695.6426</ele>
        <time>2021-07-16T10:28:18Z</time>
      </trkpt>
      <trkpt lat="36.73455" lon="-5.16512">
        <ele>702.3966</ele>
        <time>2021-07-16T10:28:29Z</time>
      </trkpt>
      <trkpt lat="36.73441" lon="-5.16496">
        <ele>702.534</ele>
        <time>2021-07-16T10:28:40Z</time>
      </trkpt>
      <trkpt lat="36.73433" lon="-5.16467">
        <ele>701.2113</ele>
        <time>2021-07-16T10:28:51Z</time>
      </trkpt>
      <trkpt lat="36.73466" lon="-5.16501">
        <ele>702.6696</ele>
        <time>2021-07-16T10:29:02Z</time>
      </trkpt>
      <trkpt lat="36.73516" lon="-5.16467">
        <ele>711.3214</ele>
        <time>2021-07-16T10:29:13Z</time>
      </trkpt>
      <trkpt lat="36.73576" lon="-5.16419">
        <ele>714.235</ele>
        <time>2021-07-16T10:29:24Z</time>
      </trkpt>
      <trkpt lat="36.73649" lon="-5.1645">
        <ele>718.9694</ele>
        <time>2021-07-16T10:29:35Z</time>
      </trkpt>
      <trkpt lat="36.73725" lon="-5.16475">
        <ele>727.1447</ele>
        <time>2021-07-16T10:29:46Z</time>
      </trkpt>
      <trkpt lat="36.73797" lon="-5.16475">
        <ele>727.5586</ele>
        <time>2021-07-16T10:29:57Z</time>
      </trkpt>
      <trkpt lat="36.73865" lon="-5.16511">
        <ele>730.3431</ele>
        <time>2021-07-16T10:30:08Z</time>
      </trkpt>
      <trkpt lat="36.73937" lon="-5.16532">
        <ele>732.3341</ele>
        <time>2021-07-16T10:30:19Z</time>
      </trkpt>
      <trkpt lat="36.74011" lon="-5.16563">
        <ele>725.1088</ele>
        <time>2021-07-16T10:30:30Z</time>
      </trkpt>
      <trkpt lat="36.74079" lon="-5.1659">
        <ele>721.7556</ele>
        <time>2021-07-16T10:30:41Z</time>
      </trkpt>
      <trkpt lat="36.74137" lon="-5.16617">
        <ele>720.7103</ele>
        <time>2021-07-16T10:30:52Z</time>
      </trkpt>
      <trkpt lat="36.74188" lon="-5.16634">
        <ele>722.07</ele>
        <time>2021-07-16T10:31:03Z</time>
      </trkpt>
      <trkpt lat="36.74253" lon="-5.16657">
        <ele>725.2302</ele>
        <time>2021-07-16T10:31:14Z</time>
      </trkpt>
      <trkpt lat="36.74326" lon="-5.1669">
        <ele>728.6096</ele>
        <time>2021-07-16T10:31:25Z</time>
      </trkpt>
      <trkpt lat="36.74394" lon="-5.16721">
        <ele>731.3749</ele>
        <time>2021-07-16T10:31:36Z</time>
      </trkpt>
      <trkpt lat="36.74463" lon="-5.16738">
        <ele>731.8179</ele>
        <time>2021-07-16T10:31:47Z</time>
      </trkpt>
      <trkpt lat="36.74513" lon="-5.16768">
        <ele>734.0256</ele>
        <time>2021-07-16T10:31:58Z</time>
      </trkpt>
      <trkpt lat="36.74545" lon="-5.1679">
        <ele>735.3108</ele>
        <time>2021-07-16T10:32:09Z</time>
      </trkpt>
      <trkpt lat="36.74593" lon="-5.16819">
        <ele>735.6023</ele>
        <time>2021-07-16T10:32:20Z</time>
      </trkpt>
      <trkpt lat="36.74638" lon="-5.16847">
        <ele>735.3239</ele>
        <time>2021-07-16T10:32:31Z</time>
      </trkpt>
      <trkpt lat="36.74705" lon="-5.16885">
        <ele>741.4248</ele>
        <time>2021-07-16T10:32:42Z</time>
      </trkpt>
      <trkpt lat="36.74745" lon="-5.16821">
        <ele>744.2754</ele>
        <time>2021-07-16T10:32:53Z</time>
      </trkpt>
      <trkpt lat="36.74791" lon="-5.16826">
        <ele>747.3596</ele>
        <time>2021-07-16T10:33:04Z</time>
      </trkpt>
      <trkpt lat="36.74876" lon="-5.16883">
        <ele>749.6061</ele>
        <time>2021-07-16T10:33:15Z</time>
      </trkpt>
      <trkpt lat="36.74985" lon="-5.16945">
        <ele>752.7768</ele>
        <time>2021-07-16T10:33:26Z</time>
      </trkpt>
      <trkpt lat="36.75035" lon="-5.16855">
        <ele>758.3722</ele>
        <time>2021-07-16T10:33:37Z</time>
      </trkpt>
      <trkpt lat="36.75056" lon="-5.16749">
        <ele>766.0292</ele>
        <time>2021-07-16T10:33:48Z</time>
      </trkpt>
      <trkpt lat="36.75059" lon="-5.16677">
        <ele>766.4461</ele>
        <time>2021-07-16T10:33:59Z</time>
      </trkpt>
      <trkpt lat="36.75064" lon="-5.1657">
        <ele>759.4592</ele>
        <time>2021-07-16T10:34:10Z</time>
      </trkpt>
      <trkpt lat="36.75071" lon="-5.16492">
        <ele>755.2216</ele>
        <time>2021-07-16T10:34:21Z</time>
      </trkpt>
      <trkpt lat="36.75066" lon="-5.1645">
        <ele>753.5495</ele>
        <time>2021-07-16T10:34:32Z</time>
      </trkpt>
      <trkpt lat="36.75078" lon="-5.1639">
        <ele>751.0696</ele>
        <time>2021-07-16T10:34:43Z</time>
      </trkpt>
      <trkpt lat="36.75099" lon="-5.16362">
        <ele>748.9463</ele>
        <time>2021-07-16T10:34:54Z</time>
      </trkpt>
      <trkpt lat="36.75102" lon="-5.16368">
        <ele>749.7878</ele>
        <time>2021-07-16T10:35:05Z</time>
      </trkpt>
      <trkpt lat="36.75099" lon="-5.16374">
        <ele>750.1923</ele>
        <time>2021-07-16T10:35:16Z</time>
      </trkpt>
      <trkpt lat="36.75101" lon="-5.16372">
        <ele>750.076</ele>
        <time>2021-07-16T10:36:15Z</time>
      </trkpt>
      <trkpt lat="36.75083" lon="-5.16375">
        <ele>750.076</ele>
        <time>2021-07-16T10:36:26Z</time>
      </trkpt>
      <trkpt lat="36.75083" lon="-5.16372">
        <ele>750.3771</ele>
        <time>2021-07-16T10:37:25Z</time>
      </trkpt>
      <trkpt lat="36.75112" lon="-5.16372">
        <ele>750.0672</ele>
        <time>2021-07-16T10:37:44Z</time>
      </trkpt>
      <trkpt lat="36.7512" lon="-5.16371">
        <ele>750.0998</ele>
        <time>2021-07-16T10:37:55Z</time>
      </trkpt>
      <trkpt lat="36.75112" lon="-5.1637">
        <ele>749.7952</ele>
        <time>2021-07-16T10:38:06Z</time>
      </trkpt>
      <trkpt lat="36.75112" lon="-5.16371">
        <ele>749.4713</ele>
        <time>2021-07-16T10:39:05Z</time>
      </trkpt>
      <trkpt lat="36.75111" lon="-5.16375">
        <ele>750.3069</ele>
        <time>2021-07-16T10:39:43Z</time>
      </trkpt>
      <trkpt lat="36.75083" lon="-5.16377">
        <ele>751.1374</ele>
        <time>2021-07-16T10:39:54Z</time>
      </trkpt>
      <trkpt lat="36.75092" lon="-5.16343">
        <ele>749.8973</ele>
        <time>2021-07-16T10:40:05Z</time>
      </trkpt>
      <trkpt lat="36.7509" lon="-5.16225">
        <ele>743.8096</ele>
        <time>2021-07-16T10:40:16Z</time>
      </trkpt>
      <trkpt lat="36.75118" lon="-5.16108">
        <ele>740.9847</ele>
        <time>2021-07-16T10:40:27Z</time>
      </trkpt>
      <trkpt lat="36.75151" lon="-5.16007">
        <ele>739.5088</ele>
        <time>2021-07-16T10:40:38Z</time>
      </trkpt>
      <trkpt lat="36.75187" lon="-5.15901">
        <ele>739.3333</ele>
        <time>2021-07-16T10:40:49Z</time>
      </trkpt>
      <trkpt lat="36.75213" lon="-5.15831">
        <ele>737.4462</ele>
        <time>2021-07-16T10:41:00Z</time>
      </trkpt>
      <trkpt lat="36.75231" lon="-5.15782">
        <ele>736.6278</ele>
        <time>2021-07-16T10:41:11Z</time>
      </trkpt>
      <trkpt lat="36.75258" lon="-5.15672">
        <ele>734.3192</ele>
        <time>2021-07-16T10:41:22Z</time>
      </trkpt>
      <trkpt lat="36.75342" lon="-5.15539">
        <ele>731.1827</ele>
        <time>2021-07-16T10:41:33Z</time>
      </trkpt>
      <trkpt lat="36.75382" lon="-5.15416">
        <ele>730.4656</ele>
        <time>2021-07-16T10:41:44Z</time>
      </trkpt>
      <trkpt lat="36.75392" lon="-5.1534">
        <ele>721.3737</ele>
        <time>2021-07-16T10:41:55Z</time>
      </trkpt>
      <trkpt lat="36.75397" lon="-5.15303">
        <ele>721.7174</ele>
        <time>2021-07-16T10:42:06Z</time>
      </trkpt>
      <trkpt lat="36.75415" lon="-5.15187">
        <ele>722.1013</ele>
        <time>2021-07-16T10:42:17Z</time>
      </trkpt>
      <trkpt lat="36.75429" lon="-5.15072">
        <ele>723.9095</ele>
        <time>2021-07-16T10:42:28Z</time>
      </trkpt>
      <trkpt lat="36.75408" lon="-5.15032">
        <ele>727.3442</ele>
        <time>2021-07-16T10:42:39Z</time>
      </trkpt>
      <trkpt lat="36.7535" lon="-5.15006">
        <ele>729.1217</ele>
        <time>2021-07-16T10:42:50Z</time>
      </trkpt>
      <trkpt lat="36.75345" lon="-5.1495">
        <ele>724.7813</ele>
        <time>2021-07-16T10:43:01Z</time>
      </trkpt>
      <trkpt lat="36.75344" lon="-5.14792">
        <ele>723.6138</ele>
        <time>2021-07-16T10:43:12Z</time>
      </trkpt>
      <trkpt lat="36.7518" lon="-5.14687">
        <ele>716.5657</ele>
        <time>2021-07-16T10:43:23Z</time>
      </trkpt>
      <trkpt lat="36.7501" lon="-5.14605">
        <ele>712.6604</ele>
        <time>2021-07-16T10:43:34Z</time>
      </trkpt>
      <trkpt lat="36.74852" lon="-5.14546">
        <ele>709.1132</ele>
        <time>2021-07-16T10:43:45Z</time>
      </trkpt>
      <trkpt lat="36.74786" lon="-5.14622">
        <ele>699.249</ele>
        <time>2021-07-16T10:43:56Z</time>
      </trkpt>
      <trkpt lat="36.74811" lon="-5.14711">
        <ele>706.4396</ele>
        <time>2021-07-16T10:44:07Z</time>
      </trkpt>
      <trkpt lat="36.74773" lon="-5.14752">
        <ele>706.3714</ele>
        <time>2021-07-16T10:44:18Z</time>
      </trkpt>
      <trkpt lat="36.74762" lon="-5.14756">
        <ele>705.7038</ele>
        <time>2021-07-16T10:44:29Z</time>
      </trkpt>
      <trkpt lat="36.74737" lon="-5.14756">
        <ele>702.8688</ele>
        <time>2021-07-16T10:44:40Z</time>
      </trkpt>
      <trkpt lat="36.74739" lon="-5.1476">
        <ele>702.4777</ele>
        <time>2021-07-16T10:44:52Z</time>
      </trkpt>
      <trkpt lat="36.74743" lon="-5.14756">
        <ele>703.173</ele>
        <time>2021-07-16T10:45:12Z</time>
      </trkpt>
      <trkpt lat="36.74745" lon="-5.14752">
        <ele>703.0529</ele>
        <time>2021-07-16T10:45:45Z</time>
      </trkpt>
      <trkpt lat="36.74748" lon="-5.14754">
        <ele>703.3308</ele>
        <time>2021-07-16T10:46:01Z</time>
      </trkpt>
      <trkpt lat="36.74752" lon="-5.14759">
        <ele>703.3678</ele>
        <time>2021-07-16T10:46:12Z</time>
      </trkpt>
      <trkpt lat="36.74749" lon="-5.14761">
        <ele>702.9482</ele>
        <time>2021-07-16T10:46:41Z</time>
      </trkpt>
      <trkpt lat="36.74732" lon="-5.14751">
        <ele>702.8781</ele>
        <time>2021-07-16T10:47:31Z</time>
      </trkpt>
      <trkpt lat="36.74738" lon="-5.1474">
        <ele>702.6703</ele>
        <time>2021-07-16T10:47:42Z</time>
      </trkpt>
      <trkpt lat="36.74719" lon="-5.14743">
        <ele>703.0128</ele>
        <time>2021-07-16T10:48:13Z</time>
      </trkpt>
      <trkpt lat="36.74715" lon="-5.14746">
        <ele>702.7384</ele>
        <time>2021-07-16T10:48:41Z</time>
      </trkpt>
      <trkpt lat="36.74712" lon="-5.14766">
        <ele>702.4128</ele>
        <time>2021-07-16T10:48:52Z</time>
      </trkpt>
      <trkpt lat="36.7472" lon="-5.14756">
        <ele>702.6306</ele>
        <time>2021-07-16T10:49:03Z</time>
      </trkpt>
      <trkpt lat="36.74726" lon="-5.14749">
        <ele>702.2112</ele>
        <time>2021-07-16T10:49:14Z</time>
      </trkpt>
      <trkpt lat="36.74717" lon="-5.14739">
        <ele>701.4203</ele>
        <time>2021-07-16T10:49:25Z</time>
      </trkpt>
      <trkpt lat="36.74719" lon="-5.14763">
        <ele>702.7343</ele>
        <time>2021-07-16T10:49:37Z</time>
      </trkpt>
      <trkpt lat="36.74718" lon="-5.14755">
        <ele>702.8516</ele>
        <time>2021-07-16T10:49:48Z</time>
      </trkpt>
      <trkpt lat="36.74718" lon="-5.14762">
        <ele>702.2875</ele>
        <time>2021-07-16T10:50:03Z</time>
      </trkpt>
      <trkpt lat="36.74707" lon="-5.14762">
        <ele>702.7458</ele>
        <time>2021-07-16T10:50:14Z</time>
      </trkpt>
      <trkpt lat="36.74714" lon="-5.14759">
        <ele>702.4956</ele>
        <time>2021-07-16T10:50:25Z</time>
      </trkpt>
      <trkpt lat="36.74714" lon="-5.14744">
        <ele>702.3324</ele>
        <time>2021-07-16T10:50:37Z</time>
      </trkpt>
      <trkpt lat="36.74717" lon="-5.14748">
        <ele>702.4458</ele>
        <time>2021-07-16T10:50:48Z</time>
      </trkpt>
      <trkpt lat="36.74718" lon="-5.14756">
        <ele>702.5947</ele>
        <time>2021-07-16T10:50:59Z</time>
      </trkpt>
      <trkpt lat="36.74712" lon="-5.14751">
        <ele>702.3975</ele>
        <time>2021-07-16T10:51:10Z</time>
      </trkpt>
      <trkpt lat="36.74712" lon="-5.14746">
        <ele>702.3639</ele>
        <time>2021-07-16T10:51:21Z</time>
      </trkpt>
      <trkpt lat="36.74716" lon="-5.14768">
        <ele>703.1536</ele>
        <time>2021-07-16T10:51:32Z</time>
      </trkpt>
      <trkpt lat="36.74715" lon="-5.14774">
        <ele>702.4657</ele>
        <time>2021-07-16T10:51:43Z</time>
      </trkpt>
      <trkpt lat="36.74724" lon="-5.14781">
        <ele>702.7777</ele>
        <time>2021-07-16T10:51:54Z</time>
      </trkpt>
      <trkpt lat="36.74711" lon="-5.14781">
        <ele>702.823</ele>
        <time>2021-07-16T10:52:05Z</time>
      </trkpt>
      <trkpt lat="36.74723" lon="-5.14779">
        <ele>702.921</ele>
        <time>2021-07-16T10:52:16Z</time>
      </trkpt>
      <trkpt lat="36.74711" lon="-5.14743">
        <ele>701.8514</ele>
        <time>2021-07-16T10:52:27Z</time>
      </trkpt>
      <trkpt lat="36.74718" lon="-5.14746">
        <ele>702.7981</ele>
        <time>2021-07-16T10:52:38Z</time>
      </trkpt>
      <trkpt lat="36.74727" lon="-5.14759">
        <ele>702.0585</ele>
        <time>2021-07-16T10:52:49Z</time>
      </trkpt>
      <trkpt lat="36.74721" lon="-5.14743">
        <ele>702.4795</ele>
        <time>2021-07-16T10:53:00Z</time>
      </trkpt>
      <trkpt lat="36.74717" lon="-5.14756">
        <ele>702.7355</ele>
        <time>2021-07-16T10:53:11Z</time>
      </trkpt>
      <trkpt lat="36.74712" lon="-5.14749">
        <ele>702.2915</ele>
        <time>2021-07-16T10:53:22Z</time>
      </trkpt>
      <trkpt lat="36.74718" lon="-5.14784">
        <ele>702.5163</ele>
        <time>2021-07-16T10:53:48Z</time>
      </trkpt>
      <trkpt lat="36.74726" lon="-5.14757">
        <ele>703.0128</ele>
        <time>2021-07-16T10:54:25Z</time>
      </trkpt>
      <trkpt lat="36.7472" lon="-5.14757">
        <ele>703.0128</ele>
        <time>2021-07-16T10:54:40Z</time>
      </trkpt>
      <trkpt lat="36.74718" lon="-5.14753">
        <ele>703.0128</ele>
        <time>2021-07-16T10:55:06Z</time>
      </trkpt>
      <trkpt lat="36.74723" lon="-5.14755">
        <ele>703.0128</ele>
        <time>2021-07-16T10:55:19Z</time>
      </trkpt>
      <trkpt lat="36.74709" lon="-5.14765">
        <ele>703.0128</ele>
        <time>2021-07-16T10:55:32Z</time>
      </trkpt>
      <trkpt lat="36.74721" lon="-5.1476">
        <ele>703.0128</ele>
        <time>2021-07-16T10:55:45Z</time>
      </trkpt>
      <trkpt lat="36.74715" lon="-5.14759">
        <ele>703.0128</ele>
        <time>2021-07-16T10:55:58Z</time>
      </trkpt>
      <trkpt lat="36.74711" lon="-5.14765">
        <ele>703.0128</ele>
        <time>2021-07-16T10:56:11Z</time>
      </trkpt>
      <trkpt lat="36.74708" lon="-5.14769">
        <ele>703.0128</ele>
        <time>2021-07-16T10:56:24Z</time>
      </trkpt>
      <trkpt lat="36.74705" lon="-5.14775">
        <ele>703.0128</ele>
        <time>2021-07-16T10:56:37Z</time>
      </trkpt>
      <trkpt lat="36.74701" lon="-5.14778">
        <ele>703.0128</ele>
        <time>2021-07-16T10:56:50Z</time>
      </trkpt>
      <trkpt lat="36.74694" lon="-5.14779">
        <ele>703.0128</ele>
        <time>2021-07-16T10:57:03Z</time>
      </trkpt>
      <trkpt lat="36.74695" lon="-5.14784">
        <ele>703.0128</ele>
        <time>2021-07-16T10:57:16Z</time>
      </trkpt>
      <trkpt lat="36.74701" lon="-5.14783">
        <ele>703.0128</ele>
        <time>2021-07-16T10:57:35Z</time>
      </trkpt>
      <trkpt lat="36.74692" lon="-5.14794">
        <ele>703.0122</ele>
        <time>2021-07-16T10:57:46Z</time>
      </trkpt>
      <trkpt lat="36.74691" lon="-5.14781">
        <ele>703.0019</ele>
        <time>2021-07-16T10:57:57Z</time>
      </trkpt>
      <trkpt lat="36.74687" lon="-5.14781">
        <ele>703.0114</ele>
        <time>2021-07-16T10:58:15Z</time>
      </trkpt>
      <trkpt lat="36.74712" lon="-5.14779">
        <ele>703.0128</ele>
        <time>2021-07-16T10:58:47Z</time>
      </trkpt>
      <trkpt lat="36.747" lon="-5.14787">
        <ele>703.1291</ele>
        <time>2021-07-16T10:58:58Z</time>
      </trkpt>
      <trkpt lat="36.74719" lon="-5.1477">
        <ele>703.0128</ele>
        <time>2021-07-16T10:59:52Z</time>
      </trkpt>
      <trkpt lat="36.74714" lon="-5.14769">
        <ele>703.0128</ele>
        <time>2021-07-16T11:00:12Z</time>
      </trkpt>
      <trkpt lat="36.74705" lon="-5.14773">
        <ele>703.0128</ele>
        <time>2021-07-16T11:00:25Z</time>
      </trkpt>
      <trkpt lat="36.74708" lon="-5.1477">
        <ele>703.0128</ele>
        <time>2021-07-16T11:00:38Z</time>
      </trkpt>
      <trkpt lat="36.74712" lon="-5.14766">
        <ele>703.0128</ele>
        <time>2021-07-16T11:00:51Z</time>
      </trkpt>
      <trkpt lat="36.74707" lon="-5.14772">
        <ele>703.0128</ele>
        <time>2021-07-16T11:01:04Z</time>
      </trkpt>
      <trkpt lat="36.7471" lon="-5.14782">
        <ele>702.7208</ele>
        <time>2021-07-16T11:01:15Z</time>
      </trkpt>
      <trkpt lat="36.74714" lon="-5.14769">
        <ele>703.0128</ele>
        <time>2021-07-16T11:01:39Z</time>
      </trkpt>
      <trkpt lat="36.74714" lon="-5.14761">
        <ele>703.0128</ele>
        <time>2021-07-16T11:01:56Z</time>
      </trkpt>
      <trkpt lat="36.74718" lon="-5.14761">
        <ele>703.0128</ele>
        <time>2021-07-16T11:02:09Z</time>
      </trkpt>
      <trkpt lat="36.74722" lon="-5.14758">
        <ele>703.0128</ele>
        <time>2021-07-16T11:02:28Z</time>
      </trkpt>
      <trkpt lat="36.74719" lon="-5.14759">
        <ele>703.0128</ele>
        <time>2021-07-16T11:02:41Z</time>
      </trkpt>
      <trkpt lat="36.74722" lon="-5.14764">
        <ele>703.0128</ele>
        <time>2021-07-16T11:02:54Z</time>
      </trkpt>
      <trkpt lat="36.74718" lon="-5.14764">
        <ele>703.0128</ele>
        <time>2021-07-16T11:03:07Z</time>
      </trkpt>
      <trkpt lat="36.74716" lon="-5.1477">
        <ele>703.0128</ele>
        <time>2021-07-16T11:03:20Z</time>
      </trkpt>
      <trkpt lat="36.74723" lon="-5.14762">
        <ele>703.0128</ele>
        <time>2021-07-16T11:03:42Z</time>
      </trkpt>
      <trkpt lat="36.74719" lon="-5.14767">
        <ele>703.0128</ele>
        <time>2021-07-16T11:04:29Z</time>
      </trkpt>
      <trkpt lat="36.74722" lon="-5.14762">
        <ele>703.0128</ele>
        <time>2021-07-16T11:04:42Z</time>
      </trkpt>
      <trkpt lat="36.74717" lon="-5.14766">
        <ele>703.0128</ele>
        <time>2021-07-16T11:04:55Z</time>
      </trkpt>
      <trkpt lat="36.74721" lon="-5.14764">
        <ele>703.0128</ele>
        <time>2021-07-16T11:05:08Z</time>
      </trkpt>
      <trkpt lat="36.74729" lon="-5.14759">
        <ele>703.0128</ele>
        <time>2021-07-16T11:05:23Z</time>
      </trkpt>
      <trkpt lat="36.7472" lon="-5.14766">
        <ele>703.0128</ele>
        <time>2021-07-16T11:05:35Z</time>
      </trkpt>
      <trkpt lat="36.7472" lon="-5.14766">
        <ele>703.0128</ele>
        <time>2021-07-16T11:05:41Z</time>
      </trkpt>
      <trkpt lat="36.74724" lon="-5.1476">
        <ele>703.0128</ele>
        <time>2021-07-16T11:06:00Z</time>
      </trkpt>
      <trkpt lat="36.74741" lon="-5.14754">
        <ele>703.0128</ele>
        <time>2021-07-16T11:06:46Z</time>
      </trkpt>
      <trkpt lat="36.74742" lon="-5.14762">
        <ele>703.0011</ele>
        <time>2021-07-16T11:06:57Z</time>
      </trkpt>
      <trkpt lat="36.7474" lon="-5.14758">
        <ele>703.0789</ele>
        <time>2021-07-16T11:07:08Z</time>
      </trkpt>
      <trkpt lat="36.74734" lon="-5.14746">
        <ele>703.7734</ele>
        <time>2021-07-16T11:07:19Z</time>
      </trkpt>
      <trkpt lat="36.74732" lon="-5.14751">
        <ele>702.9508</ele>
        <time>2021-07-16T11:07:37Z</time>
      </trkpt>
      <trkpt lat="36.74732" lon="-5.14746">
        <ele>703.7662</ele>
        <time>2021-07-16T11:07:48Z</time>
      </trkpt>
      <trkpt lat="36.74737" lon="-5.1475">
        <ele>700.0608</ele>
        <time>2021-07-16T11:07:59Z</time>
      </trkpt>
      <trkpt lat="36.74737" lon="-5.14755">
        <ele>702.3588</ele>
        <time>2021-07-16T11:08:10Z</time>
      </trkpt>
      <trkpt lat="36.74738" lon="-5.14753">
        <ele>702.0533</ele>
        <time>2021-07-16T11:09:09Z</time>
      </trkpt>
      <trkpt lat="36.74742" lon="-5.14755">
        <ele>702.5708</ele>
        <time>2021-07-16T11:09:20Z</time>
      </trkpt>
      <trkpt lat="36.7474" lon="-5.14751">
        <ele>701.6932</ele>
        <time>2021-07-16T11:10:19Z</time>
      </trkpt>
      <trkpt lat="36.74737" lon="-5.14752">
        <ele>700.6033</ele>
        <time>2021-07-16T11:11:18Z</time>
      </trkpt>
      <trkpt lat="36.74737" lon="-5.14757">
        <ele>702.7957</ele>
        <time>2021-07-16T11:11:34Z</time>
      </trkpt>
      <trkpt lat="36.74734" lon="-5.14755">
        <ele>703.4359</ele>
        <time>2021-07-16T11:11:53Z</time>
      </trkpt>
      <trkpt lat="36.7473" lon="-5.14752">
        <ele>703.0779</ele>
        <time>2021-07-16T11:12:24Z</time>
      </trkpt>
      <trkpt lat="36.74728" lon="-5.14755">
        <ele>701.2222</ele>
        <time>2021-07-16T11:12:48Z</time>
      </trkpt>
      <trkpt lat="36.74733" lon="-5.14755">
        <ele>702.5756</ele>
        <time>2021-07-16T11:13:05Z</time>
      </trkpt>
      <trkpt lat="36.74738" lon="-5.14752">
        <ele>703.1249</ele>
        <time>2021-07-16T11:13:16Z</time>
      </trkpt>
      <trkpt lat="36.74735" lon="-5.14756">
        <ele>702.7845</ele>
        <time>2021-07-16T11:13:39Z</time>
      </trkpt>
      <trkpt lat="36.74737" lon="-5.14752">
        <ele>702.7979</ele>
        <time>2021-07-16T11:13:52Z</time>
      </trkpt>
      <trkpt lat="36.74733" lon="-5.14755">
        <ele>703.0941</ele>
        <time>2021-07-16T11:14:30Z</time>
      </trkpt>
      <trkpt lat="36.74737" lon="-5.14752">
        <ele>701.9944</ele>
        <time>2021-07-16T11:14:41Z</time>
      </trkpt>
      <trkpt lat="36.7474" lon="-5.14748">
        <ele>702.6406</ele>
        <time>2021-07-16T11:14:53Z</time>
      </trkpt>
      <trkpt lat="36.74743" lon="-5.14743">
        <ele>703.3985</ele>
        <time>2021-07-16T11:15:10Z</time>
      </trkpt>
      <trkpt lat="36.74744" lon="-5.14748">
        <ele>701.7964</ele>
        <time>2021-07-16T11:15:23Z</time>
      </trkpt>
      <trkpt lat="36.74748" lon="-5.14752">
        <ele>702.4276</ele>
        <time>2021-07-16T11:15:34Z</time>
      </trkpt>
      <trkpt lat="36.74748" lon="-5.14752">
        <ele>702.4276</ele>
        <time>2021-07-16T11:16:34Z</time>
      </trkpt>
      <trkpt lat="36.74751" lon="-5.14753">
        <ele>702.5081</ele>
        <time>2021-07-16T11:17:01Z</time>
      </trkpt>
      <trkpt lat="36.74746" lon="-5.14745">
        <ele>703.9713</ele>
        <time>2021-07-16T11:17:15Z</time>
      </trkpt>
      <trkpt lat="36.74766" lon="-5.14724">
        <ele>703.286</ele>
        <time>2021-07-16T11:17:26Z</time>
      </trkpt>
      <trkpt lat="36.74802" lon="-5.14695">
        <ele>702.5901</ele>
        <time>2021-07-16T11:17:37Z</time>
      </trkpt>
      <trkpt lat="36.74772" lon="-5.14603">
        <ele>700.9705</ele>
        <time>2021-07-16T11:17:48Z</time>
      </trkpt>
      <trkpt lat="36.7477" lon="-5.14504">
        <ele>703.7839</ele>
        <time>2021-07-16T11:17:59Z</time>
      </trkpt>
      <trkpt lat="36.74796" lon="-5.14493">
        <ele>702.834</ele>
        <time>2021-07-16T11:18:10Z</time>
      </trkpt>
      <trkpt lat="36.7496" lon="-5.14574">
        <ele>709.1459</ele>
        <time>2021-07-16T11:18:21Z</time>
      </trkpt>
      <trkpt lat="36.75161" lon="-5.14672">
        <ele>716.4703</ele>
        <time>2021-07-16T11:18:32Z</time>
      </trkpt>
      <trkpt lat="36.75324" lon="-5.14769">
        <ele>719.6917</ele>
        <time>2021-07-16T11:18:43Z</time>
      </trkpt>
      <trkpt lat="36.75397" lon="-5.14728">
        <ele>723.9643</ele>
        <time>2021-07-16T11:18:54Z</time>
      </trkpt>
      <trkpt lat="36.7543" lon="-5.14528">
        <ele>731.7586</ele>
        <time>2021-07-16T11:19:05Z</time>
      </trkpt>
      <trkpt lat="36.75455" lon="-5.14336">
        <ele>739.385</ele>
        <time>2021-07-16T11:19:16Z</time>
      </trkpt>
      <trkpt lat="36.75497" lon="-5.14126">
        <ele>736.7325</ele>
        <time>2021-07-16T11:19:27Z</time>
      </trkpt>
      <trkpt lat="36.75525" lon="-5.13963">
        <ele>739.5961</ele>
        <time>2021-07-16T11:19:38Z</time>
      </trkpt>
      <trkpt lat="36.75575" lon="-5.1377">
        <ele>741.4987</ele>
        <time>2021-07-16T11:19:49Z</time>
      </trkpt>
      <trkpt lat="36.75624" lon="-5.13543">
        <ele>738.6701</ele>
        <time>2021-07-16T11:20:00Z</time>
      </trkpt>
      <trkpt lat="36.75724" lon="-5.13308">
        <ele>737.9971</ele>
        <time>2021-07-16T11:20:11Z</time>
      </trkpt>
      <trkpt lat="36.75838" lon="-5.13062">
        <ele>740.4144</ele>
        <time>2021-07-16T11:20:22Z</time>
      </trkpt>
      <trkpt lat="36.75929" lon="-5.12808">
        <ele>747.3383</ele>
        <time>2021-07-16T11:20:33Z</time>
      </trkpt>
      <trkpt lat="36.76025" lon="-5.12548">
        <ele>750.8409</ele>
        <time>2021-07-16T11:20:44Z</time>
      </trkpt>
      <trkpt lat="36.76146" lon="-5.12308">
        <ele>755.3337</ele>
        <time>2021-07-16T11:20:55Z</time>
      </trkpt>
      <trkpt lat="36.76275" lon="-5.1207">
        <ele>761.2855</ele>
        <time>2021-07-16T11:21:06Z</time>
      </trkpt>
      <trkpt lat="36.76414" lon="-5.11816">
        <ele>761.7125</ele>
        <time>2021-07-16T11:21:17Z</time>
      </trkpt>
      <trkpt lat="36.76496" lon="-5.11526">
        <ele>761.3469</ele>
        <time>2021-07-16T11:21:28Z</time>
      </trkpt>
      <trkpt lat="36.76601" lon="-5.11238">
        <ele>767.1186</ele>
        <time>2021-07-16T11:21:39Z</time>
      </trkpt>
      <trkpt lat="36.76695" lon="-5.10951">
        <ele>773.6562</ele>
        <time>2021-07-16T11:21:50Z</time>
      </trkpt>
      <trkpt lat="36.7681" lon="-5.10747">
        <ele>776.1139</ele>
        <time>2021-07-16T11:22:01Z</time>
      </trkpt>
      <trkpt lat="36.77005" lon="-5.10517">
        <ele>781.7346</ele>
        <time>2021-07-16T11:22:12Z</time>
      </trkpt>
      <trkpt lat="36.77132" lon="-5.10285">
        <ele>783.9845</ele>
        <time>2021-07-16T11:22:23Z</time>
      </trkpt>
      <trkpt lat="36.77232" lon="-5.10012">
        <ele>795.5882</ele>
        <time>2021-07-16T11:22:34Z</time>
      </trkpt>
      <trkpt lat="36.77325" lon="-5.09734">
        <ele>808.7761</ele>
        <time>2021-07-16T11:22:45Z</time>
      </trkpt>
      <trkpt lat="36.7741" lon="-5.0952">
        <ele>823.3303</ele>
        <time>2021-07-16T11:22:56Z</time>
      </trkpt>
      <trkpt lat="36.77536" lon="-5.09372">
        <ele>835.9657</ele>
        <time>2021-07-16T11:23:07Z</time>
      </trkpt>
      <trkpt lat="36.77729" lon="-5.09317">
        <ele>850.0643</ele>
        <time>2021-07-16T11:23:18Z</time>
      </trkpt>
      <trkpt lat="36.77732" lon="-5.09153">
        <ele>860.1751</ele>
        <time>2021-07-16T11:23:29Z</time>
      </trkpt>
      <trkpt lat="36.77568" lon="-5.08978">
        <ele>861.9577</ele>
        <time>2021-07-16T11:23:40Z</time>
      </trkpt>
      <trkpt lat="36.77411" lon="-5.08815">
        <ele>864.6924</ele>
        <time>2021-07-16T11:23:51Z</time>
      </trkpt>
      <trkpt lat="36.77241" lon="-5.08653">
        <ele>871.836</ele>
        <time>2021-07-16T11:24:02Z</time>
      </trkpt>
      <trkpt lat="36.77264" lon="-5.08516">
        <ele>873.5278</ele>
        <time>2021-07-16T11:24:13Z</time>
      </trkpt>
      <trkpt lat="36.77329" lon="-5.08306">
        <ele>889.8537</ele>
        <time>2021-07-16T11:24:24Z</time>
      </trkpt>
      <trkpt lat="36.77356" lon="-5.08096">
        <ele>908.5003</ele>
        <time>2021-07-16T11:24:35Z</time>
      </trkpt>
      <trkpt lat="36.77318" lon="-5.07904">
        <ele>923.6585</ele>
        <time>2021-07-16T11:24:46Z</time>
      </trkpt>
      <trkpt lat="36.77388" lon="-5.07719">
        <ele>940.9152</ele>
        <time>2021-07-16T11:24:57Z</time>
      </trkpt>
      <trkpt lat="36.77538" lon="-5.07685">
        <ele>934.2174</ele>
        <time>2021-07-16T11:25:08Z</time>
      </trkpt>
      <trkpt lat="36.77603" lon="-5.07477">
        <ele>927.6441</ele>
        <time>2021-07-16T11:25:19Z</time>
      </trkpt>
      <trkpt lat="36.77669" lon="-5.0723">
        <ele>930.7556</ele>
        <time>2021-07-16T11:25:30Z</time>
      </trkpt>
      <trkpt lat="36.77712" lon="-5.06956">
        <ele>941.7819</ele>
        <time>2021-07-16T11:25:41Z</time>
      </trkpt>
      <trkpt lat="36.77753" lon="-5.06678">
        <ele>949.371</ele>
        <time>2021-07-16T11:25:52Z</time>
      </trkpt>
      <trkpt lat="36.77892" lon="-5.06474">
        <ele>956.2298</ele>
        <time>2021-07-16T11:26:03Z</time>
      </trkpt>
      <trkpt lat="36.77962" lon="-5.06276">
        <ele>960.3009</ele>
        <time>2021-07-16T11:26:14Z</time>
      </trkpt>
      <trkpt lat="36.78067" lon="-5.06054">
        <ele>961.2894</ele>
        <time>2021-07-16T11:26:25Z</time>
      </trkpt>
      <trkpt lat="36.78213" lon="-5.05861">
        <ele>972.3913</ele>
        <time>2021-07-16T11:26:36Z</time>
      </trkpt>
      <trkpt lat="36.78328" lon="-5.05653">
        <ele>978.1302</ele>
        <time>2021-07-16T11:26:47Z</time>
      </trkpt>
      <trkpt lat="36.78463" lon="-5.05575">
        <ele>987.0499</ele>
        <time>2021-07-16T11:26:58Z</time>
      </trkpt>
      <trkpt lat="36.78629" lon="-5.05483">
        <ele>998.8521</ele>
        <time>2021-07-16T11:27:09Z</time>
      </trkpt>
      <trkpt lat="36.78686" lon="-5.0531">
        <ele>1008.572</ele>
        <time>2021-07-16T11:27:20Z</time>
      </trkpt>
      <trkpt lat="36.78745" lon="-5.05107">
        <ele>1025.98</ele>
        <time>2021-07-16T11:27:31Z</time>
      </trkpt>
      <trkpt lat="36.78658" lon="-5.0495">
        <ele>1039.342</ele>
        <time>2021-07-16T11:27:42Z</time>
      </trkpt>
      <trkpt lat="36.78605" lon="-5.04827">
        <ele>1042.851</ele>
        <time>2021-07-16T11:27:53Z</time>
      </trkpt>
      <trkpt lat="36.78742" lon="-5.04904">
        <ele>1056.013</ele>
        <time>2021-07-16T11:28:04Z</time>
      </trkpt>
      <trkpt lat="36.78875" lon="-5.04855">
        <ele>1066.437</ele>
        <time>2021-07-16T11:28:15Z</time>
      </trkpt>
      <trkpt lat="36.78891" lon="-5.04698">
        <ele>1057.142</ele>
        <time>2021-07-16T11:28:26Z</time>
      </trkpt>
      <trkpt lat="36.78858" lon="-5.0452">
        <ele>1047.694</ele>
        <time>2021-07-16T11:28:37Z</time>
      </trkpt>
      <trkpt lat="36.78961" lon="-5.04294">
        <ele>1029.7</ele>
        <time>2021-07-16T11:28:48Z</time>
      </trkpt>
      <trkpt lat="36.7908" lon="-5.04103">
        <ele>1013.221</ele>
        <time>2021-07-16T11:28:59Z</time>
      </trkpt>
      <trkpt lat="36.79112" lon="-5.03879">
        <ele>996.2756</ele>
        <time>2021-07-16T11:29:10Z</time>
      </trkpt>
      <trkpt lat="36.79167" lon="-5.03646">
        <ele>984.6707</ele>
        <time>2021-07-16T11:29:21Z</time>
      </trkpt>
      <trkpt lat="36.79298" lon="-5.03511">
        <ele>985.8588</ele>
        <time>2021-07-16T11:29:32Z</time>
      </trkpt>
      <trkpt lat="36.79379" lon="-5.03327">
        <ele>982.5353</ele>
        <time>2021-07-16T11:29:43Z</time>
      </trkpt>
      <trkpt lat="36.79482" lon="-5.03127">
        <ele>975.2063</ele>
        <time>2021-07-16T11:29:54Z</time>
      </trkpt>
      <trkpt lat="36.79564" lon="-5.02932">
        <ele>966.7837</ele>
        <time>2021-07-16T11:30:05Z</time>
      </trkpt>
      <trkpt lat="36.79631" lon="-5.02745">
        <ele>963.169</ele>
        <time>2021-07-16T11:30:16Z</time>
      </trkpt>
      <trkpt lat="36.79744" lon="-5.02675">
        <ele>958.3466</ele>
        <time>2021-07-16T11:30:27Z</time>
      </trkpt>
      <trkpt lat="36.79872" lon="-5.02593">
        <ele>946.4945</ele>
        <time>2021-07-16T11:30:38Z</time>
      </trkpt>
      <trkpt lat="36.79838" lon="-5.02433">
        <ele>934.829</ele>
        <time>2021-07-16T11:30:49Z</time>
      </trkpt>
      <trkpt lat="36.7988" lon="-5.02234">
        <ele>922.8859</ele>
        <time>2021-07-16T11:31:00Z</time>
      </trkpt>
      <trkpt lat="36.79933" lon="-5.0205">
        <ele>913.4594</ele>
        <time>2021-07-16T11:31:11Z</time>
      </trkpt>
      <trkpt lat="36.79964" lon="-5.01865">
        <ele>902.8976</ele>
        <time>2021-07-16T11:31:22Z</time>
      </trkpt>
      <trkpt lat="36.8004" lon="-5.01696">
        <ele>891.1569</ele>
        <time>2021-07-16T11:31:33Z</time>
      </trkpt>
      <trkpt lat="36.80105" lon="-5.01492">
        <ele>880.4694</ele>
        <time>2021-07-16T11:31:44Z</time>
      </trkpt>
      <trkpt lat="36.80127" lon="-5.01288">
        <ele>881.5296</ele>
        <time>2021-07-16T11:31:55Z</time>
      </trkpt>
      <trkpt lat="36.80009" lon="-5.01181">
        <ele>896.4884</ele>
        <time>2021-07-16T11:32:06Z</time>
      </trkpt>
      <trkpt lat="36.79865" lon="-5.01094">
        <ele>905.0542</ele>
        <time>2021-07-16T11:32:17Z</time>
      </trkpt>
      <trkpt lat="36.79769" lon="-5.00957">
        <ele>915.2457</ele>
        <time>2021-07-16T11:32:28Z</time>
      </trkpt>
      <trkpt lat="36.7979" lon="-5.00848">
        <ele>923.6631</ele>
        <time>2021-07-16T11:32:39Z</time>
      </trkpt>
      <trkpt lat="36.79651" lon="-5.00762">
        <ele>932.7788</ele>
        <time>2021-07-16T11:32:50Z</time>
      </trkpt>
      <trkpt lat="36.7954" lon="-5.00541">
        <ele>936.2382</ele>
        <time>2021-07-16T11:33:01Z</time>
      </trkpt>
      <trkpt lat="36.79441" lon="-5.00284">
        <ele>937.9908</ele>
        <time>2021-07-16T11:33:12Z</time>
      </trkpt>
      <trkpt lat="36.79395" lon="-5.00002">
        <ele>944.6511</ele>
        <time>2021-07-16T11:33:23Z</time>
      </trkpt>
      <trkpt lat="36.79295" lon="-4.99827">
        <ele>957.2992</ele>
        <time>2021-07-16T11:33:34Z</time>
      </trkpt>
      <trkpt lat="36.791" lon="-4.9973">
        <ele>965.834</ele>
        <time>2021-07-16T11:33:45Z</time>
      </trkpt>
      <trkpt lat="36.78961" lon="-4.99517">
        <ele>974.7575</ele>
        <time>2021-07-16T11:33:56Z</time>
      </trkpt>
      <trkpt lat="36.78881" lon="-4.99294">
        <ele>971.4557</ele>
        <time>2021-07-16T11:34:07Z</time>
      </trkpt>
      <trkpt lat="36.78808" lon="-4.99246">
        <ele>965.0703</ele>
        <time>2021-07-16T11:34:18Z</time>
      </trkpt>
      <trkpt lat="36.78676" lon="-4.99264">
        <ele>960.0294</ele>
        <time>2021-07-16T11:34:29Z</time>
      </trkpt>
      <trkpt lat="36.78538" lon="-4.9931">
        <ele>946.1965</ele>
        <time>2021-07-16T11:34:40Z</time>
      </trkpt>
      <trkpt lat="36.78431" lon="-4.99449">
        <ele>934.7557</ele>
        <time>2021-07-16T11:34:51Z</time>
      </trkpt>
      <trkpt lat="36.783" lon="-4.99509">
        <ele>923.0592</ele>
        <time>2021-07-16T11:35:02Z</time>
      </trkpt>
      <trkpt lat="36.78284" lon="-4.99386">
        <ele>915.6659</ele>
        <time>2021-07-16T11:35:13Z</time>
      </trkpt>
      <trkpt lat="36.78172" lon="-4.99336">
        <ele>913.3005</ele>
        <time>2021-07-16T11:35:24Z</time>
      </trkpt>
      <trkpt lat="36.78039" lon="-4.99354">
        <ele>903.3039</ele>
        <time>2021-07-16T11:35:35Z</time>
      </trkpt>
      <trkpt lat="36.78035" lon="-4.99189">
        <ele>903.1423</ele>
        <time>2021-07-16T11:35:46Z</time>
      </trkpt>
      <trkpt lat="36.78072" lon="-4.99015">
        <ele>908.5782</ele>
        <time>2021-07-16T11:35:57Z</time>
      </trkpt>
      <trkpt lat="36.78139" lon="-4.98858">
        <ele>906.3523</ele>
        <time>2021-07-16T11:36:08Z</time>
      </trkpt>
      <trkpt lat="36.78223" lon="-4.98746">
        <ele>896.9709</ele>
        <time>2021-07-16T11:36:19Z</time>
      </trkpt>
      <trkpt lat="36.78332" lon="-4.98689">
        <ele>886.0352</ele>
        <time>2021-07-16T11:36:30Z</time>
      </trkpt>
      <trkpt lat="36.78344" lon="-4.98673">
        <ele>885.4453</ele>
        <time>2021-07-16T11:36:41Z</time>
      </trkpt>
      <trkpt lat="36.78295" lon="-4.98712">
        <ele>894.0126</ele>
        <time>2021-07-16T11:36:52Z</time>
      </trkpt>
      <trkpt lat="36.78201" lon="-4.98764">
        <ele>902.0441</ele>
        <time>2021-07-16T11:37:03Z</time>
      </trkpt>
      <trkpt lat="36.78187" lon="-4.98739">
        <ele>902.7771</ele>
        <time>2021-07-16T11:37:14Z</time>
      </trkpt>
      <trkpt lat="36.78185" lon="-4.98742">
        <ele>897.785</ele>
        <time>2021-07-16T11:37:56Z</time>
      </trkpt>
      <trkpt lat="36.78184" lon="-4.98733">
        <ele>896.6175</ele>
        <time>2021-07-16T11:38:07Z</time>
      </trkpt>
      <trkpt lat="36.78178" lon="-4.9872">
        <ele>900.4479</ele>
        <time>2021-07-16T11:38:18Z</time>
      </trkpt>
      <trkpt lat="36.78175" lon="-4.98708">
        <ele>905.2747</ele>
        <time>2021-07-16T11:38:29Z</time>
      </trkpt>
      <trkpt lat="36.78169" lon="-4.98693">
        <ele>909.5022</ele>
        <time>2021-07-16T11:38:40Z</time>
      </trkpt>
      <trkpt lat="36.78168" lon="-4.98677">
        <ele>911.0584</ele>
        <time>2021-07-16T11:38:51Z</time>
      </trkpt>
      <trkpt lat="36.78168" lon="-4.98661">
        <ele>913.052</ele>
        <time>2021-07-16T11:39:02Z</time>
      </trkpt>
      <trkpt lat="36.78172" lon="-4.98647">
        <ele>912.7379</ele>
        <time>2021-07-16T11:39:13Z</time>
      </trkpt>
      <trkpt lat="36.78174" lon="-4.98633">
        <ele>914.1923</ele>
        <time>2021-07-16T11:39:24Z</time>
      </trkpt>
      <trkpt lat="36.78173" lon="-4.9862">
        <ele>915.7151</ele>
        <time>2021-07-16T11:39:35Z</time>
      </trkpt>
      <trkpt lat="36.78165" lon="-4.98622">
        <ele>914.8577</ele>
        <time>2021-07-16T11:39:46Z</time>
      </trkpt>
      <trkpt lat="36.78159" lon="-4.98634">
        <ele>917.1201</ele>
        <time>2021-07-16T11:39:57Z</time>
      </trkpt>
      <trkpt lat="36.78151" lon="-4.98642">
        <ele>918.8598</ele>
        <time>2021-07-16T11:40:08Z</time>
      </trkpt>
      <trkpt lat="36.7814" lon="-4.98647">
        <ele>920.1783</ele>
        <time>2021-07-16T11:40:19Z</time>
      </trkpt>
      <trkpt lat="36.78144" lon="-4.98654">
        <ele>921.1411</ele>
        <time>2021-07-16T11:40:30Z</time>
      </trkpt>
      <trkpt lat="36.78142" lon="-4.98655">
        <ele>920.45</ele>
        <time>2021-07-16T11:41:30Z</time>
      </trkpt>
      <trkpt lat="36.78144" lon="-4.98655">
        <ele>920.5351</ele>
        <time>2021-07-16T11:42:30Z</time>
      </trkpt>
      <trkpt lat="36.78144" lon="-4.98655">
        <ele>922.3885</ele>
        <time>2021-07-16T11:43:30Z</time>
      </trkpt>
      <trkpt lat="36.78144" lon="-4.98655">
        <ele>920.9576</ele>
        <time>2021-07-16T11:44:30Z</time>
      </trkpt>
      <trkpt lat="36.78141" lon="-4.9866">
        <ele>923.6499</ele>
        <time>2021-07-16T11:45:25Z</time>
      </trkpt>
      <trkpt lat="36.78139" lon="-4.98669">
        <ele>924.5044</ele>
        <time>2021-07-16T11:45:36Z</time>
      </trkpt>
      <trkpt lat="36.78137" lon="-4.9867">
        <ele>924.1386</ele>
        <time>2021-07-16T11:46:36Z</time>
      </trkpt>
      <trkpt lat="36.78136" lon="-4.9867">
        <ele>924.9455</ele>
        <time>2021-07-16T11:47:35Z</time>
      </trkpt>
      <trkpt lat="36.7814" lon="-4.98671">
        <ele>923.9775</ele>
        <time>2021-07-16T11:48:03Z</time>
      </trkpt>
      <trkpt lat="36.78135" lon="-4.98671">
        <ele>922.7078</ele>
        <time>2021-07-16T11:48:26Z</time>
      </trkpt>
      <trkpt lat="36.78126" lon="-4.98674">
        <ele>920.8275</ele>
        <time>2021-07-16T11:48:37Z</time>
      </trkpt>
      <trkpt lat="36.78119" lon="-4.98676">
        <ele>919.0306</ele>
        <time>2021-07-16T11:48:48Z</time>
      </trkpt>
      <trkpt lat="36.78126" lon="-4.98687">
        <ele>916.3761</ele>
        <time>2021-07-16T11:48:59Z</time>
      </trkpt>
      <trkpt lat="36.7812" lon="-4.98691">
        <ele>914.6069</ele>
        <time>2021-07-16T11:49:10Z</time>
      </trkpt>
      <trkpt lat="36.78123" lon="-4.98707">
        <ele>913.24</ele>
        <time>2021-07-16T11:49:21Z</time>
      </trkpt>
      <trkpt lat="36.7813" lon="-4.98722">
        <ele>906.4275</ele>
        <time>2021-07-16T11:49:32Z</time>
      </trkpt>
      <trkpt lat="36.78145" lon="-4.98723">
        <ele>904.3329</ele>
        <time>2021-07-16T11:49:43Z</time>
      </trkpt>
      <trkpt lat="36.78158" lon="-4.98723">
        <ele>901.0661</ele>
        <time>2021-07-16T11:49:54Z</time>
      </trkpt>
      <trkpt lat="36.78169" lon="-4.98734">
        <ele>898.0298</ele>
        <time>2021-07-16T11:50:05Z</time>
      </trkpt>
      <trkpt lat="36.78178" lon="-4.98739">
        <ele>895.1647</ele>
        <time>2021-07-16T11:50:16Z</time>
      </trkpt>
      <trkpt lat="36.78184" lon="-4.98743">
        <ele>897.3803</ele>
        <time>2021-07-16T11:50:27Z</time>
      </trkpt>
      <trkpt lat="36.78183" lon="-4.98737">
        <ele>899.1582</ele>
        <time>2021-07-16T11:50:38Z</time>
      </trkpt>
      <trkpt lat="36.78185" lon="-4.98733">
        <ele>900.7366</ele>
        <time>2021-07-16T11:51:00Z</time>
      </trkpt>
      <trkpt lat="36.78188" lon="-4.98736">
        <ele>902.8507</ele>
        <time>2021-07-16T11:51:34Z</time>
      </trkpt>
      <trkpt lat="36.78191" lon="-4.9874">
        <ele>902.3754</ele>
        <time>2021-07-16T11:52:18Z</time>
      </trkpt>
      <trkpt lat="36.78227" lon="-4.98739">
        <ele>901.2714</ele>
        <time>2021-07-16T11:52:29Z</time>
      </trkpt>
      <trkpt lat="36.78359" lon="-4.98643">
        <ele>886.6612</ele>
        <time>2021-07-16T11:52:40Z</time>
      </trkpt>
      <trkpt lat="36.78471" lon="-4.98611">
        <ele>881.9071</ele>
        <time>2021-07-16T11:52:51Z</time>
      </trkpt>
      <trkpt lat="36.78582" lon="-4.98607">
        <ele>880.3857</ele>
        <time>2021-07-16T11:53:02Z</time>
      </trkpt>
      <trkpt lat="36.7868" lon="-4.98555">
        <ele>879.6367</ele>
        <time>2021-07-16T11:53:13Z</time>
      </trkpt>
      <trkpt lat="36.78814" lon="-4.98511">
        <ele>869.453</ele>
        <time>2021-07-16T11:53:24Z</time>
      </trkpt>
      <trkpt lat="36.78927" lon="-4.98523">
        <ele>858.3399</ele>
        <time>2021-07-16T11:53:35Z</time>
      </trkpt>
      <trkpt lat="36.79013" lon="-4.98424">
        <ele>845.6574</ele>
        <time>2021-07-16T11:53:46Z</time>
      </trkpt>
      <trkpt lat="36.79032" lon="-4.98301">
        <ele>834.9502</ele>
        <time>2021-07-16T11:53:57Z</time>
      </trkpt>
      <trkpt lat="36.78923" lon="-4.9828">
        <ele>825.2219</ele>
        <time>2021-07-16T11:54:08Z</time>
      </trkpt>
      <trkpt lat="36.78764" lon="-4.98202">
        <ele>812.9996</ele>
        <time>2021-07-16T11:54:19Z</time>
      </trkpt>
      <trkpt lat="36.78706" lon="-4.98004">
        <ele>797.9856</ele>
        <time>2021-07-16T11:54:30Z</time>
      </trkpt>
      <trkpt lat="36.78659" lon="-4.97818">
        <ele>778.8979</ele>
        <time>2021-07-16T11:54:41Z</time>
      </trkpt>
      <trkpt lat="36.78718" lon="-4.97699">
        <ele>770.4424</ele>
        <time>2021-07-16T11:54:52Z</time>
      </trkpt>
      <trkpt lat="36.78757" lon="-4.97506">
        <ele>763.3434</ele>
        <time>2021-07-16T11:55:03Z</time>
      </trkpt>
      <trkpt lat="36.78849" lon="-4.97387">
        <ele>749.6961</ele>
        <time>2021-07-16T11:55:14Z</time>
      </trkpt>
      <trkpt lat="36.78956" lon="-4.97476">
        <ele>738.8764</ele>
        <time>2021-07-16T11:55:25Z</time>
      </trkpt>
      <trkpt lat="36.78981" lon="-4.97348">
        <ele>732.7769</ele>
        <time>2021-07-16T11:55:36Z</time>
      </trkpt>
      <trkpt lat="36.79064" lon="-4.97229">
        <ele>724.1117</ele>
        <time>2021-07-16T11:55:47Z</time>
      </trkpt>
      <trkpt lat="36.79182" lon="-4.97307">
        <ele>712.9106</ele>
        <time>2021-07-16T11:55:58Z</time>
      </trkpt>
      <trkpt lat="36.79259" lon="-4.97306">
        <ele>704.9184</ele>
        <time>2021-07-16T11:56:09Z</time>
      </trkpt>
      <trkpt lat="36.79266" lon="-4.97144">
        <ele>695.068</ele>
        <time>2021-07-16T11:56:20Z</time>
      </trkpt>
      <trkpt lat="36.7924" lon="-4.97036">
        <ele>685.1547</ele>
        <time>2021-07-16T11:56:31Z</time>
      </trkpt>
      <trkpt lat="36.79183" lon="-4.96914">
        <ele>674.2516</ele>
        <time>2021-07-16T11:56:42Z</time>
      </trkpt>
      <trkpt lat="36.79131" lon="-4.96776">
        <ele>662.9962</ele>
        <time>2021-07-16T11:56:53Z</time>
      </trkpt>
      <trkpt lat="36.79199" lon="-4.96628">
        <ele>648.9755</ele>
        <time>2021-07-16T11:57:04Z</time>
      </trkpt>
      <trkpt lat="36.79192" lon="-4.96496">
        <ele>638.6607</ele>
        <time>2021-07-16T11:57:15Z</time>
      </trkpt>
      <trkpt lat="36.79195" lon="-4.96324">
        <ele>629.9474</ele>
        <time>2021-07-16T11:57:26Z</time>
      </trkpt>
      <trkpt lat="36.79173" lon="-4.96128">
        <ele>622.5043</ele>
        <time>2021-07-16T11:57:37Z</time>
      </trkpt>
      <trkpt lat="36.79178" lon="-4.95976">
        <ele>611.0317</ele>
        <time>2021-07-16T11:57:48Z</time>
      </trkpt>
      <trkpt lat="36.7906" lon="-4.95894">
        <ele>600.3907</ele>
        <time>2021-07-16T11:57:59Z</time>
      </trkpt>
      <trkpt lat="36.79066" lon="-4.95735">
        <ele>588.3663</ele>
        <time>2021-07-16T11:58:10Z</time>
      </trkpt>
      <trkpt lat="36.79073" lon="-4.95623">
        <ele>578.5347</ele>
        <time>2021-07-16T11:58:21Z</time>
      </trkpt>
      <trkpt lat="36.79115" lon="-4.95466">
        <ele>569.5156</ele>
        <time>2021-07-16T11:58:32Z</time>
      </trkpt>
      <trkpt lat="36.79146" lon="-4.95314">
        <ele>556.4081</ele>
        <time>2021-07-16T11:58:43Z</time>
      </trkpt>
      <trkpt lat="36.79095" lon="-4.95155">
        <ele>557.866</ele>
        <time>2021-07-16T11:58:54Z</time>
      </trkpt>
      <trkpt lat="36.79043" lon="-4.95024">
        <ele>556.3552</ele>
        <time>2021-07-16T11:59:05Z</time>
      </trkpt>
      <trkpt lat="36.78935" lon="-4.94963">
        <ele>552.3655</ele>
        <time>2021-07-16T11:59:16Z</time>
      </trkpt>
      <trkpt lat="36.78803" lon="-4.94903">
        <ele>549.9665</ele>
        <time>2021-07-16T11:59:27Z</time>
      </trkpt>
      <trkpt lat="36.78692" lon="-4.94701">
        <ele>562.3349</ele>
        <time>2021-07-16T11:59:38Z</time>
      </trkpt>
      <trkpt lat="36.78514" lon="-4.94527">
        <ele>576.8701</ele>
        <time>2021-07-16T11:59:49Z</time>
      </trkpt>
      <trkpt lat="36.78387" lon="-4.94368">
        <ele>590.1223</ele>
        <time>2021-07-16T12:00:00Z</time>
      </trkpt>
      <trkpt lat="36.78337" lon="-4.94158">
        <ele>605.0801</ele>
        <time>2021-07-16T12:00:11Z</time>
      </trkpt>
      <trkpt lat="36.78162" lon="-4.94069">
        <ele>601.0412</ele>
        <time>2021-07-16T12:00:22Z</time>
      </trkpt>
      <trkpt lat="36.78039" lon="-4.9407">
        <ele>594.0659</ele>
        <time>2021-07-16T12:00:33Z</time>
      </trkpt>
      <trkpt lat="36.77925" lon="-4.94036">
        <ele>582.7559</ele>
        <time>2021-07-16T12:00:44Z</time>
      </trkpt>
      <trkpt lat="36.77791" lon="-4.94065">
        <ele>574.7376</ele>
        <time>2021-07-16T12:00:55Z</time>
      </trkpt>
      <trkpt lat="36.77642" lon="-4.93935">
        <ele>580.1973</ele>
        <time>2021-07-16T12:01:06Z</time>
      </trkpt>
      <trkpt lat="36.77495" lon="-4.93795">
        <ele>582.6419</ele>
        <time>2021-07-16T12:01:17Z</time>
      </trkpt>
      <trkpt lat="36.7728" lon="-4.93781">
        <ele>588.0811</ele>
        <time>2021-07-16T12:01:28Z</time>
      </trkpt>
      <trkpt lat="36.77053" lon="-4.93735">
        <ele>601.44</ele>
        <time>2021-07-16T12:01:39Z</time>
      </trkpt>
      <trkpt lat="36.76815" lon="-4.93668">
        <ele>618.1069</ele>
        <time>2021-07-16T12:01:50Z</time>
      </trkpt>
      <trkpt lat="36.76694" lon="-4.93463">
        <ele>624.6353</ele>
        <time>2021-07-16T12:02:01Z</time>
      </trkpt>
      <trkpt lat="36.76548" lon="-4.93343">
        <ele>631.3109</ele>
        <time>2021-07-16T12:02:12Z</time>
      </trkpt>
      <trkpt lat="36.76441" lon="-4.93296">
        <ele>629.4947</ele>
        <time>2021-07-16T12:02:23Z</time>
      </trkpt>
      <trkpt lat="36.76371" lon="-4.93459">
        <ele>638.8873</ele>
        <time>2021-07-16T12:02:34Z</time>
      </trkpt>
      <trkpt lat="36.76271" lon="-4.93595">
        <ele>646.3468</ele>
        <time>2021-07-16T12:02:45Z</time>
      </trkpt>
      <trkpt lat="36.76126" lon="-4.93698">
        <ele>656.0193</ele>
        <time>2021-07-16T12:02:56Z</time>
      </trkpt>
      <trkpt lat="36.75984" lon="-4.93722">
        <ele>664.9549</ele>
        <time>2021-07-16T12:03:07Z</time>
      </trkpt>
      <trkpt lat="36.75853" lon="-4.93781">
        <ele>677.1987</ele>
        <time>2021-07-16T12:03:18Z</time>
      </trkpt>
      <trkpt lat="36.75731" lon="-4.93725">
        <ele>687.4203</ele>
        <time>2021-07-16T12:03:29Z</time>
      </trkpt>
      <trkpt lat="36.75813" lon="-4.93615">
        <ele>698.8083</ele>
        <time>2021-07-16T12:03:40Z</time>
      </trkpt>
      <trkpt lat="36.75785" lon="-4.93549">
        <ele>707.4698</ele>
        <time>2021-07-16T12:03:51Z</time>
      </trkpt>
      <trkpt lat="36.75782" lon="-4.93419">
        <ele>717.2625</ele>
        <time>2021-07-16T12:04:02Z</time>
      </trkpt>
      <trkpt lat="36.75676" lon="-4.93384">
        <ele>725.0496</ele>
        <time>2021-07-16T12:04:13Z</time>
      </trkpt>
      <trkpt lat="36.75692" lon="-4.93217">
        <ele>736.0436</ele>
        <time>2021-07-16T12:04:24Z</time>
      </trkpt>
      <trkpt lat="36.75594" lon="-4.93076">
        <ele>746.8243</ele>
        <time>2021-07-16T12:04:35Z</time>
      </trkpt>
      <trkpt lat="36.75455" lon="-4.93059">
        <ele>760.3933</ele>
        <time>2021-07-16T12:04:46Z</time>
      </trkpt>
      <trkpt lat="36.75336" lon="-4.93036">
        <ele>770.0372</ele>
        <time>2021-07-16T12:04:57Z</time>
      </trkpt>
      <trkpt lat="36.7521" lon="-4.93007">
        <ele>774.194</ele>
        <time>2021-07-16T12:05:08Z</time>
      </trkpt>
      <trkpt lat="36.75096" lon="-4.92943">
        <ele>783.7526</ele>
        <time>2021-07-16T12:05:19Z</time>
      </trkpt>
      <trkpt lat="36.74989" lon="-4.92899">
        <ele>791.0561</ele>
        <time>2021-07-16T12:05:30Z</time>
      </trkpt>
      <trkpt lat="36.74843" lon="-4.92917">
        <ele>799.4491</ele>
        <time>2021-07-16T12:05:41Z</time>
      </trkpt>
      <trkpt lat="36.74708" lon="-4.92985">
        <ele>808.2163</ele>
        <time>2021-07-16T12:05:52Z</time>
      </trkpt>
      <trkpt lat="36.74649" lon="-4.92833">
        <ele>819.6713</ele>
        <time>2021-07-16T12:06:03Z</time>
      </trkpt>
      <trkpt lat="36.74539" lon="-4.92804">
        <ele>816.8055</ele>
        <time>2021-07-16T12:06:14Z</time>
      </trkpt>
      <trkpt lat="36.74443" lon="-4.92858">
        <ele>808.0137</ele>
        <time>2021-07-16T12:06:25Z</time>
      </trkpt>
      <trkpt lat="36.74295" lon="-4.92695">
        <ele>792.71</ele>
        <time>2021-07-16T12:06:36Z</time>
      </trkpt>
      <trkpt lat="36.74293" lon="-4.92516">
        <ele>778.4878</ele>
        <time>2021-07-16T12:06:47Z</time>
      </trkpt>
      <trkpt lat="36.74367" lon="-4.92426">
        <ele>771.6759</ele>
        <time>2021-07-16T12:06:58Z</time>
      </trkpt>
      <trkpt lat="36.74175" lon="-4.92414">
        <ele>760.1413</ele>
        <time>2021-07-16T12:07:09Z</time>
      </trkpt>
      <trkpt lat="36.74039" lon="-4.92424">
        <ele>751.2017</ele>
        <time>2021-07-16T12:07:20Z</time>
      </trkpt>
      <trkpt lat="36.73885" lon="-4.9232">
        <ele>738.8564</ele>
        <time>2021-07-16T12:07:31Z</time>
      </trkpt>
      <trkpt lat="36.73816" lon="-4.92233">
        <ele>734.3162</ele>
        <time>2021-07-16T12:07:42Z</time>
      </trkpt>
      <trkpt lat="36.73776" lon="-4.92069">
        <ele>726.2426</ele>
        <time>2021-07-16T12:07:53Z</time>
      </trkpt>
      <trkpt lat="36.73701" lon="-4.9195">
        <ele>715.896</ele>
        <time>2021-07-16T12:08:04Z</time>
      </trkpt>
      <trkpt lat="36.73596" lon="-4.92011">
        <ele>707.5705</ele>
        <time>2021-07-16T12:08:15Z</time>
      </trkpt>
      <trkpt lat="36.7359" lon="-4.91871">
        <ele>703.5432</ele>
        <time>2021-07-16T12:08:26Z</time>
      </trkpt>
      <trkpt lat="36.73588" lon="-4.918">
        <ele>700.3412</ele>
        <time>2021-07-16T12:08:37Z</time>
      </trkpt>
      <trkpt lat="36.73538" lon="-4.91725">
        <ele>696.3962</ele>
        <time>2021-07-16T12:08:48Z</time>
      </trkpt>
      <trkpt lat="36.73459" lon="-4.91607">
        <ele>693.0267</ele>
        <time>2021-07-16T12:08:59Z</time>
      </trkpt>
      <trkpt lat="36.73321" lon="-4.91535">
        <ele>686.6861</ele>
        <time>2021-07-16T12:09:10Z</time>
      </trkpt>
      <trkpt lat="36.73206" lon="-4.91499">
        <ele>680.0241</ele>
        <time>2021-07-16T12:09:21Z</time>
      </trkpt>
      <trkpt lat="36.73247" lon="-4.91374">
        <ele>670.1313</ele>
        <time>2021-07-16T12:09:32Z</time>
      </trkpt>
      <trkpt lat="36.73297" lon="-4.91217">
        <ele>662.0442</ele>
        <time>2021-07-16T12:09:43Z</time>
      </trkpt>
      <trkpt lat="36.73356" lon="-4.91062">
        <ele>656.038</ele>
        <time>2021-07-16T12:09:54Z</time>
      </trkpt>
      <trkpt lat="36.73405" lon="-4.90923">
        <ele>653.3927</ele>
        <time>2021-07-16T12:10:05Z</time>
      </trkpt>
      <trkpt lat="36.73312" lon="-4.90833">
        <ele>643.794</ele>
        <time>2021-07-16T12:10:16Z</time>
      </trkpt>
      <trkpt lat="36.73159" lon="-4.90888">
        <ele>632.6261</ele>
        <time>2021-07-16T12:10:27Z</time>
      </trkpt>
      <trkpt lat="36.73135" lon="-4.90821">
        <ele>621.8519</ele>
        <time>2021-07-16T12:10:38Z</time>
      </trkpt>
      <trkpt lat="36.73228" lon="-4.90719">
        <ele>616.6567</ele>
        <time>2021-07-16T12:10:49Z</time>
      </trkpt>
      <trkpt lat="36.73363" lon="-4.90756">
        <ele>607.7258</ele>
        <time>2021-07-16T12:11:00Z</time>
      </trkpt>
      <trkpt lat="36.73337" lon="-4.90648">
        <ele>606.8157</ele>
        <time>2021-07-16T12:11:11Z</time>
      </trkpt>
      <trkpt lat="36.7339" lon="-4.90464">
        <ele>610.81</ele>
        <time>2021-07-16T12:11:22Z</time>
      </trkpt>
      <trkpt lat="36.73524" lon="-4.90352">
        <ele>599.557</ele>
        <time>2021-07-16T12:11:33Z</time>
      </trkpt>
      <trkpt lat="36.73518" lon="-4.90286">
        <ele>600.2937</ele>
        <time>2021-07-16T12:11:44Z</time>
      </trkpt>
      <trkpt lat="36.73427" lon="-4.90253">
        <ele>601.7023</ele>
        <time>2021-07-16T12:11:55Z</time>
      </trkpt>
      <trkpt lat="36.73424" lon="-4.90091">
        <ele>598.1777</ele>
        <time>2021-07-16T12:12:06Z</time>
      </trkpt>
      <trkpt lat="36.73491" lon="-4.90004">
        <ele>593.8669</ele>
        <time>2021-07-16T12:12:17Z</time>
      </trkpt>
      <trkpt lat="36.73582" lon="-4.89923">
        <ele>583.9562</ele>
        <time>2021-07-16T12:12:28Z</time>
      </trkpt>
      <trkpt lat="36.73548" lon="-4.89753">
        <ele>572.0716</ele>
        <time>2021-07-16T12:12:39Z</time>
      </trkpt>
      <trkpt lat="36.73612" lon="-4.89648">
        <ele>562.7233</ele>
        <time>2021-07-16T12:12:50Z</time>
      </trkpt>
      <trkpt lat="36.73566" lon="-4.8953">
        <ele>563.2589</ele>
        <time>2021-07-16T12:13:01Z</time>
      </trkpt>
      <trkpt lat="36.73479" lon="-4.89351">
        <ele>561.719</ele>
        <time>2021-07-16T12:13:12Z</time>
      </trkpt>
      <trkpt lat="36.7346" lon="-4.89157">
        <ele>557.7196</ele>
        <time>2021-07-16T12:13:23Z</time>
      </trkpt>
      <trkpt lat="36.73545" lon="-4.8902">
        <ele>545.8466</ele>
        <time>2021-07-16T12:13:34Z</time>
      </trkpt>
      <trkpt lat="36.73548" lon="-4.88901">
        <ele>547.9868</ele>
        <time>2021-07-16T12:13:45Z</time>
      </trkpt>
      <trkpt lat="36.73508" lon="-4.88722">
        <ele>553.5235</ele>
        <time>2021-07-16T12:13:56Z</time>
      </trkpt>
      <trkpt lat="36.73487" lon="-4.88582">
        <ele>556.7176</ele>
        <time>2021-07-16T12:14:07Z</time>
      </trkpt>
      <trkpt lat="36.73408" lon="-4.88411">
        <ele>565.0577</ele>
        <time>2021-07-16T12:14:18Z</time>
      </trkpt>
      <trkpt lat="36.73391" lon="-4.88249">
        <ele>571.8779</ele>
        <time>2021-07-16T12:14:29Z</time>
      </trkpt>
      <trkpt lat="36.73499" lon="-4.88278">
        <ele>568.1514</ele>
        <time>2021-07-16T12:14:40Z</time>
      </trkpt>
      <trkpt lat="36.73563" lon="-4.88066">
        <ele>556.421</ele>
        <time>2021-07-16T12:14:51Z</time>
      </trkpt>
      <trkpt lat="36.73637" lon="-4.88101">
        <ele>551.667</ele>
        <time>2021-07-16T12:15:03Z</time>
      </trkpt>
      <trkpt lat="36.73732" lon="-4.88057">
        <ele>552.0751</ele>
        <time>2021-07-16T12:15:14Z</time>
      </trkpt>
      <trkpt lat="36.73863" lon="-4.88107">
        <ele>538.8145</ele>
        <time>2021-07-16T12:15:25Z</time>
      </trkpt>
      <trkpt lat="36.73841" lon="-4.87952">
        <ele>522.1165</ele>
        <time>2021-07-16T12:15:36Z</time>
      </trkpt>
      <trkpt lat="36.73949" lon="-4.87844">
        <ele>511.9868</ele>
        <time>2021-07-16T12:15:47Z</time>
      </trkpt>
      <trkpt lat="36.73833" lon="-4.87783">
        <ele>507.8515</ele>
        <time>2021-07-16T12:15:58Z</time>
      </trkpt>
      <trkpt lat="36.73723" lon="-4.87678">
        <ele>495.3298</ele>
        <time>2021-07-16T12:16:09Z</time>
      </trkpt>
      <trkpt lat="36.73588" lon="-4.87674">
        <ele>487.93</ele>
        <time>2021-07-16T12:16:20Z</time>
      </trkpt>
      <trkpt lat="36.73674" lon="-4.875">
        <ele>484.013</ele>
        <time>2021-07-16T12:16:31Z</time>
      </trkpt>
      <trkpt lat="36.73696" lon="-4.87386">
        <ele>475.767</ele>
        <time>2021-07-16T12:16:42Z</time>
      </trkpt>
      <trkpt lat="36.73516" lon="-4.87441">
        <ele>463.4753</ele>
        <time>2021-07-16T12:16:53Z</time>
      </trkpt>
      <trkpt lat="36.73402" lon="-4.87363">
        <ele>450.5545</ele>
        <time>2021-07-16T12:17:04Z</time>
      </trkpt>
      <trkpt lat="36.73306" lon="-4.87333">
        <ele>428.3988</ele>
        <time>2021-07-16T12:17:15Z</time>
      </trkpt>
      <trkpt lat="36.73178" lon="-4.87256">
        <ele>433.2407</ele>
        <time>2021-07-16T12:17:26Z</time>
      </trkpt>
      <trkpt lat="36.73067" lon="-4.87083">
        <ele>417.5514</ele>
        <time>2021-07-16T12:17:37Z</time>
      </trkpt>
      <trkpt lat="36.73012" lon="-4.86915">
        <ele>406.1085</ele>
        <time>2021-07-16T12:17:48Z</time>
      </trkpt>
      <trkpt lat="36.72912" lon="-4.86798">
        <ele>396.8718</ele>
        <time>2021-07-16T12:17:59Z</time>
      </trkpt>
      <trkpt lat="36.72965" lon="-4.86646">
        <ele>392.467</ele>
        <time>2021-07-16T12:18:10Z</time>
      </trkpt>
      <trkpt lat="36.72931" lon="-4.86506">
        <ele>380.9006</ele>
        <time>2021-07-16T12:18:21Z</time>
      </trkpt>
      <trkpt lat="36.7293" lon="-4.86472">
        <ele>377.4725</ele>
        <time>2021-07-16T12:18:32Z</time>
      </trkpt>
      <trkpt lat="36.72942" lon="-4.86474">
        <ele>378.9643</ele>
        <time>2021-07-16T12:18:43Z</time>
      </trkpt>
      <trkpt lat="36.72902" lon="-4.86469">
        <ele>378.3715</ele>
        <time>2021-07-16T12:18:54Z</time>
      </trkpt>
      <trkpt lat="36.7286" lon="-4.86382">
        <ele>381.0886</ele>
        <time>2021-07-16T12:19:05Z</time>
      </trkpt>
      <trkpt lat="36.72803" lon="-4.86311">
        <ele>381.5571</ele>
        <time>2021-07-16T12:19:16Z</time>
      </trkpt>
      <trkpt lat="36.72747" lon="-4.86231">
        <ele>379.9272</ele>
        <time>2021-07-16T12:19:27Z</time>
      </trkpt>
      <trkpt lat="36.72733" lon="-4.86121">
        <ele>381.5027</ele>
        <time>2021-07-16T12:19:38Z</time>
      </trkpt>
      <trkpt lat="36.72748" lon="-4.86002">
        <ele>382.2615</ele>
        <time>2021-07-16T12:19:49Z</time>
      </trkpt>
      <trkpt lat="36.72788" lon="-4.85924">
        <ele>379.2228</ele>
        <time>2021-07-16T12:20:00Z</time>
      </trkpt>
      <trkpt lat="36.72806" lon="-4.85866">
        <ele>374.8005</ele>
        <time>2021-07-16T12:20:11Z</time>
      </trkpt>
      <trkpt lat="36.72812" lon="-4.85788">
        <ele>373.8125</ele>
        <time>2021-07-16T12:20:22Z</time>
      </trkpt>
      <trkpt lat="36.72798" lon="-4.85717">
        <ele>371.394</ele>
        <time>2021-07-16T12:20:33Z</time>
      </trkpt>
      <trkpt lat="36.72797" lon="-4.85677">
        <ele>369.4051</ele>
        <time>2021-07-16T12:20:44Z</time>
      </trkpt>
      <trkpt lat="36.72805" lon="-4.85664">
        <ele>376.6075</ele>
        <time>2021-07-16T12:20:55Z</time>
      </trkpt>
      <trkpt lat="36.72823" lon="-4.85692">
        <ele>374.1521</ele>
        <time>2021-07-16T12:21:06Z</time>
      </trkpt>
      <trkpt lat="36.72841" lon="-4.85729">
        <ele>373.6818</ele>
        <time>2021-07-16T12:21:17Z</time>
      </trkpt>
      <trkpt lat="36.72867" lon="-4.85761">
        <ele>367.5164</ele>
        <time>2021-07-16T12:21:28Z</time>
      </trkpt>
      <trkpt lat="36.72906" lon="-4.85797">
        <ele>357.7675</ele>
        <time>2021-07-16T12:21:39Z</time>
      </trkpt>
      <trkpt lat="36.72931" lon="-4.85835">
        <ele>355.8488</ele>
        <time>2021-07-16T12:21:50Z</time>
      </trkpt>
      <trkpt lat="36.72958" lon="-4.85874">
        <ele>352.5969</ele>
        <time>2021-07-16T12:22:01Z</time>
      </trkpt>
      <trkpt lat="36.73007" lon="-4.85914">
        <ele>344.8586</ele>
        <time>2021-07-16T12:22:12Z</time>
      </trkpt>
      <trkpt lat="36.7305" lon="-4.8588">
        <ele>341.7574</ele>
        <time>2021-07-16T12:22:23Z</time>
      </trkpt>
      <trkpt lat="36.73042" lon="-4.85731">
        <ele>334.285</ele>
        <time>2021-07-16T12:22:34Z</time>
      </trkpt>
      <trkpt lat="36.73058" lon="-4.85582">
        <ele>335.4029</ele>
        <time>2021-07-16T12:22:45Z</time>
      </trkpt>
      <trkpt lat="36.73154" lon="-4.85414">
        <ele>342.7421</ele>
        <time>2021-07-16T12:22:56Z</time>
      </trkpt>
      <trkpt lat="36.73298" lon="-4.85258">
        <ele>351.3801</ele>
        <time>2021-07-16T12:23:07Z</time>
      </trkpt>
      <trkpt lat="36.73381" lon="-4.85038">
        <ele>346.1649</ele>
        <time>2021-07-16T12:23:18Z</time>
      </trkpt>
      <trkpt lat="36.73462" lon="-4.84849">
        <ele>344.4916</ele>
        <time>2021-07-16T12:23:29Z</time>
      </trkpt>
      <trkpt lat="36.73589" lon="-4.84634">
        <ele>352.9759</ele>
        <time>2021-07-16T12:23:40Z</time>
      </trkpt>
      <trkpt lat="36.73729" lon="-4.84482">
        <ele>351.725</ele>
        <time>2021-07-16T12:23:51Z</time>
      </trkpt>
      <trkpt lat="36.73756" lon="-4.84311">
        <ele>356.806</ele>
        <time>2021-07-16T12:24:02Z</time>
      </trkpt>
      <trkpt lat="36.73848" lon="-4.84145">
        <ele>344.9259</ele>
        <time>2021-07-16T12:24:13Z</time>
      </trkpt>
      <trkpt lat="36.73918" lon="-4.8397">
        <ele>340.9108</ele>
        <time>2021-07-16T12:24:24Z</time>
      </trkpt>
      <trkpt lat="36.73894" lon="-4.8374">
        <ele>330.1134</ele>
        <time>2021-07-16T12:24:35Z</time>
      </trkpt>
      <trkpt lat="36.73901" lon="-4.83512">
        <ele>314.0148</ele>
        <time>2021-07-16T12:24:46Z</time>
      </trkpt>
      <trkpt lat="36.73862" lon="-4.83223">
        <ele>304.8063</ele>
        <time>2021-07-16T12:24:57Z</time>
      </trkpt>
      <trkpt lat="36.73851" lon="-4.82944">
        <ele>275.5875</ele>
        <time>2021-07-16T12:25:08Z</time>
      </trkpt>
      <trkpt lat="36.73865" lon="-4.82666">
        <ele>282.8625</ele>
        <time>2021-07-16T12:25:19Z</time>
      </trkpt>
      <trkpt lat="36.73875" lon="-4.82469">
        <ele>290.9013</ele>
        <time>2021-07-16T12:25:30Z</time>
      </trkpt>
      <trkpt lat="36.73882" lon="-4.82383">
        <ele>291.0937</ele>
        <time>2021-07-16T12:25:41Z</time>
      </trkpt>
      <trkpt lat="36.73883" lon="-4.82385">
        <ele>293.2672</ele>
        <time>2021-07-16T12:26:41Z</time>
      </trkpt>
      <trkpt lat="36.73884" lon="-4.82376">
        <ele>292.6428</ele>
        <time>2021-07-16T12:26:57Z</time>
      </trkpt>
      <trkpt lat="36.73956" lon="-4.82211">
        <ele>278.5122</ele>
        <time>2021-07-16T12:27:08Z</time>
      </trkpt>
      <trkpt lat="36.74035" lon="-4.82076">
        <ele>266.6038</ele>
        <time>2021-07-16T12:27:19Z</time>
      </trkpt>
      <trkpt lat="36.74048" lon="-4.82">
        <ele>266.2206</ele>
        <time>2021-07-16T12:27:30Z</time>
      </trkpt>
      <trkpt lat="36.74086" lon="-4.81947">
        <ele>260.8036</ele>
        <time>2021-07-16T12:27:41Z</time>
      </trkpt>
      <trkpt lat="36.74195" lon="-4.81777">
        <ele>241.6683</ele>
        <time>2021-07-16T12:27:52Z</time>
      </trkpt>
      <trkpt lat="36.74273" lon="-4.81697">
        <ele>244.3503</ele>
        <time>2021-07-16T12:28:03Z</time>
      </trkpt>
      <trkpt lat="36.74298" lon="-4.8163">
        <ele>239.6526</ele>
        <time>2021-07-16T12:28:14Z</time>
      </trkpt>
      <trkpt lat="36.74264" lon="-4.81475">
        <ele>235.812</ele>
        <time>2021-07-16T12:28:25Z</time>
      </trkpt>
      <trkpt lat="36.7429" lon="-4.81439">
        <ele>231.3945</ele>
        <time>2021-07-16T12:28:36Z</time>
      </trkpt>
      <trkpt lat="36.74293" lon="-4.81435">
        <ele>231.8319</ele>
        <time>2021-07-16T12:28:47Z</time>
      </trkpt>
      <trkpt lat="36.7431" lon="-4.81321">
        <ele>226.3882</ele>
        <time>2021-07-16T12:28:58Z</time>
      </trkpt>
      <trkpt lat="36.74261" lon="-4.81154">
        <ele>218.8011</ele>
        <time>2021-07-16T12:29:09Z</time>
      </trkpt>
      <trkpt lat="36.74194" lon="-4.81019">
        <ele>217.2107</ele>
        <time>2021-07-16T12:29:20Z</time>
      </trkpt>
      <trkpt lat="36.74133" lon="-4.80905">
        <ele>221.4209</ele>
        <time>2021-07-16T12:29:31Z</time>
      </trkpt>
      <trkpt lat="36.74047" lon="-4.80774">
        <ele>221.6526</ele>
        <time>2021-07-16T12:29:42Z</time>
      </trkpt>
      <trkpt lat="36.74008" lon="-4.80634">
        <ele>224.982</ele>
        <time>2021-07-16T12:29:53Z</time>
      </trkpt>
      <trkpt lat="36.74022" lon="-4.80484">
        <ele>223.9024</ele>
        <time>2021-07-16T12:30:04Z</time>
      </trkpt>
      <trkpt lat="36.74025" lon="-4.80345">
        <ele>218.886</ele>
        <time>2021-07-16T12:30:15Z</time>
      </trkpt>
      <trkpt lat="36.7403" lon="-4.80318">
        <ele>218.2442</ele>
        <time>2021-07-16T12:30:26Z</time>
      </trkpt>
      <trkpt lat="36.73985" lon="-4.80278">
        <ele>221.1468</ele>
        <time>2021-07-16T12:30:37Z</time>
      </trkpt>
      <trkpt lat="36.73936" lon="-4.80168">
        <ele>217.1912</ele>
        <time>2021-07-16T12:30:48Z</time>
      </trkpt>
      <trkpt lat="36.73856" lon="-4.80146">
        <ele>213.4736</ele>
        <time>2021-07-16T12:30:59Z</time>
      </trkpt>
      <trkpt lat="36.73832" lon="-4.80015">
        <ele>203.3109</ele>
        <time>2021-07-16T12:31:10Z</time>
      </trkpt>
      <trkpt lat="36.7374" lon="-4.79911">
        <ele>224.4652</ele>
        <time>2021-07-16T12:31:21Z</time>
      </trkpt>
      <trkpt lat="36.73742" lon="-4.79843">
        <ele>232.9802</ele>
        <time>2021-07-16T12:31:32Z</time>
      </trkpt>
      <trkpt lat="36.73805" lon="-4.79825">
        <ele>246.5013</ele>
        <time>2021-07-16T12:31:43Z</time>
      </trkpt>
      <trkpt lat="36.73841" lon="-4.79743">
        <ele>257.1047</ele>
        <time>2021-07-16T12:31:54Z</time>
      </trkpt>
      <trkpt lat="36.73883" lon="-4.79658">
        <ele>264.747</ele>
        <time>2021-07-16T12:32:05Z</time>
      </trkpt>
      <trkpt lat="36.73913" lon="-4.79542">
        <ele>274.3788</ele>
        <time>2021-07-16T12:32:16Z</time>
      </trkpt>
      <trkpt lat="36.73973" lon="-4.79439">
        <ele>277.4215</ele>
        <time>2021-07-16T12:32:27Z</time>
      </trkpt>
      <trkpt lat="36.74017" lon="-4.79367">
        <ele>272.2482</ele>
        <time>2021-07-16T12:32:38Z</time>
      </trkpt>
      <trkpt lat="36.74118" lon="-4.79315">
        <ele>264.8985</ele>
        <time>2021-07-16T12:32:49Z</time>
      </trkpt>
      <trkpt lat="36.74175" lon="-4.79227">
        <ele>262.916</ele>
        <time>2021-07-16T12:33:00Z</time>
      </trkpt>
      <trkpt lat="36.74199" lon="-4.79113">
        <ele>260.4864</ele>
        <time>2021-07-16T12:33:11Z</time>
      </trkpt>
      <trkpt lat="36.74191" lon="-4.79017">
        <ele>260.3328</ele>
        <time>2021-07-16T12:33:22Z</time>
      </trkpt>
      <trkpt lat="36.74206" lon="-4.78926">
        <ele>256.9478</ele>
        <time>2021-07-16T12:33:33Z</time>
      </trkpt>
      <trkpt lat="36.74221" lon="-4.78841">
        <ele>261.9826</ele>
        <time>2021-07-16T12:33:44Z</time>
      </trkpt>
      <trkpt lat="36.74256" lon="-4.78725">
        <ele>265.2636</ele>
        <time>2021-07-16T12:33:55Z</time>
      </trkpt>
      <trkpt lat="36.74257" lon="-4.7863">
        <ele>272.0267</ele>
        <time>2021-07-16T12:34:06Z</time>
      </trkpt>
      <trkpt lat="36.74263" lon="-4.78535">
        <ele>274.3763</ele>
        <time>2021-07-16T12:34:17Z</time>
      </trkpt>
      <trkpt lat="36.74288" lon="-4.78475">
        <ele>266.8338</ele>
        <time>2021-07-16T12:34:28Z</time>
      </trkpt>
      <trkpt lat="36.74324" lon="-4.78411">
        <ele>258.0681</ele>
        <time>2021-07-16T12:34:39Z</time>
      </trkpt>
      <trkpt lat="36.74363" lon="-4.78341">
        <ele>238.6012</ele>
        <time>2021-07-16T12:34:50Z</time>
      </trkpt>
      <trkpt lat="36.74406" lon="-4.78241">
        <ele>229.2901</ele>
        <time>2021-07-16T12:35:01Z</time>
      </trkpt>
      <trkpt lat="36.744" lon="-4.78154">
        <ele>218.4965</ele>
        <time>2021-07-16T12:35:12Z</time>
      </trkpt>
      <trkpt lat="36.74407" lon="-4.78042">
        <ele>221.3914</ele>
        <time>2021-07-16T12:35:23Z</time>
      </trkpt>
      <trkpt lat="36.74468" lon="-4.77919">
        <ele>228.1223</ele>
        <time>2021-07-16T12:35:34Z</time>
      </trkpt>
      <trkpt lat="36.74544" lon="-4.77779">
        <ele>235.8805</ele>
        <time>2021-07-16T12:35:45Z</time>
      </trkpt>
      <trkpt lat="36.746" lon="-4.77734">
        <ele>236.249</ele>
        <time>2021-07-16T12:35:56Z</time>
      </trkpt>
      <trkpt lat="36.7465" lon="-4.77642">
        <ele>249.497</ele>
        <time>2021-07-16T12:36:07Z</time>
      </trkpt>
      <trkpt lat="36.74652" lon="-4.77526">
        <ele>255.8289</ele>
        <time>2021-07-16T12:36:18Z</time>
      </trkpt>
      <trkpt lat="36.74638" lon="-4.77407">
        <ele>252.1653</ele>
        <time>2021-07-16T12:36:29Z</time>
      </trkpt>
      <trkpt lat="36.74657" lon="-4.77322">
        <ele>254.699</ele>
        <time>2021-07-16T12:36:40Z</time>
      </trkpt>
      <trkpt lat="36.74697" lon="-4.77217">
        <ele>257.2608</ele>
        <time>2021-07-16T12:36:51Z</time>
      </trkpt>
      <trkpt lat="36.74731" lon="-4.7714">
        <ele>265.7808</ele>
        <time>2021-07-16T12:37:02Z</time>
      </trkpt>
      <trkpt lat="36.74812" lon="-4.7713">
        <ele>260.6798</ele>
        <time>2021-07-16T12:37:13Z</time>
      </trkpt>
      <trkpt lat="36.74823" lon="-4.77036">
        <ele>253.651</ele>
        <time>2021-07-16T12:37:24Z</time>
      </trkpt>
      <trkpt lat="36.74826" lon="-4.76916">
        <ele>264.7699</ele>
        <time>2021-07-16T12:37:35Z</time>
      </trkpt>
      <trkpt lat="36.74832" lon="-4.76814">
        <ele>272.2104</ele>
        <time>2021-07-16T12:37:46Z</time>
      </trkpt>
      <trkpt lat="36.74863" lon="-4.76723">
        <ele>278.3579</ele>
        <time>2021-07-16T12:37:57Z</time>
      </trkpt>
      <trkpt lat="36.74864" lon="-4.76713">
        <ele>277.1371</ele>
        <time>2021-07-16T12:38:08Z</time>
      </trkpt>
      <trkpt lat="36.74868" lon="-4.76718">
        <ele>278.796</ele>
        <time>2021-07-16T12:38:19Z</time>
      </trkpt>
      <trkpt lat="36.74887" lon="-4.76672">
        <ele>291.0499</ele>
        <time>2021-07-16T12:38:30Z</time>
      </trkpt>
      <trkpt lat="36.74855" lon="-4.7662">
        <ele>289.8415</ele>
        <time>2021-07-16T12:38:41Z</time>
      </trkpt>
      <trkpt lat="36.7484" lon="-4.76598">
        <ele>292.559</ele>
        <time>2021-07-16T12:38:52Z</time>
      </trkpt>
      <trkpt lat="36.74813" lon="-4.76563">
        <ele>294.4815</ele>
        <time>2021-07-16T12:39:03Z</time>
      </trkpt>
      <trkpt lat="36.74789" lon="-4.76505">
        <ele>297.893</ele>
        <time>2021-07-16T12:39:14Z</time>
      </trkpt>
      <trkpt lat="36.74751" lon="-4.76435">
        <ele>299.1291</ele>
        <time>2021-07-16T12:39:25Z</time>
      </trkpt>
      <trkpt lat="36.74698" lon="-4.76338">
        <ele>292.0086</ele>
        <time>2021-07-16T12:39:36Z</time>
      </trkpt>
      <trkpt lat="36.74598" lon="-4.7623">
        <ele>282.154</ele>
        <time>2021-07-16T12:39:48Z</time>
      </trkpt>
      <trkpt lat="36.74513" lon="-4.76262">
        <ele>277.0735</ele>
        <time>2021-07-16T12:39:59Z</time>
      </trkpt>
      <trkpt lat="36.74445" lon="-4.7635">
        <ele>258.9661</ele>
        <time>2021-07-16T12:40:10Z</time>
      </trkpt>
      <trkpt lat="36.7436" lon="-4.76324">
        <ele>252.403</ele>
        <time>2021-07-16T12:40:21Z</time>
      </trkpt>
      <trkpt lat="36.7425" lon="-4.76285">
        <ele>239.2233</ele>
        <time>2021-07-16T12:40:32Z</time>
      </trkpt>
      <trkpt lat="36.74285" lon="-4.76254">
        <ele>229.5559</ele>
        <time>2021-07-16T12:40:43Z</time>
      </trkpt>
      <trkpt lat="36.74184" lon="-4.76241">
        <ele>215.7492</ele>
        <time>2021-07-16T12:40:54Z</time>
      </trkpt>
      <trkpt lat="36.74073" lon="-4.76139">
        <ele>197.8289</ele>
        <time>2021-07-16T12:41:05Z</time>
      </trkpt>
      <trkpt lat="36.74024" lon="-4.75958">
        <ele>201.3739</ele>
        <time>2021-07-16T12:41:16Z</time>
      </trkpt>
      <trkpt lat="36.73961" lon="-4.75792">
        <ele>201.3797</ele>
        <time>2021-07-16T12:41:27Z</time>
      </trkpt>
      <trkpt lat="36.74125" lon="-4.75658">
        <ele>201.7476</ele>
        <time>2021-07-16T12:41:38Z</time>
      </trkpt>
      <trkpt lat="36.74116" lon="-4.75415">
        <ele>200.5963</ele>
        <time>2021-07-16T12:41:49Z</time>
      </trkpt>
      <trkpt lat="36.74107" lon="-4.75181">
        <ele>194.6664</ele>
        <time>2021-07-16T12:42:00Z</time>
      </trkpt>
      <trkpt lat="36.74083" lon="-4.74952">
        <ele>184.2554</ele>
        <time>2021-07-16T12:42:11Z</time>
      </trkpt>
      <trkpt lat="36.73956" lon="-4.74903">
        <ele>167.6827</ele>
        <time>2021-07-16T12:42:23Z</time>
      </trkpt>
      <trkpt lat="36.73913" lon="-4.74718">
        <ele>164.9867</ele>
        <time>2021-07-16T12:42:34Z</time>
      </trkpt>
      <trkpt lat="36.73867" lon="-4.74514">
        <ele>157.7079</ele>
        <time>2021-07-16T12:42:45Z</time>
      </trkpt>
      <trkpt lat="36.73977" lon="-4.74336">
        <ele>152.6891</ele>
        <time>2021-07-16T12:42:56Z</time>
      </trkpt>
      <trkpt lat="36.74048" lon="-4.74144">
        <ele>155.7121</ele>
        <time>2021-07-16T12:43:07Z</time>
      </trkpt>
      <trkpt lat="36.74094" lon="-4.73905">
        <ele>141.5841</ele>
        <time>2021-07-16T12:43:18Z</time>
      </trkpt>
      <trkpt lat="36.74202" lon="-4.73687">
        <ele>123.6464</ele>
        <time>2021-07-16T12:43:29Z</time>
      </trkpt>
      <trkpt lat="36.74316" lon="-4.73523">
        <ele>117.0286</ele>
        <time>2021-07-16T12:43:40Z</time>
      </trkpt>
      <trkpt lat="36.74474" lon="-4.73404">
        <ele>114.1158</ele>
        <time>2021-07-16T12:43:51Z</time>
      </trkpt>
      <trkpt lat="36.74641" lon="-4.73344">
        <ele>112.6296</ele>
        <time>2021-07-16T12:44:02Z</time>
      </trkpt>
      <trkpt lat="36.74709" lon="-4.73231">
        <ele>108.7427</ele>
        <time>2021-07-16T12:44:13Z</time>
      </trkpt>
      <trkpt lat="36.74694" lon="-4.73046">
        <ele>106.1387</ele>
        <time>2021-07-16T12:44:24Z</time>
      </trkpt>
      <trkpt lat="36.74772" lon="-4.72912">
        <ele>91.17873</ele>
        <time>2021-07-16T12:44:35Z</time>
      </trkpt>
      <trkpt lat="36.74903" lon="-4.72772">
        <ele>76.09134</ele>
        <time>2021-07-16T12:44:46Z</time>
      </trkpt>
      <trkpt lat="36.74954" lon="-4.72603">
        <ele>74.649</ele>
        <time>2021-07-16T12:44:57Z</time>
      </trkpt>
      <trkpt lat="36.74957" lon="-4.72396">
        <ele>77.80901</ele>
        <time>2021-07-16T12:45:08Z</time>
      </trkpt>
      <trkpt lat="36.7492" lon="-4.72215">
        <ele>85.6966</ele>
        <time>2021-07-16T12:45:19Z</time>
      </trkpt>
      <trkpt lat="36.74898" lon="-4.72063">
        <ele>85.28258</ele>
        <time>2021-07-16T12:45:30Z</time>
      </trkpt>
      <trkpt lat="36.74887" lon="-4.71975">
        <ele>82.57536</ele>
        <time>2021-07-16T12:45:41Z</time>
      </trkpt>
      <trkpt lat="36.74872" lon="-4.71992">
        <ele>83.43914</ele>
        <time>2021-07-16T12:45:52Z</time>
      </trkpt>
      <trkpt lat="36.74871" lon="-4.71998">
        <ele>84.47148</ele>
        <time>2021-07-16T12:46:03Z</time>
      </trkpt>
      <trkpt lat="36.7486" lon="-4.72025">
        <ele>83.3794</ele>
        <time>2021-07-16T12:46:14Z</time>
      </trkpt>
      <trkpt lat="36.74858" lon="-4.72032">
        <ele>85.01151</ele>
        <time>2021-07-16T12:46:25Z</time>
      </trkpt>
      <trkpt lat="36.74839" lon="-4.72063">
        <ele>86.27441</ele>
        <time>2021-07-16T12:46:36Z</time>
      </trkpt>
      <trkpt lat="36.74791" lon="-4.72104">
        <ele>89.2967</ele>
        <time>2021-07-16T12:46:47Z</time>
      </trkpt>
      <trkpt lat="36.74787" lon="-4.72134">
        <ele>89.703</ele>
        <time>2021-07-16T12:46:58Z</time>
      </trkpt>
      <trkpt lat="36.74791" lon="-4.72133">
        <ele>89.50486</ele>
        <time>2021-07-16T12:47:09Z</time>
      </trkpt>
      <trkpt lat="36.74794" lon="-4.7213">
        <ele>89.13287</ele>
        <time>2021-07-16T12:47:44Z</time>
      </trkpt>
      <trkpt lat="36.74792" lon="-4.72129">
        <ele>88.97536</ele>
        <time>2021-07-16T12:48:43Z</time>
      </trkpt>
      <trkpt lat="36.74791" lon="-4.72127">
        <ele>88.40521</ele>
        <time>2021-07-16T12:49:43Z</time>
      </trkpt>
      <trkpt lat="36.74791" lon="-4.72129">
        <ele>88.92062</ele>
        <time>2021-07-16T12:50:43Z</time>
      </trkpt>
      <trkpt lat="36.74792" lon="-4.72128">
        <ele>89.61145</ele>
        <time>2021-07-16T12:51:43Z</time>
      </trkpt>
      <trkpt lat="36.74788" lon="-4.7213">
        <ele>88.75554</ele>
        <time>2021-07-16T12:52:17Z</time>
      </trkpt>
      <trkpt lat="36.74792" lon="-4.72131">
        <ele>89.03144</ele>
        <time>2021-07-16T12:52:40Z</time>
      </trkpt>
      <trkpt lat="36.74791" lon="-4.72125">
        <ele>90.42646</ele>
        <time>2021-07-16T12:53:29Z</time>
      </trkpt>
      <trkpt lat="36.7479" lon="-4.72128">
        <ele>88.8441</ele>
        <time>2021-07-16T12:54:28Z</time>
      </trkpt>
      <trkpt lat="36.7479" lon="-4.72129">
        <ele>88.53346</ele>
        <time>2021-07-16T12:55:27Z</time>
      </trkpt>
      <trkpt lat="36.74791" lon="-4.72128">
        <ele>88.95797</ele>
        <time>2021-07-16T12:56:27Z</time>
      </trkpt>
      <trkpt lat="36.74792" lon="-4.72128">
        <ele>89.11557</ele>
        <time>2021-07-16T12:57:26Z</time>
      </trkpt>
      <trkpt lat="36.7479" lon="-4.72124">
        <ele>88.65367</ele>
        <time>2021-07-16T12:58:22Z</time>
      </trkpt>
      <trkpt lat="36.74789" lon="-4.72128">
        <ele>88.86839</ele>
        <time>2021-07-16T12:58:50Z</time>
      </trkpt>
      <trkpt lat="36.74792" lon="-4.72127">
        <ele>89.32479</ele>
        <time>2021-07-16T12:59:30Z</time>
      </trkpt>
      <trkpt lat="36.74791" lon="-4.72128">
        <ele>89.39176</ele>
        <time>2021-07-16T13:00:30Z</time>
      </trkpt>
      <trkpt lat="36.74791" lon="-4.72129">
        <ele>88.72418</ele>
        <time>2021-07-16T13:01:28Z</time>
      </trkpt>
      <trkpt lat="36.74791" lon="-4.72128">
        <ele>88.67242</ele>
        <time>2021-07-16T13:02:27Z</time>
      </trkpt>
      <trkpt lat="36.7479" lon="-4.72129">
        <ele>89.05962</ele>
        <time>2021-07-16T13:03:27Z</time>
      </trkpt>
      <trkpt lat="36.74794" lon="-4.72128">
        <ele>88.50095</ele>
        <time>2021-07-16T13:04:26Z</time>
      </trkpt>
      <trkpt lat="36.7479" lon="-4.72127">
        <ele>88.81028</ele>
        <time>2021-07-16T13:05:25Z</time>
      </trkpt>
      <trkpt lat="36.74794" lon="-4.72128">
        <ele>89.13828</ele>
        <time>2021-07-16T13:05:48Z</time>
      </trkpt>
      <trkpt lat="36.7479" lon="-4.72131">
        <ele>89.91259</ele>
        <time>2021-07-16T13:06:02Z</time>
      </trkpt>
      <trkpt lat="36.74789" lon="-4.72132">
        <ele>89.24606</ele>
        <time>2021-07-16T13:07:01Z</time>
      </trkpt>
      <trkpt lat="36.74792" lon="-4.72128">
        <ele>88.95503</ele>
        <time>2021-07-16T13:07:32Z</time>
      </trkpt>
      <trkpt lat="36.7479" lon="-4.72125">
        <ele>89.18807</ele>
        <time>2021-07-16T13:08:30Z</time>
      </trkpt>
      <trkpt lat="36.74787" lon="-4.72127">
        <ele>88.82007</ele>
        <time>2021-07-16T13:09:10Z</time>
      </trkpt>
      <trkpt lat="36.7479" lon="-4.72129">
        <ele>88.62201</ele>
        <time>2021-07-16T13:09:28Z</time>
      </trkpt>
      <trkpt lat="36.7479" lon="-4.72132">
        <ele>88.90785</ele>
        <time>2021-07-16T13:10:27Z</time>
      </trkpt>
      <trkpt lat="36.7479" lon="-4.72127">
        <ele>88.78382</ele>
        <time>2021-07-16T13:11:09Z</time>
      </trkpt>
      <trkpt lat="36.74787" lon="-4.72125">
        <ele>89.26372</ele>
        <time>2021-07-16T13:11:28Z</time>
      </trkpt>
      <trkpt lat="36.74789" lon="-4.72129">
        <ele>89.38662</ele>
        <time>2021-07-16T13:11:51Z</time>
      </trkpt>
      <trkpt lat="36.74789" lon="-4.72128">
        <ele>88.44471</ele>
        <time>2021-07-16T13:12:51Z</time>
      </trkpt>
      <trkpt lat="36.74788" lon="-4.72129">
        <ele>88.57976</ele>
        <time>2021-07-16T13:13:51Z</time>
      </trkpt>
      <trkpt lat="36.74786" lon="-4.72132">
        <ele>89.16044</ele>
        <time>2021-07-16T13:14:06Z</time>
      </trkpt>
      <trkpt lat="36.74788" lon="-4.72129">
        <ele>88.5883</ele>
        <time>2021-07-16T13:14:57Z</time>
      </trkpt>
      <trkpt lat="36.74777" lon="-4.72117">
        <ele>88.96279</ele>
        <time>2021-07-16T13:15:46Z</time>
      </trkpt>
      <trkpt lat="36.74786" lon="-4.72129">
        <ele>89.21634</ele>
        <time>2021-07-16T13:15:57Z</time>
      </trkpt>
      <trkpt lat="36.7479" lon="-4.72132">
        <ele>89.22507</ele>
        <time>2021-07-16T13:16:08Z</time>
      </trkpt>
      <trkpt lat="36.74788" lon="-4.72128">
        <ele>89.06934</ele>
        <time>2021-07-16T13:16:19Z</time>
      </trkpt>
      <trkpt lat="36.74791" lon="-4.72126">
        <ele>89.40619</ele>
        <time>2021-07-16T13:17:18Z</time>
      </trkpt>
      <trkpt lat="36.74791" lon="-4.72127">
        <ele>89.83774</ele>
        <time>2021-07-16T13:18:17Z</time>
      </trkpt>
      <trkpt lat="36.7479" lon="-4.72122">
        <ele>89.04091</ele>
        <time>2021-07-16T13:18:38Z</time>
      </trkpt>
      <trkpt lat="36.74789" lon="-4.72118">
        <ele>89.27422</ele>
        <time>2021-07-16T13:18:50Z</time>
      </trkpt>
      <trkpt lat="36.74787" lon="-4.72122">
        <ele>90.41121</ele>
        <time>2021-07-16T13:19:11Z</time>
      </trkpt>
      <trkpt lat="36.74789" lon="-4.7213">
        <ele>89.39081</ele>
        <time>2021-07-16T13:19:22Z</time>
      </trkpt>
      <trkpt lat="36.74789" lon="-4.72125">
        <ele>89.02041</ele>
        <time>2021-07-16T13:19:33Z</time>
      </trkpt>
      <trkpt lat="36.74787" lon="-4.72129">
        <ele>89.48686</ele>
        <time>2021-07-16T13:20:04Z</time>
      </trkpt>
      <trkpt lat="36.74787" lon="-4.72127">
        <ele>88.87873</ele>
        <time>2021-07-16T13:21:03Z</time>
      </trkpt>
      <trkpt lat="36.74787" lon="-4.72127">
        <ele>88.87873</ele>
        <time>2021-07-16T13:22:02Z</time>
      </trkpt>
      <trkpt lat="36.74789" lon="-4.72131">
        <ele>89.73335</ele>
        <time>2021-07-16T13:22:28Z</time>
      </trkpt>
      <trkpt lat="36.74792" lon="-4.7214">
        <ele>89.27068</ele>
        <time>2021-07-16T13:22:39Z</time>
      </trkpt>
      <trkpt lat="36.74786" lon="-4.72139">
        <ele>88.82355</ele>
        <time>2021-07-16T13:22:58Z</time>
      </trkpt>
      <trkpt lat="36.74776" lon="-4.72115">
        <ele>89.39728</ele>
        <time>2021-07-16T13:23:09Z</time>
      </trkpt>
      <trkpt lat="36.74826" lon="-4.7207">
        <ele>87.61386</ele>
        <time>2021-07-16T13:23:20Z</time>
      </trkpt>
      <trkpt lat="36.74873" lon="-4.72001">
        <ele>83.75532</ele>
        <time>2021-07-16T13:23:31Z</time>
      </trkpt>
      <trkpt lat="36.74894" lon="-4.71868">
        <ele>80.90339</ele>
        <time>2021-07-16T13:23:42Z</time>
      </trkpt>
      <trkpt lat="36.7485" lon="-4.71707">
        <ele>72.41704</ele>
        <time>2021-07-16T13:23:53Z</time>
      </trkpt>
      <trkpt lat="36.74816" lon="-4.71607">
        <ele>70.60383</ele>
        <time>2021-07-16T13:24:04Z</time>
      </trkpt>
      <trkpt lat="36.74824" lon="-4.7157">
        <ele>70.12943</ele>
        <time>2021-07-16T13:24:15Z</time>
      </trkpt>
      <trkpt lat="36.74827" lon="-4.71565">
        <ele>70.11778</ele>
        <time>2021-07-16T13:24:26Z</time>
      </trkpt>
      <trkpt lat="36.74829" lon="-4.71558">
        <ele>70.24823</ele>
        <time>2021-07-16T13:24:45Z</time>
      </trkpt>
      <trkpt lat="36.748" lon="-4.71451">
        <ele>69.12244</ele>
        <time>2021-07-16T13:24:56Z</time>
      </trkpt>
      <trkpt lat="36.74746" lon="-4.71289">
        <ele>61.55706</ele>
        <time>2021-07-16T13:25:07Z</time>
      </trkpt>
      <trkpt lat="36.74726" lon="-4.71232">
        <ele>58.49538</ele>
        <time>2021-07-16T13:25:18Z</time>
      </trkpt>
      <trkpt lat="36.74726" lon="-4.71228">
        <ele>58.34834</ele>
        <time>2021-07-16T13:25:29Z</time>
      </trkpt>
      <trkpt lat="36.74726" lon="-4.71228">
        <ele>58.14334</ele>
        <time>2021-07-16T13:26:28Z</time>
      </trkpt>
      <trkpt lat="36.74723" lon="-4.71224">
        <ele>57.77458</ele>
        <time>2021-07-16T13:26:39Z</time>
      </trkpt>
      <trkpt lat="36.74834" lon="-4.71193">
        <ele>57.31743</ele>
        <time>2021-07-16T13:26:50Z</time>
      </trkpt>
      <trkpt lat="36.74972" lon="-4.71202">
        <ele>63.22172</ele>
        <time>2021-07-16T13:27:01Z</time>
      </trkpt>
      <trkpt lat="36.75068" lon="-4.71229">
        <ele>62.37743</ele>
        <time>2021-07-16T13:27:12Z</time>
      </trkpt>
      <trkpt lat="36.75124" lon="-4.71227">
        <ele>60.47733</ele>
        <time>2021-07-16T13:27:23Z</time>
      </trkpt>
      <trkpt lat="36.7523" lon="-4.71229">
        <ele>59.11596</ele>
        <time>2021-07-16T13:27:34Z</time>
      </trkpt>
      <trkpt lat="36.75357" lon="-4.71276">
        <ele>54.87992</ele>
        <time>2021-07-16T13:27:45Z</time>
      </trkpt>
      <trkpt lat="36.75495" lon="-4.71364">
        <ele>56.02537</ele>
        <time>2021-07-16T13:27:56Z</time>
      </trkpt>
      <trkpt lat="36.75611" lon="-4.71302">
        <ele>58.1612</ele>
        <time>2021-07-16T13:28:07Z</time>
      </trkpt>
      <trkpt lat="36.75665" lon="-4.71198">
        <ele>60.83089</ele>
        <time>2021-07-16T13:28:18Z</time>
      </trkpt>
      <trkpt lat="36.75697" lon="-4.71172">
        <ele>61.80734</ele>
        <time>2021-07-16T13:28:29Z</time>
      </trkpt>
      <trkpt lat="36.75748" lon="-4.71178">
        <ele>67.45501</ele>
        <time>2021-07-16T13:28:40Z</time>
      </trkpt>
      <trkpt lat="36.75824" lon="-4.7114">
        <ele>72.6994</ele>
        <time>2021-07-16T13:28:51Z</time>
      </trkpt>
      <trkpt lat="36.75861" lon="-4.71048">
        <ele>76.88979</ele>
        <time>2021-07-16T13:29:02Z</time>
      </trkpt>
      <trkpt lat="36.75865" lon="-4.71046">
        <ele>76.31806</ele>
        <time>2021-07-16T13:29:18Z</time>
      </trkpt>
      <trkpt lat="36.75869" lon="-4.71046">
        <ele>79.08252</ele>
        <time>2021-07-16T13:29:31Z</time>
      </trkpt>
      <trkpt lat="36.75873" lon="-4.7104">
        <ele>78.80198</ele>
        <time>2021-07-16T13:29:42Z</time>
      </trkpt>
      <trkpt lat="36.75887" lon="-4.71058">
        <ele>77.83008</ele>
        <time>2021-07-16T13:29:53Z</time>
      </trkpt>
      <trkpt lat="36.75971" lon="-4.71181">
        <ele>79.31955</ele>
        <time>2021-07-16T13:30:04Z</time>
      </trkpt>
      <trkpt lat="36.76131" lon="-4.71184">
        <ele>73.51117</ele>
        <time>2021-07-16T13:30:15Z</time>
      </trkpt>
      <trkpt lat="36.76276" lon="-4.71141">
        <ele>67.81691</ele>
        <time>2021-07-16T13:30:26Z</time>
      </trkpt>
      <trkpt lat="36.7636" lon="-4.71067">
        <ele>70.62453</ele>
        <time>2021-07-16T13:30:37Z</time>
      </trkpt>
      <trkpt lat="36.76408" lon="-4.71014">
        <ele>70.89696</ele>
        <time>2021-07-16T13:30:48Z</time>
      </trkpt>
      <trkpt lat="36.76435" lon="-4.7093">
        <ele>74.22391</ele>
        <time>2021-07-16T13:30:59Z</time>
      </trkpt>
      <trkpt lat="36.76463" lon="-4.70837">
        <ele>76.0268</ele>
        <time>2021-07-16T13:31:10Z</time>
      </trkpt>
      <trkpt lat="36.76477" lon="-4.70789">
        <ele>78.4293</ele>
        <time>2021-07-16T13:31:21Z</time>
      </trkpt>
      <trkpt lat="36.76504" lon="-4.70715">
        <ele>82.84916</ele>
        <time>2021-07-16T13:31:32Z</time>
      </trkpt>
      <trkpt lat="36.76523" lon="-4.70628">
        <ele>88.86363</ele>
        <time>2021-07-16T13:31:43Z</time>
      </trkpt>
      <trkpt lat="36.76452" lon="-4.70608">
        <ele>94.64216</ele>
        <time>2021-07-16T13:31:54Z</time>
      </trkpt>
      <trkpt lat="36.76398" lon="-4.70537">
        <ele>98.75563</ele>
        <time>2021-07-16T13:32:05Z</time>
      </trkpt>
      <trkpt lat="36.76319" lon="-4.70541">
        <ele>103.7325</ele>
        <time>2021-07-16T13:32:16Z</time>
      </trkpt>
      <trkpt lat="36.76242" lon="-4.70544">
        <ele>109.9607</ele>
        <time>2021-07-16T13:32:27Z</time>
      </trkpt>
      <trkpt lat="36.76175" lon="-4.70552">
        <ele>116.9468</ele>
        <time>2021-07-16T13:32:38Z</time>
      </trkpt>
      <trkpt lat="36.76118" lon="-4.7057">
        <ele>117.6645</ele>
        <time>2021-07-16T13:32:49Z</time>
      </trkpt>
      <trkpt lat="36.7609" lon="-4.70464">
        <ele>128.9931</ele>
        <time>2021-07-16T13:33:00Z</time>
      </trkpt>
      <trkpt lat="36.76103" lon="-4.70378">
        <ele>137.7834</ele>
        <time>2021-07-16T13:33:11Z</time>
      </trkpt>
      <trkpt lat="36.7614" lon="-4.70312">
        <ele>151.945</ele>
        <time>2021-07-16T13:33:22Z</time>
      </trkpt>
      <trkpt lat="36.76154" lon="-4.70207">
        <ele>163.7123</ele>
        <time>2021-07-16T13:33:33Z</time>
      </trkpt>
      <trkpt lat="36.76137" lon="-4.70143">
        <ele>169.7462</ele>
        <time>2021-07-16T13:33:44Z</time>
      </trkpt>
      <trkpt lat="36.76044" lon="-4.70094">
        <ele>166.8739</ele>
        <time>2021-07-16T13:33:55Z</time>
      </trkpt>
      <trkpt lat="36.75984" lon="-4.69956">
        <ele>178.4777</ele>
        <time>2021-07-16T13:34:06Z</time>
      </trkpt>
      <trkpt lat="36.75886" lon="-4.69966">
        <ele>183.8872</ele>
        <time>2021-07-16T13:34:17Z</time>
      </trkpt>
      <trkpt lat="36.75811" lon="-4.69891">
        <ele>172.107</ele>
        <time>2021-07-16T13:34:28Z</time>
      </trkpt>
      <trkpt lat="36.75702" lon="-4.69822">
        <ele>180.7091</ele>
        <time>2021-07-16T13:34:39Z</time>
      </trkpt>
      <trkpt lat="36.75672" lon="-4.69737">
        <ele>189.9049</ele>
        <time>2021-07-16T13:34:50Z</time>
      </trkpt>
      <trkpt lat="36.75653" lon="-4.69655">
        <ele>192.1913</ele>
        <time>2021-07-16T13:35:01Z</time>
      </trkpt>
      <trkpt lat="36.7562" lon="-4.69486">
        <ele>192.8046</ele>
        <time>2021-07-16T13:35:12Z</time>
      </trkpt>
      <trkpt lat="36.757" lon="-4.69379">
        <ele>185.8312</ele>
        <time>2021-07-16T13:35:23Z</time>
      </trkpt>
      <trkpt lat="36.75779" lon="-4.69307">
        <ele>178.5498</ele>
        <time>2021-07-16T13:35:34Z</time>
      </trkpt>
      <trkpt lat="36.75753" lon="-4.69167">
        <ele>175.6</ele>
        <time>2021-07-16T13:35:45Z</time>
      </trkpt>
      <trkpt lat="36.75809" lon="-4.69079">
        <ele>169.875</ele>
        <time>2021-07-16T13:35:56Z</time>
      </trkpt>
      <trkpt lat="36.75864" lon="-4.68972">
        <ele>170.3952</ele>
        <time>2021-07-16T13:36:07Z</time>
      </trkpt>
      <trkpt lat="36.75866" lon="-4.68819">
        <ele>173.9799</ele>
        <time>2021-07-16T13:36:18Z</time>
      </trkpt>
      <trkpt lat="36.75888" lon="-4.6871">
        <ele>174.1042</ele>
        <time>2021-07-16T13:36:29Z</time>
      </trkpt>
      <trkpt lat="36.75922" lon="-4.68596">
        <ele>162.4746</ele>
        <time>2021-07-16T13:36:40Z</time>
      </trkpt>
      <trkpt lat="36.75937" lon="-4.68487">
        <ele>168.0645</ele>
        <time>2021-07-16T13:36:51Z</time>
      </trkpt>
      <trkpt lat="36.75995" lon="-4.68407">
        <ele>175.7994</ele>
        <time>2021-07-16T13:37:02Z</time>
      </trkpt>
      <trkpt lat="36.7606" lon="-4.68321">
        <ele>177.6256</ele>
        <time>2021-07-16T13:37:13Z</time>
      </trkpt>
      <trkpt lat="36.7614" lon="-4.68226">
        <ele>171.5287</ele>
        <time>2021-07-16T13:37:24Z</time>
      </trkpt>
      <trkpt lat="36.76237" lon="-4.68188">
        <ele>163.0698</ele>
        <time>2021-07-16T13:37:35Z</time>
      </trkpt>
      <trkpt lat="36.76299" lon="-4.68106">
        <ele>174.4021</ele>
        <time>2021-07-16T13:37:46Z</time>
      </trkpt>
      <trkpt lat="36.7639" lon="-4.67984">
        <ele>190.7419</ele>
        <time>2021-07-16T13:37:57Z</time>
      </trkpt>
      <trkpt lat="36.76452" lon="-4.67863">
        <ele>197.482</ele>
        <time>2021-07-16T13:38:08Z</time>
      </trkpt>
      <trkpt lat="36.76535" lon="-4.67792">
        <ele>217.6488</ele>
        <time>2021-07-16T13:38:19Z</time>
      </trkpt>
      <trkpt lat="36.76616" lon="-4.67728">
        <ele>218.0633</ele>
        <time>2021-07-16T13:38:30Z</time>
      </trkpt>
      <trkpt lat="36.76711" lon="-4.67715">
        <ele>254.3225</ele>
        <time>2021-07-16T13:38:41Z</time>
      </trkpt>
      <trkpt lat="36.76736" lon="-4.67699">
        <ele>257.2118</ele>
        <time>2021-07-16T13:38:52Z</time>
      </trkpt>
      <trkpt lat="36.76684" lon="-4.67664">
        <ele>258.3624</ele>
        <time>2021-07-16T13:39:03Z</time>
      </trkpt>
      <trkpt lat="36.76697" lon="-4.67571">
        <ele>253.2109</ele>
        <time>2021-07-16T13:39:14Z</time>
      </trkpt>
      <trkpt lat="36.76716" lon="-4.67441">
        <ele>229.2334</ele>
        <time>2021-07-16T13:39:25Z</time>
      </trkpt>
      <trkpt lat="36.767" lon="-4.67318">
        <ele>224.4349</ele>
        <time>2021-07-16T13:39:36Z</time>
      </trkpt>
      <trkpt lat="36.76718" lon="-4.67221">
        <ele>209.8866</ele>
        <time>2021-07-16T13:39:47Z</time>
      </trkpt>
      <trkpt lat="36.76742" lon="-4.67232">
        <ele>203.3016</ele>
        <time>2021-07-16T13:39:58Z</time>
      </trkpt>
      <trkpt lat="36.76821" lon="-4.67274">
        <ele>195.0111</ele>
        <time>2021-07-16T13:40:09Z</time>
      </trkpt>
      <trkpt lat="36.76871" lon="-4.67331">
        <ele>184.1186</ele>
        <time>2021-07-16T13:40:20Z</time>
      </trkpt>
      <trkpt lat="36.76876" lon="-4.67237">
        <ele>178.5452</ele>
        <time>2021-07-16T13:40:31Z</time>
      </trkpt>
      <trkpt lat="36.76853" lon="-4.67188">
        <ele>178.8902</ele>
        <time>2021-07-16T13:40:42Z</time>
      </trkpt>
      <trkpt lat="36.7686" lon="-4.67084">
        <ele>169.7625</ele>
        <time>2021-07-16T13:40:53Z</time>
      </trkpt>
      <trkpt lat="36.76857" lon="-4.67002">
        <ele>160.4575</ele>
        <time>2021-07-16T13:41:04Z</time>
      </trkpt>
      <trkpt lat="36.7679" lon="-4.66935">
        <ele>171.0269</ele>
        <time>2021-07-16T13:41:15Z</time>
      </trkpt>
      <trkpt lat="36.76791" lon="-4.66849">
        <ele>174.3517</ele>
        <time>2021-07-16T13:41:26Z</time>
      </trkpt>
      <trkpt lat="36.76772" lon="-4.66778">
        <ele>186.8984</ele>
        <time>2021-07-16T13:41:37Z</time>
      </trkpt>
      <trkpt lat="36.76817" lon="-4.6668">
        <ele>200.9926</ele>
        <time>2021-07-16T13:41:48Z</time>
      </trkpt>
      <trkpt lat="36.76827" lon="-4.66563">
        <ele>219.8987</ele>
        <time>2021-07-16T13:41:59Z</time>
      </trkpt>
      <trkpt lat="36.7691" lon="-4.66516">
        <ele>236.0146</ele>
        <time>2021-07-16T13:42:10Z</time>
      </trkpt>
      <trkpt lat="36.77043" lon="-4.66546">
        <ele>252.6023</ele>
        <time>2021-07-16T13:42:21Z</time>
      </trkpt>
      <trkpt lat="36.77117" lon="-4.66444">
        <ele>268.1724</ele>
        <time>2021-07-16T13:42:32Z</time>
      </trkpt>
      <trkpt lat="36.7721" lon="-4.66367">
        <ele>289.7366</ele>
        <time>2021-07-16T13:42:43Z</time>
      </trkpt>
      <trkpt lat="36.77302" lon="-4.66316">
        <ele>291.9802</ele>
        <time>2021-07-16T13:42:54Z</time>
      </trkpt>
      <trkpt lat="36.7741" lon="-4.6625">
        <ele>288.6432</ele>
        <time>2021-07-16T13:43:05Z</time>
      </trkpt>
      <trkpt lat="36.77472" lon="-4.661">
        <ele>303.0018</ele>
        <time>2021-07-16T13:43:16Z</time>
      </trkpt>
      <trkpt lat="36.7757" lon="-4.66044">
        <ele>313.8725</ele>
        <time>2021-07-16T13:43:27Z</time>
      </trkpt>
      <trkpt lat="36.77679" lon="-4.65985">
        <ele>317.7551</ele>
        <time>2021-07-16T13:43:38Z</time>
      </trkpt>
      <trkpt lat="36.7774" lon="-4.65857">
        <ele>330.1025</ele>
        <time>2021-07-16T13:43:49Z</time>
      </trkpt>
      <trkpt lat="36.77782" lon="-4.65726">
        <ele>351.676</ele>
        <time>2021-07-16T13:44:00Z</time>
      </trkpt>
      <trkpt lat="36.77824" lon="-4.65622">
        <ele>354.5513</ele>
        <time>2021-07-16T13:44:11Z</time>
      </trkpt>
      <trkpt lat="36.77859" lon="-4.65556">
        <ele>358.3048</ele>
        <time>2021-07-16T13:44:22Z</time>
      </trkpt>
      <trkpt lat="36.77958" lon="-4.65508">
        <ele>364.5568</ele>
        <time>2021-07-16T13:44:33Z</time>
      </trkpt>
      <trkpt lat="36.78054" lon="-4.65415">
        <ele>380.6916</ele>
        <time>2021-07-16T13:44:44Z</time>
      </trkpt>
      <trkpt lat="36.78136" lon="-4.65389">
        <ele>396.7938</ele>
        <time>2021-07-16T13:44:55Z</time>
      </trkpt>
      <trkpt lat="36.78277" lon="-4.65311">
        <ele>404.0155</ele>
        <time>2021-07-16T13:45:06Z</time>
      </trkpt>
      <trkpt lat="36.78439" lon="-4.65314">
        <ele>409.8963</ele>
        <time>2021-07-16T13:45:17Z</time>
      </trkpt>
      <trkpt lat="36.78549" lon="-4.65252">
        <ele>432.9959</ele>
        <time>2021-07-16T13:45:28Z</time>
      </trkpt>
      <trkpt lat="36.78624" lon="-4.65139">
        <ele>439.2544</ele>
        <time>2021-07-16T13:45:39Z</time>
      </trkpt>
      <trkpt lat="36.78691" lon="-4.65059">
        <ele>437.0207</ele>
        <time>2021-07-16T13:45:50Z</time>
      </trkpt>
      <trkpt lat="36.78705" lon="-4.64948">
        <ele>440.863</ele>
        <time>2021-07-16T13:46:01Z</time>
      </trkpt>
      <trkpt lat="36.78722" lon="-4.64831">
        <ele>440.7239</ele>
        <time>2021-07-16T13:46:12Z</time>
      </trkpt>
      <trkpt lat="36.78753" lon="-4.64758">
        <ele>438.364</ele>
        <time>2021-07-16T13:46:23Z</time>
      </trkpt>
      <trkpt lat="36.78768" lon="-4.64749">
        <ele>437.6624</ele>
        <time>2021-07-16T13:46:34Z</time>
      </trkpt>
      <trkpt lat="36.78804" lon="-4.64728">
        <ele>437.1637</ele>
        <time>2021-07-16T13:46:45Z</time>
      </trkpt>
      <trkpt lat="36.78927" lon="-4.64672">
        <ele>447.5744</ele>
        <time>2021-07-16T13:46:56Z</time>
      </trkpt>
      <trkpt lat="36.79018" lon="-4.64564">
        <ele>447.5868</ele>
        <time>2021-07-16T13:47:07Z</time>
      </trkpt>
      <trkpt lat="36.79045" lon="-4.64435">
        <ele>450.034</ele>
        <time>2021-07-16T13:47:18Z</time>
      </trkpt>
      <trkpt lat="36.79116" lon="-4.64323">
        <ele>454.8168</ele>
        <time>2021-07-16T13:47:30Z</time>
      </trkpt>
      <trkpt lat="36.79205" lon="-4.64314">
        <ele>453.0954</ele>
        <time>2021-07-16T13:47:41Z</time>
      </trkpt>
      <trkpt lat="36.79173" lon="-4.64227">
        <ele>437.2793</ele>
        <time>2021-07-16T13:47:52Z</time>
      </trkpt>
      <trkpt lat="36.79148" lon="-4.64092">
        <ele>439.0363</ele>
        <time>2021-07-16T13:48:03Z</time>
      </trkpt>
      <trkpt lat="36.79144" lon="-4.63978">
        <ele>444.3426</ele>
        <time>2021-07-16T13:48:14Z</time>
      </trkpt>
      <trkpt lat="36.7919" lon="-4.6387">
        <ele>459.46</ele>
        <time>2021-07-16T13:48:25Z</time>
      </trkpt>
      <trkpt lat="36.79229" lon="-4.63715">
        <ele>473.7206</ele>
        <time>2021-07-16T13:48:36Z</time>
      </trkpt>
      <trkpt lat="36.79294" lon="-4.63701">
        <ele>467.5775</ele>
        <time>2021-07-16T13:48:47Z</time>
      </trkpt>
      <trkpt lat="36.79344" lon="-4.63765">
        <ele>474.6298</ele>
        <time>2021-07-16T13:48:58Z</time>
      </trkpt>
      <trkpt lat="36.79402" lon="-4.63707">
        <ele>480.0647</ele>
        <time>2021-07-16T13:49:09Z</time>
      </trkpt>
      <trkpt lat="36.79485" lon="-4.63643">
        <ele>487.7317</ele>
        <time>2021-07-16T13:49:20Z</time>
      </trkpt>
      <trkpt lat="36.79573" lon="-4.63623">
        <ele>483.7297</ele>
        <time>2021-07-16T13:49:31Z</time>
      </trkpt>
      <trkpt lat="36.79612" lon="-4.63537">
        <ele>500.9082</ele>
        <time>2021-07-16T13:49:42Z</time>
      </trkpt>
      <trkpt lat="36.79676" lon="-4.63422">
        <ele>509.9138</ele>
        <time>2021-07-16T13:49:53Z</time>
      </trkpt>
      <trkpt lat="36.7973" lon="-4.63282">
        <ele>525.5272</ele>
        <time>2021-07-16T13:50:04Z</time>
      </trkpt>
      <trkpt lat="36.79777" lon="-4.63168">
        <ele>540.523</ele>
        <time>2021-07-16T13:50:15Z</time>
      </trkpt>
      <trkpt lat="36.79738" lon="-4.63088">
        <ele>527.4934</ele>
        <time>2021-07-16T13:50:26Z</time>
      </trkpt>
      <trkpt lat="36.79788" lon="-4.63027">
        <ele>533.1237</ele>
        <time>2021-07-16T13:50:37Z</time>
      </trkpt>
      <trkpt lat="36.79799" lon="-4.63002">
        <ele>531.7555</ele>
        <time>2021-07-16T13:50:48Z</time>
      </trkpt>
      <trkpt lat="36.798" lon="-4.63001">
        <ele>531.1164</ele>
        <time>2021-07-16T13:51:48Z</time>
      </trkpt>
      <trkpt lat="36.798" lon="-4.63001">
        <ele>531.1206</ele>
        <time>2021-07-16T13:52:48Z</time>
      </trkpt>
      <trkpt lat="36.79799" lon="-4.63001">
        <ele>531.7264</ele>
        <time>2021-07-16T13:53:48Z</time>
      </trkpt>
      <trkpt lat="36.79805" lon="-4.63001">
        <ele>531.9625</ele>
        <time>2021-07-16T13:54:03Z</time>
      </trkpt>
      <trkpt lat="36.79889" lon="-4.63098">
        <ele>533.6091</ele>
        <time>2021-07-16T13:54:14Z</time>
      </trkpt>
      <trkpt lat="36.80011" lon="-4.6301">
        <ele>521.8737</ele>
        <time>2021-07-16T13:54:25Z</time>
      </trkpt>
      <trkpt lat="36.80133" lon="-4.62922">
        <ele>519.3517</ele>
        <time>2021-07-16T13:54:36Z</time>
      </trkpt>
      <trkpt lat="36.80255" lon="-4.62886">
        <ele>535.3188</ele>
        <time>2021-07-16T13:54:47Z</time>
      </trkpt>
      <trkpt lat="36.8038" lon="-4.62903">
        <ele>547.5774</ele>
        <time>2021-07-16T13:54:58Z</time>
      </trkpt>
      <trkpt lat="36.80508" lon="-4.62833">
        <ele>544.8188</ele>
        <time>2021-07-16T13:55:09Z</time>
      </trkpt>
      <trkpt lat="36.80631" lon="-4.62702">
        <ele>541.7759</ele>
        <time>2021-07-16T13:55:20Z</time>
      </trkpt>
      <trkpt lat="36.80758" lon="-4.62683">
        <ele>554.3869</ele>
        <time>2021-07-16T13:55:31Z</time>
      </trkpt>
      <trkpt lat="36.80877" lon="-4.62566">
        <ele>573.4951</ele>
        <time>2021-07-16T13:55:42Z</time>
      </trkpt>
      <trkpt lat="36.80969" lon="-4.62513">
        <ele>577.3427</ele>
        <time>2021-07-16T13:55:53Z</time>
      </trkpt>
      <trkpt lat="36.81106" lon="-4.62543">
        <ele>593.4039</ele>
        <time>2021-07-16T13:56:04Z</time>
      </trkpt>
      <trkpt lat="36.81208" lon="-4.62545">
        <ele>602.5688</ele>
        <time>2021-07-16T13:56:15Z</time>
      </trkpt>
      <trkpt lat="36.81291" lon="-4.62526">
        <ele>595.2281</ele>
        <time>2021-07-16T13:56:26Z</time>
      </trkpt>
      <trkpt lat="36.81318" lon="-4.62514">
        <ele>589.4564</ele>
        <time>2021-07-16T13:56:37Z</time>
      </trkpt>
      <trkpt lat="36.81326" lon="-4.62405">
        <ele>575.9098</ele>
        <time>2021-07-16T13:56:48Z</time>
      </trkpt>
      <trkpt lat="36.81385" lon="-4.62269">
        <ele>582.0698</ele>
        <time>2021-07-16T13:56:59Z</time>
      </trkpt>
      <trkpt lat="36.81407" lon="-4.62155">
        <ele>577.1114</ele>
        <time>2021-07-16T13:57:10Z</time>
      </trkpt>
      <trkpt lat="36.81431" lon="-4.62055">
        <ele>566.2745</ele>
        <time>2021-07-16T13:57:21Z</time>
      </trkpt>
      <trkpt lat="36.81497" lon="-4.61934">
        <ele>552.0883</ele>
        <time>2021-07-16T13:57:32Z</time>
      </trkpt>
      <trkpt lat="36.81587" lon="-4.61812">
        <ele>536.1866</ele>
        <time>2021-07-16T13:57:43Z</time>
      </trkpt>
      <trkpt lat="36.81611" lon="-4.61673">
        <ele>523.0284</ele>
        <time>2021-07-16T13:57:54Z</time>
      </trkpt>
      <trkpt lat="36.81678" lon="-4.61576">
        <ele>539.1347</ele>
        <time>2021-07-16T13:58:05Z</time>
      </trkpt>
      <trkpt lat="36.81784" lon="-4.61531">
        <ele>560.2397</ele>
        <time>2021-07-16T13:58:16Z</time>
      </trkpt>
      <trkpt lat="36.81869" lon="-4.61438">
        <ele>559.3357</ele>
        <time>2021-07-16T13:58:27Z</time>
      </trkpt>
      <trkpt lat="36.81976" lon="-4.6137">
        <ele>572.3791</ele>
        <time>2021-07-16T13:58:38Z</time>
      </trkpt>
      <trkpt lat="36.8208" lon="-4.61314">
        <ele>571.4645</ele>
        <time>2021-07-16T13:58:49Z</time>
      </trkpt>
      <trkpt lat="36.82157" lon="-4.61214">
        <ele>575.5286</ele>
        <time>2021-07-16T13:59:00Z</time>
      </trkpt>
      <trkpt lat="36.82231" lon="-4.61173">
        <ele>585.1628</ele>
        <time>2021-07-16T13:59:11Z</time>
      </trkpt>
      <trkpt lat="36.8222" lon="-4.61042">
        <ele>587.3422</ele>
        <time>2021-07-16T13:59:22Z</time>
      </trkpt>
      <trkpt lat="36.82274" lon="-4.60931">
        <ele>601.8241</ele>
        <time>2021-07-16T13:59:33Z</time>
      </trkpt>
      <trkpt lat="36.82278" lon="-4.60932">
        <ele>622.9982</ele>
        <time>2021-07-16T13:59:48Z</time>
      </trkpt>
      <trkpt lat="36.82346" lon="-4.60895">
        <ele>638.8668</ele>
        <time>2021-07-16T13:59:59Z</time>
      </trkpt>
      <trkpt lat="36.82364" lon="-4.60817">
        <ele>643.7163</ele>
        <time>2021-07-16T14:00:10Z</time>
      </trkpt>
      <trkpt lat="36.82366" lon="-4.608">
        <ele>640.8817</ele>
        <time>2021-07-16T14:00:21Z</time>
      </trkpt>
      <trkpt lat="36.82367" lon="-4.60792">
        <ele>640.5347</ele>
        <time>2021-07-16T14:00:47Z</time>
      </trkpt>
      <trkpt lat="36.82384" lon="-4.60675">
        <ele>654.2988</ele>
        <time>2021-07-16T14:00:59Z</time>
      </trkpt>
      <trkpt lat="36.82354" lon="-4.60573">
        <ele>656.7859</ele>
        <time>2021-07-16T14:01:10Z</time>
      </trkpt>
      <trkpt lat="36.82376" lon="-4.60497">
        <ele>666.857</ele>
        <time>2021-07-16T14:01:21Z</time>
      </trkpt>
      <trkpt lat="36.82343" lon="-4.60406">
        <ele>672.4833</ele>
        <time>2021-07-16T14:01:32Z</time>
      </trkpt>
      <trkpt lat="36.82313" lon="-4.60285">
        <ele>679.497</ele>
        <time>2021-07-16T14:01:43Z</time>
      </trkpt>
      <trkpt lat="36.82253" lon="-4.60206">
        <ele>680.6473</ele>
        <time>2021-07-16T14:01:54Z</time>
      </trkpt>
      <trkpt lat="36.82235" lon="-4.60069">
        <ele>681.6845</ele>
        <time>2021-07-16T14:02:05Z</time>
      </trkpt>
      <trkpt lat="36.82256" lon="-4.59985">
        <ele>682.4725</ele>
        <time>2021-07-16T14:02:16Z</time>
      </trkpt>
      <trkpt lat="36.82312" lon="-4.59835">
        <ele>694.5956</ele>
        <time>2021-07-16T14:02:27Z</time>
      </trkpt>
      <trkpt lat="36.82401" lon="-4.59755">
        <ele>705.0341</ele>
        <time>2021-07-16T14:02:38Z</time>
      </trkpt>
      <trkpt lat="36.82438" lon="-4.59821">
        <ele>710.464</ele>
        <time>2021-07-16T14:02:49Z</time>
      </trkpt>
      <trkpt lat="36.82479" lon="-4.59844">
        <ele>714.6932</ele>
        <time>2021-07-16T14:03:00Z</time>
      </trkpt>
      <trkpt lat="36.8257" lon="-4.59788">
        <ele>715.5693</ele>
        <time>2021-07-16T14:03:11Z</time>
      </trkpt>
      <trkpt lat="36.82612" lon="-4.59729">
        <ele>723.7309</ele>
        <time>2021-07-16T14:03:22Z</time>
      </trkpt>
      <trkpt lat="36.82665" lon="-4.59663">
        <ele>730.5393</ele>
        <time>2021-07-16T14:03:33Z</time>
      </trkpt>
      <trkpt lat="36.82719" lon="-4.59616">
        <ele>724.381</ele>
        <time>2021-07-16T14:03:44Z</time>
      </trkpt>
      <trkpt lat="36.82758" lon="-4.5949">
        <ele>724.7294</ele>
        <time>2021-07-16T14:03:55Z</time>
      </trkpt>
      <trkpt lat="36.82726" lon="-4.59399">
        <ele>716.623</ele>
        <time>2021-07-16T14:04:06Z</time>
      </trkpt>
      <trkpt lat="36.82749" lon="-4.59267">
        <ele>700.0036</ele>
        <time>2021-07-16T14:04:17Z</time>
      </trkpt>
      <trkpt lat="36.82846" lon="-4.59202">
        <ele>673.9815</ele>
        <time>2021-07-16T14:04:28Z</time>
      </trkpt>
      <trkpt lat="36.82929" lon="-4.59163">
        <ele>654.5459</ele>
        <time>2021-07-16T14:04:39Z</time>
      </trkpt>
      <trkpt lat="36.83001" lon="-4.59077">
        <ele>661.7657</ele>
        <time>2021-07-16T14:04:50Z</time>
      </trkpt>
      <trkpt lat="36.83019" lon="-4.5904">
        <ele>665.8791</ele>
        <time>2021-07-16T14:05:01Z</time>
      </trkpt>
      <trkpt lat="36.83081" lon="-4.58962">
        <ele>674.695</ele>
        <time>2021-07-16T14:05:12Z</time>
      </trkpt>
      <trkpt lat="36.8313" lon="-4.58859">
        <ele>673.1641</ele>
        <time>2021-07-16T14:05:23Z</time>
      </trkpt>
      <trkpt lat="36.83199" lon="-4.58707">
        <ele>666.1326</ele>
        <time>2021-07-16T14:05:34Z</time>
      </trkpt>
      <trkpt lat="36.8325" lon="-4.58563">
        <ele>661.3903</ele>
        <time>2021-07-16T14:05:45Z</time>
      </trkpt>
      <trkpt lat="36.83279" lon="-4.58385">
        <ele>648.2969</ele>
        <time>2021-07-16T14:05:56Z</time>
      </trkpt>
      <trkpt lat="36.83291" lon="-4.5827">
        <ele>637.5056</ele>
        <time>2021-07-16T14:06:07Z</time>
      </trkpt>
      <trkpt lat="36.83353" lon="-4.58216">
        <ele>634.1476</ele>
        <time>2021-07-16T14:06:18Z</time>
      </trkpt>
      <trkpt lat="36.83366" lon="-4.58116">
        <ele>636.4043</ele>
        <time>2021-07-16T14:06:29Z</time>
      </trkpt>
      <trkpt lat="36.83427" lon="-4.58005">
        <ele>636.7345</ele>
        <time>2021-07-16T14:06:40Z</time>
      </trkpt>
      <trkpt lat="36.83482" lon="-4.57916">
        <ele>628.4384</ele>
        <time>2021-07-16T14:06:51Z</time>
      </trkpt>
      <trkpt lat="36.83493" lon="-4.57829">
        <ele>598.3595</ele>
        <time>2021-07-16T14:07:02Z</time>
      </trkpt>
      <trkpt lat="36.83571" lon="-4.57733">
        <ele>594.0793</ele>
        <time>2021-07-16T14:07:13Z</time>
      </trkpt>
      <trkpt lat="36.83652" lon="-4.57663">
        <ele>604.9941</ele>
        <time>2021-07-16T14:07:24Z</time>
      </trkpt>
      <trkpt lat="36.83715" lon="-4.57641">
        <ele>611.2338</ele>
        <time>2021-07-16T14:07:35Z</time>
      </trkpt>
      <trkpt lat="36.83724" lon="-4.57537">
        <ele>611.0105</ele>
        <time>2021-07-16T14:07:46Z</time>
      </trkpt>
      <trkpt lat="36.83845" lon="-4.57495">
        <ele>608.9171</ele>
        <time>2021-07-16T14:07:57Z</time>
      </trkpt>
      <trkpt lat="36.83908" lon="-4.57459">
        <ele>598.4126</ele>
        <time>2021-07-16T14:08:08Z</time>
      </trkpt>
      <trkpt lat="36.83949" lon="-4.574">
        <ele>593.2325</ele>
        <time>2021-07-16T14:08:19Z</time>
      </trkpt>
      <trkpt lat="36.83985" lon="-4.57338">
        <ele>593.8919</ele>
        <time>2021-07-16T14:08:30Z</time>
      </trkpt>
      <trkpt lat="36.84061" lon="-4.57316">
        <ele>591.2258</ele>
        <time>2021-07-16T14:08:41Z</time>
      </trkpt>
      <trkpt lat="36.84132" lon="-4.5727">
        <ele>577.243</ele>
        <time>2021-07-16T14:08:52Z</time>
      </trkpt>
      <trkpt lat="36.84224" lon="-4.57269">
        <ele>558.8768</ele>
        <time>2021-07-16T14:09:03Z</time>
      </trkpt>
      <trkpt lat="36.84273" lon="-4.57183">
        <ele>533.1233</ele>
        <time>2021-07-16T14:09:14Z</time>
      </trkpt>
      <trkpt lat="36.84332" lon="-4.57159">
        <ele>522.2908</ele>
        <time>2021-07-16T14:09:25Z</time>
      </trkpt>
      <trkpt lat="36.84421" lon="-4.57154">
        <ele>520.2756</ele>
        <time>2021-07-16T14:09:36Z</time>
      </trkpt>
      <trkpt lat="36.84481" lon="-4.57148">
        <ele>513.3945</ele>
        <time>2021-07-16T14:09:47Z</time>
      </trkpt>
      <trkpt lat="36.8459" lon="-4.57104">
        <ele>508.6105</ele>
        <time>2021-07-16T14:09:58Z</time>
      </trkpt>
      <trkpt lat="36.84685" lon="-4.57059">
        <ele>504.5308</ele>
        <time>2021-07-16T14:10:09Z</time>
      </trkpt>
      <trkpt lat="36.84765" lon="-4.57012">
        <ele>495.9339</ele>
        <time>2021-07-16T14:10:20Z</time>
      </trkpt>
      <trkpt lat="36.84859" lon="-4.56982">
        <ele>485.7673</ele>
        <time>2021-07-16T14:10:31Z</time>
      </trkpt>
      <trkpt lat="36.84941" lon="-4.56887">
        <ele>474.696</ele>
        <time>2021-07-16T14:10:42Z</time>
      </trkpt>
      <trkpt lat="36.84927" lon="-4.56823">
        <ele>478.8297</ele>
        <time>2021-07-16T14:10:53Z</time>
      </trkpt>
      <trkpt lat="36.84979" lon="-4.56735">
        <ele>480.9819</ele>
        <time>2021-07-16T14:11:04Z</time>
      </trkpt>
      <trkpt lat="36.8504" lon="-4.5668">
        <ele>469.671</ele>
        <time>2021-07-16T14:11:15Z</time>
      </trkpt>
      <trkpt lat="36.85121" lon="-4.56674">
        <ele>475.8681</ele>
        <time>2021-07-16T14:11:26Z</time>
      </trkpt>
      <trkpt lat="36.85111" lon="-4.56588">
        <ele>475.2074</ele>
        <time>2021-07-16T14:11:37Z</time>
      </trkpt>
      <trkpt lat="36.85159" lon="-4.56539">
        <ele>473.0514</ele>
        <time>2021-07-16T14:11:48Z</time>
      </trkpt>
      <trkpt lat="36.85131" lon="-4.56501">
        <ele>476.5259</ele>
        <time>2021-07-16T14:11:59Z</time>
      </trkpt>
      <trkpt lat="36.85062" lon="-4.5646">
        <ele>484.2429</ele>
        <time>2021-07-16T14:12:10Z</time>
      </trkpt>
      <trkpt lat="36.85099" lon="-4.56391">
        <ele>480.5925</ele>
        <time>2021-07-16T14:12:21Z</time>
      </trkpt>
      <trkpt lat="36.85189" lon="-4.56345">
        <ele>476.3192</ele>
        <time>2021-07-16T14:12:32Z</time>
      </trkpt>
      <trkpt lat="36.85271" lon="-4.56258">
        <ele>469.8285</ele>
        <time>2021-07-16T14:12:43Z</time>
      </trkpt>
      <trkpt lat="36.85373" lon="-4.56165">
        <ele>478.1381</ele>
        <time>2021-07-16T14:12:54Z</time>
      </trkpt>
      <trkpt lat="36.85492" lon="-4.56119">
        <ele>477.6867</ele>
        <time>2021-07-16T14:13:05Z</time>
      </trkpt>
      <trkpt lat="36.85621" lon="-4.56076">
        <ele>477.4603</ele>
        <time>2021-07-16T14:13:16Z</time>
      </trkpt>
      <trkpt lat="36.85736" lon="-4.5593">
        <ele>464.2424</ele>
        <time>2021-07-16T14:13:27Z</time>
      </trkpt>
      <trkpt lat="36.85758" lon="-4.55846">
        <ele>459.8153</ele>
        <time>2021-07-16T14:13:38Z</time>
      </trkpt>
      <trkpt lat="36.85759" lon="-4.55839">
        <ele>466.7091</ele>
        <time>2021-07-16T14:14:09Z</time>
      </trkpt>
      <trkpt lat="36.85865" lon="-4.55773">
        <ele>474.9066</ele>
        <time>2021-07-16T14:14:20Z</time>
      </trkpt>
      <trkpt lat="36.86007" lon="-4.55764">
        <ele>488.4874</ele>
        <time>2021-07-16T14:14:31Z</time>
      </trkpt>
      <trkpt lat="36.8613" lon="-4.55658">
        <ele>497.9853</ele>
        <time>2021-07-16T14:14:42Z</time>
      </trkpt>
      <trkpt lat="36.86256" lon="-4.55575">
        <ele>511.3855</ele>
        <time>2021-07-16T14:14:53Z</time>
      </trkpt>
      <trkpt lat="36.86384" lon="-4.55488">
        <ele>513.3453</ele>
        <time>2021-07-16T14:15:04Z</time>
      </trkpt>
      <trkpt lat="36.8648" lon="-4.55391">
        <ele>503.6677</ele>
        <time>2021-07-16T14:15:15Z</time>
      </trkpt>
      <trkpt lat="36.86432" lon="-4.55212">
        <ele>500.3476</ele>
        <time>2021-07-16T14:15:26Z</time>
      </trkpt>
      <trkpt lat="36.86401" lon="-4.55115">
        <ele>500.3621</ele>
        <time>2021-07-16T14:15:37Z</time>
      </trkpt>
      <trkpt lat="36.86414" lon="-4.55116">
        <ele>501.2157</ele>
        <time>2021-07-16T14:15:48Z</time>
      </trkpt>
      <trkpt lat="36.86409" lon="-4.5512">
        <ele>500.7568</ele>
        <time>2021-07-16T14:16:00Z</time>
      </trkpt>
      <trkpt lat="36.86327" lon="-4.55088">
        <ele>503.6843</ele>
        <time>2021-07-16T14:16:11Z</time>
      </trkpt>
      <trkpt lat="36.86397" lon="-4.55023">
        <ele>504.6865</ele>
        <time>2021-07-16T14:16:22Z</time>
      </trkpt>
      <trkpt lat="36.86497" lon="-4.54939">
        <ele>508.9815</ele>
        <time>2021-07-16T14:16:33Z</time>
      </trkpt>
      <trkpt lat="36.86596" lon="-4.54839">
        <ele>510.5086</ele>
        <time>2021-07-16T14:16:44Z</time>
      </trkpt>
      <trkpt lat="36.866" lon="-4.54661">
        <ele>513.421</ele>
        <time>2021-07-16T14:16:55Z</time>
      </trkpt>
      <trkpt lat="36.86633" lon="-4.54465">
        <ele>518.1467</ele>
        <time>2021-07-16T14:17:06Z</time>
      </trkpt>
      <trkpt lat="36.86646" lon="-4.54296">
        <ele>520.3733</ele>
        <time>2021-07-16T14:17:17Z</time>
      </trkpt>
      <trkpt lat="36.8675" lon="-4.54268">
        <ele>528.0437</ele>
        <time>2021-07-16T14:17:28Z</time>
      </trkpt>
      <trkpt lat="36.86839" lon="-4.54293">
        <ele>530.9559</ele>
        <time>2021-07-16T14:17:39Z</time>
      </trkpt>
      <trkpt lat="36.86884" lon="-4.54321">
        <ele>531.1268</ele>
        <time>2021-07-16T14:17:50Z</time>
      </trkpt>
      <trkpt lat="36.86888" lon="-4.54329">
        <ele>528.4387</ele>
        <time>2021-07-16T14:18:04Z</time>
      </trkpt>
      <trkpt lat="36.86933" lon="-4.54424">
        <ele>518.7069</ele>
        <time>2021-07-16T14:18:15Z</time>
      </trkpt>
      <trkpt lat="36.86981" lon="-4.54457">
        <ele>516.9192</ele>
        <time>2021-07-16T14:18:26Z</time>
      </trkpt>
      <trkpt lat="36.87037" lon="-4.545">
        <ele>513.6341</ele>
        <time>2021-07-16T14:18:37Z</time>
      </trkpt>
      <trkpt lat="36.8703" lon="-4.5459">
        <ele>503.4134</ele>
        <time>2021-07-16T14:18:48Z</time>
      </trkpt>
      <trkpt lat="36.87068" lon="-4.54598">
        <ele>504.0263</ele>
        <time>2021-07-16T14:18:59Z</time>
      </trkpt>
      <trkpt lat="36.87158" lon="-4.54548">
        <ele>514.5771</ele>
        <time>2021-07-16T14:19:10Z</time>
      </trkpt>
      <trkpt lat="36.87236" lon="-4.54536">
        <ele>506.883</ele>
        <time>2021-07-16T14:19:21Z</time>
      </trkpt>
      <trkpt lat="36.87329" lon="-4.5456">
        <ele>500.3116</ele>
        <time>2021-07-16T14:19:32Z</time>
      </trkpt>
      <trkpt lat="36.87383" lon="-4.54451">
        <ele>495.898</ele>
        <time>2021-07-16T14:19:43Z</time>
      </trkpt>
      <trkpt lat="36.87445" lon="-4.54357">
        <ele>488.5353</ele>
        <time>2021-07-16T14:19:54Z</time>
      </trkpt>
      <trkpt lat="36.8754" lon="-4.54326">
        <ele>478.4349</ele>
        <time>2021-07-16T14:20:05Z</time>
      </trkpt>
      <trkpt lat="36.87634" lon="-4.54295">
        <ele>467.5825</ele>
        <time>2021-07-16T14:20:16Z</time>
      </trkpt>
      <trkpt lat="36.87667" lon="-4.54192">
        <ele>458.378</ele>
        <time>2021-07-16T14:20:27Z</time>
      </trkpt>
      <trkpt lat="36.87707" lon="-4.54042">
        <ele>448.3184</ele>
        <time>2021-07-16T14:20:38Z</time>
      </trkpt>
      <trkpt lat="36.87784" lon="-4.53879">
        <ele>437.3009</ele>
        <time>2021-07-16T14:20:49Z</time>
      </trkpt>
      <trkpt lat="36.87869" lon="-4.53695">
        <ele>424.9551</ele>
        <time>2021-07-16T14:21:00Z</time>
      </trkpt>
      <trkpt lat="36.87925" lon="-4.53566">
        <ele>416.0442</ele>
        <time>2021-07-16T14:21:11Z</time>
      </trkpt>
      <trkpt lat="36.87921" lon="-4.53524">
        <ele>411.6136</ele>
        <time>2021-07-16T14:21:22Z</time>
      </trkpt>
      <trkpt lat="36.87884" lon="-4.53501">
        <ele>401.3802</ele>
        <time>2021-07-16T14:21:33Z</time>
      </trkpt>
      <trkpt lat="36.87844" lon="-4.53426">
        <ele>387.1796</ele>
        <time>2021-07-16T14:21:44Z</time>
      </trkpt>
      <trkpt lat="36.87841" lon="-4.53322">
        <ele>378.1461</ele>
        <time>2021-07-16T14:21:55Z</time>
      </trkpt>
      <trkpt lat="36.87903" lon="-4.53275">
        <ele>375.6786</ele>
        <time>2021-07-16T14:22:06Z</time>
      </trkpt>
      <trkpt lat="36.88009" lon="-4.53269">
        <ele>372.8316</ele>
        <time>2021-07-16T14:22:17Z</time>
      </trkpt>
      <trkpt lat="36.8809" lon="-4.5325">
        <ele>355.5985</ele>
        <time>2021-07-16T14:22:28Z</time>
      </trkpt>
      <trkpt lat="36.88161" lon="-4.53281">
        <ele>333.4612</ele>
        <time>2021-07-16T14:22:39Z</time>
      </trkpt>
      <trkpt lat="36.88211" lon="-4.53358">
        <ele>334.9732</ele>
        <time>2021-07-16T14:22:50Z</time>
      </trkpt>
      <trkpt lat="36.88267" lon="-4.53302">
        <ele>358.7962</ele>
        <time>2021-07-16T14:23:01Z</time>
      </trkpt>
      <trkpt lat="36.88329" lon="-4.53268">
        <ele>380.716</ele>
        <time>2021-07-16T14:23:12Z</time>
      </trkpt>
      <trkpt lat="36.88386" lon="-4.53341">
        <ele>401.4333</ele>
        <time>2021-07-16T14:23:23Z</time>
      </trkpt>
      <trkpt lat="36.88457" lon="-4.53315">
        <ele>414.5348</ele>
        <time>2021-07-16T14:23:34Z</time>
      </trkpt>
      <trkpt lat="36.8853" lon="-4.53265">
        <ele>419.2142</ele>
        <time>2021-07-16T14:23:45Z</time>
      </trkpt>
      <trkpt lat="36.88533" lon="-4.53079">
        <ele>415.9517</ele>
        <time>2021-07-16T14:23:56Z</time>
      </trkpt>
      <trkpt lat="36.88536" lon="-4.52895">
        <ele>403.6817</ele>
        <time>2021-07-16T14:24:07Z</time>
      </trkpt>
      <trkpt lat="36.88579" lon="-4.52751">
        <ele>406.194</ele>
        <time>2021-07-16T14:24:18Z</time>
      </trkpt>
      <trkpt lat="36.88604" lon="-4.52611">
        <ele>400.9302</ele>
        <time>2021-07-16T14:24:29Z</time>
      </trkpt>
      <trkpt lat="36.88637" lon="-4.52476">
        <ele>394.0206</ele>
        <time>2021-07-16T14:24:40Z</time>
      </trkpt>
      <trkpt lat="36.88649" lon="-4.52341">
        <ele>378.3855</ele>
        <time>2021-07-16T14:24:51Z</time>
      </trkpt>
      <trkpt lat="36.88632" lon="-4.52212">
        <ele>360.5873</ele>
        <time>2021-07-16T14:25:02Z</time>
      </trkpt>
      <trkpt lat="36.88602" lon="-4.52064">
        <ele>355.7121</ele>
        <time>2021-07-16T14:25:13Z</time>
      </trkpt>
      <trkpt lat="36.88622" lon="-4.51915">
        <ele>359.1243</ele>
        <time>2021-07-16T14:25:24Z</time>
      </trkpt>
      <trkpt lat="36.88602" lon="-4.51814">
        <ele>363.6692</ele>
        <time>2021-07-16T14:25:35Z</time>
      </trkpt>
      <trkpt lat="36.88581" lon="-4.51714">
        <ele>351.2615</ele>
        <time>2021-07-16T14:25:47Z</time>
      </trkpt>
      <trkpt lat="36.88532" lon="-4.51651">
        <ele>353.1175</ele>
        <time>2021-07-16T14:25:58Z</time>
      </trkpt>
      <trkpt lat="36.88486" lon="-4.51582">
        <ele>372.4575</ele>
        <time>2021-07-16T14:26:09Z</time>
      </trkpt>
      <trkpt lat="36.88488" lon="-4.51535">
        <ele>377.718</ele>
        <time>2021-07-16T14:26:20Z</time>
      </trkpt>
      <trkpt lat="36.88502" lon="-4.51507">
        <ele>382.0272</ele>
        <time>2021-07-16T14:26:31Z</time>
      </trkpt>
      <trkpt lat="36.88593" lon="-4.51384">
        <ele>368.0901</ele>
        <time>2021-07-16T14:26:42Z</time>
      </trkpt>
      <trkpt lat="36.88661" lon="-4.51378">
        <ele>365.1371</ele>
        <time>2021-07-16T14:26:53Z</time>
      </trkpt>
      <trkpt lat="36.88788" lon="-4.51441">
        <ele>364.5605</ele>
        <time>2021-07-16T14:27:04Z</time>
      </trkpt>
      <trkpt lat="36.88954" lon="-4.51538">
        <ele>363.3857</ele>
        <time>2021-07-16T14:27:15Z</time>
      </trkpt>
      <trkpt lat="36.89111" lon="-4.51561">
        <ele>368.9359</ele>
        <time>2021-07-16T14:27:26Z</time>
      </trkpt>
      <trkpt lat="36.89304" lon="-4.51572">
        <ele>359.7838</ele>
        <time>2021-07-16T14:27:37Z</time>
      </trkpt>
      <trkpt lat="36.89463" lon="-4.51746">
        <ele>362.2117</ele>
        <time>2021-07-16T14:27:48Z</time>
      </trkpt>
      <trkpt lat="36.89603" lon="-4.51976">
        <ele>365.2081</ele>
        <time>2021-07-16T14:27:59Z</time>
      </trkpt>
      <trkpt lat="36.89745" lon="-4.52216">
        <ele>371.3027</ele>
        <time>2021-07-16T14:28:10Z</time>
      </trkpt>
      <trkpt lat="36.89861" lon="-4.52408">
        <ele>382.8948</ele>
        <time>2021-07-16T14:28:21Z</time>
      </trkpt>
      <trkpt lat="36.89872" lon="-4.52668">
        <ele>383.7957</ele>
        <time>2021-07-16T14:28:32Z</time>
      </trkpt>
      <trkpt lat="36.90028" lon="-4.527">
        <ele>391.1381</ele>
        <time>2021-07-16T14:28:43Z</time>
      </trkpt>
      <trkpt lat="36.90243" lon="-4.52647">
        <ele>398.5336</ele>
        <time>2021-07-16T14:28:54Z</time>
      </trkpt>
      <trkpt lat="36.9044" lon="-4.5258">
        <ele>406.3852</ele>
        <time>2021-07-16T14:29:05Z</time>
      </trkpt>
      <trkpt lat="36.90623" lon="-4.52484">
        <ele>415.5018</ele>
        <time>2021-07-16T14:29:16Z</time>
      </trkpt>
      <trkpt lat="36.90821" lon="-4.52328">
        <ele>413.3261</ele>
        <time>2021-07-16T14:29:27Z</time>
      </trkpt>
      <trkpt lat="36.91029" lon="-4.52304">
        <ele>417.7861</ele>
        <time>2021-07-16T14:29:38Z</time>
      </trkpt>
      <trkpt lat="36.9121" lon="-4.52343">
        <ele>412.2679</ele>
        <time>2021-07-16T14:29:49Z</time>
      </trkpt>
      <trkpt lat="36.91437" lon="-4.52355">
        <ele>415.6891</ele>
        <time>2021-07-16T14:30:00Z</time>
      </trkpt>
      <trkpt lat="36.91622" lon="-4.52364">
        <ele>423.8739</ele>
        <time>2021-07-16T14:30:11Z</time>
      </trkpt>
      <trkpt lat="36.91703" lon="-4.52384">
        <ele>424.6679</ele>
        <time>2021-07-16T14:30:22Z</time>
      </trkpt>
      <trkpt lat="36.91808" lon="-4.52467">
        <ele>430.0184</ele>
        <time>2021-07-16T14:30:33Z</time>
      </trkpt>
      <trkpt lat="36.9185" lon="-4.52544">
        <ele>442.1471</ele>
        <time>2021-07-16T14:30:44Z</time>
      </trkpt>
      <trkpt lat="36.91927" lon="-4.52546">
        <ele>449.7251</ele>
        <time>2021-07-16T14:30:55Z</time>
      </trkpt>
      <trkpt lat="36.9209" lon="-4.52571">
        <ele>464.6074</ele>
        <time>2021-07-16T14:31:06Z</time>
      </trkpt>
      <trkpt lat="36.92266" lon="-4.52607">
        <ele>480.5038</ele>
        <time>2021-07-16T14:31:17Z</time>
      </trkpt>
      <trkpt lat="36.92419" lon="-4.52542">
        <ele>497.3375</ele>
        <time>2021-07-16T14:31:28Z</time>
      </trkpt>
      <trkpt lat="36.92531" lon="-4.52604">
        <ele>511.8817</ele>
        <time>2021-07-16T14:31:39Z</time>
      </trkpt>
      <trkpt lat="36.92585" lon="-4.52696">
        <ele>523.6167</ele>
        <time>2021-07-16T14:31:50Z</time>
      </trkpt>
      <trkpt lat="36.92565" lon="-4.52766">
        <ele>531.6711</ele>
        <time>2021-07-16T14:32:01Z</time>
      </trkpt>
      <trkpt lat="36.9267" lon="-4.52827">
        <ele>544.3591</ele>
        <time>2021-07-16T14:32:12Z</time>
      </trkpt>
      <trkpt lat="36.928" lon="-4.52842">
        <ele>557.7595</ele>
        <time>2021-07-16T14:32:23Z</time>
      </trkpt>
      <trkpt lat="36.92923" lon="-4.52858">
        <ele>572.0336</ele>
        <time>2021-07-16T14:32:34Z</time>
      </trkpt>
      <trkpt lat="36.92993" lon="-4.52746">
        <ele>579.8802</ele>
        <time>2021-07-16T14:32:45Z</time>
      </trkpt>
      <trkpt lat="36.93095" lon="-4.52765">
        <ele>596.6076</ele>
        <time>2021-07-16T14:32:56Z</time>
      </trkpt>
      <trkpt lat="36.93177" lon="-4.52859">
        <ele>605.5383</ele>
        <time>2021-07-16T14:33:07Z</time>
      </trkpt>
      <trkpt lat="36.93237" lon="-4.52899">
        <ele>613.8125</ele>
        <time>2021-07-16T14:33:18Z</time>
      </trkpt>
      <trkpt lat="36.93314" lon="-4.52789">
        <ele>623.2586</ele>
        <time>2021-07-16T14:33:29Z</time>
      </trkpt>
      <trkpt lat="36.93404" lon="-4.52853">
        <ele>635.2665</ele>
        <time>2021-07-16T14:33:40Z</time>
      </trkpt>
      <trkpt lat="36.93488" lon="-4.52923">
        <ele>648.6214</ele>
        <time>2021-07-16T14:33:51Z</time>
      </trkpt>
      <trkpt lat="36.93581" lon="-4.53023">
        <ele>667.3359</ele>
        <time>2021-07-16T14:34:02Z</time>
      </trkpt>
      <trkpt lat="36.93711" lon="-4.52946">
        <ele>684.5533</ele>
        <time>2021-07-16T14:34:13Z</time>
      </trkpt>
      <trkpt lat="36.938" lon="-4.53078">
        <ele>697.8114</ele>
        <time>2021-07-16T14:34:24Z</time>
      </trkpt>
      <trkpt lat="36.93929" lon="-4.53242">
        <ele>715.0156</ele>
        <time>2021-07-16T14:34:35Z</time>
      </trkpt>
      <trkpt lat="36.94058" lon="-4.53246">
        <ele>731.9834</ele>
        <time>2021-07-16T14:34:46Z</time>
      </trkpt>
      <trkpt lat="36.94139" lon="-4.53357">
        <ele>752.9077</ele>
        <time>2021-07-16T14:34:57Z</time>
      </trkpt>
      <trkpt lat="36.94206" lon="-4.53592">
        <ele>776.7141</ele>
        <time>2021-07-16T14:35:08Z</time>
      </trkpt>
      <trkpt lat="36.94238" lon="-4.53482">
        <ele>786.2298</ele>
        <time>2021-07-16T14:35:19Z</time>
      </trkpt>
      <trkpt lat="36.94363" lon="-4.53502">
        <ele>799.593</ele>
        <time>2021-07-16T14:35:30Z</time>
      </trkpt>
      <trkpt lat="36.94417" lon="-4.53629">
        <ele>815.2955</ele>
        <time>2021-07-16T14:35:41Z</time>
      </trkpt>
      <trkpt lat="36.945" lon="-4.53643">
        <ele>829.1322</ele>
        <time>2021-07-16T14:35:52Z</time>
      </trkpt>
      <trkpt lat="36.94576" lon="-4.53637">
        <ele>844.9354</ele>
        <time>2021-07-16T14:36:03Z</time>
      </trkpt>
      <trkpt lat="36.94682" lon="-4.53467">
        <ele>850.6508</ele>
        <time>2021-07-16T14:36:14Z</time>
      </trkpt>
      <trkpt lat="36.94789" lon="-4.53379">
        <ele>852.4837</ele>
        <time>2021-07-16T14:36:25Z</time>
      </trkpt>
      <trkpt lat="36.94898" lon="-4.53231">
        <ele>862.5523</ele>
        <time>2021-07-16T14:36:36Z</time>
      </trkpt>
      <trkpt lat="36.95037" lon="-4.53024">
        <ele>874.1893</ele>
        <time>2021-07-16T14:36:47Z</time>
      </trkpt>
      <trkpt lat="36.95148" lon="-4.52948">
        <ele>885.1681</ele>
        <time>2021-07-16T14:36:58Z</time>
      </trkpt>
      <trkpt lat="36.95251" lon="-4.52832">
        <ele>893.9249</ele>
        <time>2021-07-16T14:37:09Z</time>
      </trkpt>
      <trkpt lat="36.95331" lon="-4.52637">
        <ele>902.0637</ele>
        <time>2021-07-16T14:37:20Z</time>
      </trkpt>
      <trkpt lat="36.95407" lon="-4.52438">
        <ele>910.553</ele>
        <time>2021-07-16T14:37:31Z</time>
      </trkpt>
      <trkpt lat="36.95529" lon="-4.52246">
        <ele>913.1173</ele>
        <time>2021-07-16T14:37:42Z</time>
      </trkpt>
      <trkpt lat="36.95668" lon="-4.52054">
        <ele>923.8601</ele>
        <time>2021-07-16T14:37:53Z</time>
      </trkpt>
      <trkpt lat="36.9581" lon="-4.51935">
        <ele>931.2003</ele>
        <time>2021-07-16T14:38:04Z</time>
      </trkpt>
      <trkpt lat="36.95894" lon="-4.51815">
        <ele>941.5225</ele>
        <time>2021-07-16T14:38:15Z</time>
      </trkpt>
      <trkpt lat="36.95995" lon="-4.51712">
        <ele>945.2092</ele>
        <time>2021-07-16T14:38:26Z</time>
      </trkpt>
      <trkpt lat="36.96102" lon="-4.51573">
        <ele>946.2119</ele>
        <time>2021-07-16T14:38:37Z</time>
      </trkpt>
      <trkpt lat="36.96242" lon="-4.5142">
        <ele>952.0615</ele>
        <time>2021-07-16T14:38:48Z</time>
      </trkpt>
      <trkpt lat="36.96346" lon="-4.51233">
        <ele>956.266</ele>
        <time>2021-07-16T14:38:59Z</time>
      </trkpt>
      <trkpt lat="36.9642" lon="-4.511">
        <ele>956.0016</ele>
        <time>2021-07-16T14:39:10Z</time>
      </trkpt>
      <trkpt lat="36.96402" lon="-4.51199">
        <ele>961.8308</ele>
        <time>2021-07-16T14:39:21Z</time>
      </trkpt>
      <trkpt lat="36.96335" lon="-4.51411">
        <ele>974.6402</ele>
        <time>2021-07-16T14:39:32Z</time>
      </trkpt>
      <trkpt lat="36.96252" lon="-4.51626">
        <ele>995.1488</ele>
        <time>2021-07-16T14:39:43Z</time>
      </trkpt>
      <trkpt lat="36.96231" lon="-4.51894">
        <ele>1024.582</ele>
        <time>2021-07-16T14:39:54Z</time>
      </trkpt>
      <trkpt lat="36.96229" lon="-4.52159">
        <ele>1055.513</ele>
        <time>2021-07-16T14:40:05Z</time>
      </trkpt>
      <trkpt lat="36.96151" lon="-4.52445">
        <ele>1082.527</ele>
        <time>2021-07-16T14:40:16Z</time>
      </trkpt>
      <trkpt lat="36.96072" lon="-4.52664">
        <ele>1106.739</ele>
        <time>2021-07-16T14:40:27Z</time>
      </trkpt>
      <trkpt lat="36.95945" lon="-4.52885">
        <ele>1117.143</ele>
        <time>2021-07-16T14:40:38Z</time>
      </trkpt>
      <trkpt lat="36.9585" lon="-4.53092">
        <ele>1137.536</ele>
        <time>2021-07-16T14:40:49Z</time>
      </trkpt>
      <trkpt lat="36.95819" lon="-4.53274">
        <ele>1146.847</ele>
        <time>2021-07-16T14:41:00Z</time>
      </trkpt>
      <trkpt lat="36.95872" lon="-4.53404">
        <ele>1159.835</ele>
        <time>2021-07-16T14:41:11Z</time>
      </trkpt>
      <trkpt lat="36.95855" lon="-4.53594">
        <ele>1174.042</ele>
        <time>2021-07-16T14:41:22Z</time>
      </trkpt>
      <trkpt lat="36.95799" lon="-4.53661">
        <ele>1184.048</ele>
        <time>2021-07-16T14:41:33Z</time>
      </trkpt>
      <trkpt lat="36.95741" lon="-4.53793">
        <ele>1195.183</ele>
        <time>2021-07-16T14:41:44Z</time>
      </trkpt>
      <trkpt lat="36.95642" lon="-4.53909">
        <ele>1209.31</ele>
        <time>2021-07-16T14:41:55Z</time>
      </trkpt>
      <trkpt lat="36.95565" lon="-4.54063">
        <ele>1222.427</ele>
        <time>2021-07-16T14:42:06Z</time>
      </trkpt>
      <trkpt lat="36.95555" lon="-4.54229">
        <ele>1224.52</ele>
        <time>2021-07-16T14:42:17Z</time>
      </trkpt>
      <trkpt lat="36.95482" lon="-4.54353">
        <ele>1215.072</ele>
        <time>2021-07-16T14:42:28Z</time>
      </trkpt>
      <trkpt lat="36.95351" lon="-4.54424">
        <ele>1208.937</ele>
        <time>2021-07-16T14:42:39Z</time>
      </trkpt>
      <trkpt lat="36.95323" lon="-4.54461">
        <ele>1207.28</ele>
        <time>2021-07-16T14:42:50Z</time>
      </trkpt>
      <trkpt lat="36.9534" lon="-4.5446">
        <ele>1204.522</ele>
        <time>2021-07-16T14:43:01Z</time>
      </trkpt>
      <trkpt lat="36.95344" lon="-4.5445">
        <ele>1205.646</ele>
        <time>2021-07-16T14:43:12Z</time>
      </trkpt>
      <trkpt lat="36.95344" lon="-4.5445">
        <ele>1209.533</ele>
        <time>2021-07-16T14:44:11Z</time>
      </trkpt>
      <trkpt lat="36.95346" lon="-4.54452">
        <ele>1208.458</ele>
        <time>2021-07-16T14:45:11Z</time>
      </trkpt>
      <trkpt lat="36.95346" lon="-4.5445">
        <ele>1208.151</ele>
        <time>2021-07-16T14:46:10Z</time>
      </trkpt>
      <trkpt lat="36.95346" lon="-4.54451">
        <ele>1207.972</ele>
        <time>2021-07-16T14:47:10Z</time>
      </trkpt>
      <trkpt lat="36.95346" lon="-4.54451">
        <ele>1207.712</ele>
        <time>2021-07-16T14:48:09Z</time>
      </trkpt>
      <trkpt lat="36.95346" lon="-4.54452">
        <ele>1207.075</ele>
        <time>2021-07-16T14:49:09Z</time>
      </trkpt>
      <trkpt lat="36.95346" lon="-4.54451">
        <ele>1207.246</ele>
        <time>2021-07-16T14:50:09Z</time>
      </trkpt>
      <trkpt lat="36.95346" lon="-4.5445">
        <ele>1207.426</ele>
        <time>2021-07-16T14:51:09Z</time>
      </trkpt>
      <trkpt lat="36.95346" lon="-4.54452">
        <ele>1208.18</ele>
        <time>2021-07-16T14:52:09Z</time>
      </trkpt>
      <trkpt lat="36.95346" lon="-4.54452">
        <ele>1208.18</ele>
        <time>2021-07-16T14:53:09Z</time>
      </trkpt>
      <trkpt lat="36.95346" lon="-4.54451">
        <ele>1206.707</ele>
        <time>2021-07-16T14:54:09Z</time>
      </trkpt>
      <trkpt lat="36.95346" lon="-4.5445">
        <ele>1207.873</ele>
        <time>2021-07-16T14:55:09Z</time>
      </trkpt>
      <trkpt lat="36.95346" lon="-4.54453">
        <ele>1206.751</ele>
        <time>2021-07-16T14:56:09Z</time>
      </trkpt>
      <trkpt lat="36.95345" lon="-4.54451">
        <ele>1206.785</ele>
        <time>2021-07-16T14:57:09Z</time>
      </trkpt>
      <trkpt lat="36.95346" lon="-4.54451">
        <ele>1207.455</ele>
        <time>2021-07-16T14:58:09Z</time>
      </trkpt>
      <trkpt lat="36.95346" lon="-4.5445">
        <ele>1206.983</ele>
        <time>2021-07-16T14:59:09Z</time>
      </trkpt>
      <trkpt lat="36.95344" lon="-4.54449">
        <ele>1206.063</ele>
        <time>2021-07-16T15:00:08Z</time>
      </trkpt>
      <trkpt lat="36.95345" lon="-4.54454">
        <ele>1207.902</ele>
        <time>2021-07-16T15:00:51Z</time>
      </trkpt>
      <trkpt lat="36.95348" lon="-4.54451">
        <ele>1207.824</ele>
        <time>2021-07-16T15:01:30Z</time>
      </trkpt>
      <trkpt lat="36.95347" lon="-4.5445">
        <ele>1207.627</ele>
        <time>2021-07-16T15:02:30Z</time>
      </trkpt>
      <trkpt lat="36.95345" lon="-4.54455">
        <ele>1207.652</ele>
        <time>2021-07-16T15:03:11Z</time>
      </trkpt>
      <trkpt lat="36.95347" lon="-4.54452">
        <ele>1207.866</ele>
        <time>2021-07-16T15:04:10Z</time>
      </trkpt>
      <trkpt lat="36.95345" lon="-4.54454">
        <ele>1207.372</ele>
        <time>2021-07-16T15:05:09Z</time>
      </trkpt>
      <trkpt lat="36.95347" lon="-4.54451">
        <ele>1207.516</ele>
        <time>2021-07-16T15:05:42Z</time>
      </trkpt>
      <trkpt lat="36.95347" lon="-4.54451">
        <ele>1207.749</ele>
        <time>2021-07-16T15:06:41Z</time>
      </trkpt>
      <trkpt lat="36.95346" lon="-4.54452">
        <ele>1207.954</ele>
        <time>2021-07-16T15:07:40Z</time>
      </trkpt>
      <trkpt lat="36.95347" lon="-4.54452">
        <ele>1207.842</ele>
        <time>2021-07-16T15:08:39Z</time>
      </trkpt>
      <trkpt lat="36.95346" lon="-4.54447">
        <ele>1208.274</ele>
        <time>2021-07-16T15:08:56Z</time>
      </trkpt>
      <trkpt lat="36.95347" lon="-4.54451">
        <ele>1206.64</ele>
        <time>2021-07-16T15:09:55Z</time>
      </trkpt>
      <trkpt lat="36.95346" lon="-4.54454">
        <ele>1207.799</ele>
        <time>2021-07-16T15:10:54Z</time>
      </trkpt>
      <trkpt lat="36.95348" lon="-4.54452">
        <ele>1207.533</ele>
        <time>2021-07-16T15:11:53Z</time>
      </trkpt>
      <trkpt lat="36.95348" lon="-4.54452">
        <ele>1207.533</ele>
        <time>2021-07-16T15:12:52Z</time>
      </trkpt>
      <trkpt lat="36.95348" lon="-4.54452">
        <ele>1207.533</ele>
        <time>2021-07-16T15:13:52Z</time>
      </trkpt>
      <trkpt lat="36.95348" lon="-4.54452">
        <ele>1207.533</ele>
        <time>2021-07-16T15:14:52Z</time>
      </trkpt>
      <trkpt lat="36.95347" lon="-4.54452">
        <ele>1207.437</ele>
        <time>2021-07-16T15:15:52Z</time>
      </trkpt>
      <trkpt lat="36.95347" lon="-4.54452">
        <ele>1208.126</ele>
        <time>2021-07-16T15:16:52Z</time>
      </trkpt>
      <trkpt lat="36.95348" lon="-4.54451">
        <ele>1207.675</ele>
        <time>2021-07-16T15:17:51Z</time>
      </trkpt>
      <trkpt lat="36.95348" lon="-4.54451">
        <ele>1208.128</ele>
        <time>2021-07-16T15:18:51Z</time>
      </trkpt>
      <trkpt lat="36.95347" lon="-4.54452">
        <ele>1207.647</ele>
        <time>2021-07-16T15:19:49Z</time>
      </trkpt>
      <trkpt lat="36.95346" lon="-4.54452">
        <ele>1208.961</ele>
        <time>2021-07-16T15:20:48Z</time>
      </trkpt>
      <trkpt lat="36.95348" lon="-4.5445">
        <ele>1210.013</ele>
        <time>2021-07-16T15:21:46Z</time>
      </trkpt>
      <trkpt lat="36.95348" lon="-4.54451">
        <ele>1207.911</ele>
        <time>2021-07-16T15:22:45Z</time>
      </trkpt>
      <trkpt lat="36.95347" lon="-4.54451">
        <ele>1207.686</ele>
        <time>2021-07-16T15:23:44Z</time>
      </trkpt>
      <trkpt lat="36.95347" lon="-4.54451">
        <ele>1208.021</ele>
        <time>2021-07-16T15:24:43Z</time>
      </trkpt>
      <trkpt lat="36.95347" lon="-4.54451">
        <ele>1208.021</ele>
        <time>2021-07-16T15:25:43Z</time>
      </trkpt>
      <trkpt lat="36.95347" lon="-4.54451">
        <ele>1208.021</ele>
        <time>2021-07-16T15:26:43Z</time>
      </trkpt>
      <trkpt lat="36.95347" lon="-4.54451">
        <ele>1208.021</ele>
        <time>2021-07-16T15:27:43Z</time>
      </trkpt>
      <trkpt lat="36.95347" lon="-4.54451">
        <ele>1208.021</ele>
        <time>2021-07-16T15:28:43Z</time>
      </trkpt>
      <trkpt lat="36.95347" lon="-4.54451">
        <ele>1208.021</ele>
        <time>2021-07-16T15:29:43Z</time>
      </trkpt>
      <trkpt lat="36.95347" lon="-4.54451">
        <ele>1208.021</ele>
        <time>2021-07-16T15:30:43Z</time>
      </trkpt>
      <trkpt lat="36.95346" lon="-4.54448">
        <ele>1207.723</ele>
        <time>2021-07-16T15:31:43Z</time>
      </trkpt>
      <trkpt lat="36.95346" lon="-4.54449">
        <ele>1207.775</ele>
        <time>2021-07-16T15:32:43Z</time>
      </trkpt>
      <trkpt lat="36.95346" lon="-4.54449">
        <ele>1207.775</ele>
        <time>2021-07-16T15:33:43Z</time>
      </trkpt>
      <trkpt lat="36.95345" lon="-4.54449">
        <ele>1207.592</ele>
        <time>2021-07-16T15:34:43Z</time>
      </trkpt>
      <trkpt lat="36.95347" lon="-4.54447">
        <ele>1207.479</ele>
        <time>2021-07-16T15:35:43Z</time>
      </trkpt>
      <trkpt lat="36.95343" lon="-4.54447">
        <ele>1207.301</ele>
        <time>2021-07-16T15:36:22Z</time>
      </trkpt>
      <trkpt lat="36.95343" lon="-4.54447">
        <ele>1207.984</ele>
        <time>2021-07-16T15:37:22Z</time>
      </trkpt>
      <trkpt lat="36.95342" lon="-4.54445">
        <ele>1208.963</ele>
        <time>2021-07-16T15:38:21Z</time>
      </trkpt>
      <trkpt lat="36.95343" lon="-4.54442">
        <ele>1207.727</ele>
        <time>2021-07-16T15:39:20Z</time>
      </trkpt>
      <trkpt lat="36.95338" lon="-4.54438">
        <ele>1206.612</ele>
        <time>2021-07-16T15:39:59Z</time>
      </trkpt>
      <trkpt lat="36.95346" lon="-4.54423">
        <ele>1207.121</ele>
        <time>2021-07-16T15:40:10Z</time>
      </trkpt>
      <trkpt lat="36.95481" lon="-4.54351">
        <ele>1212.162</ele>
        <time>2021-07-16T15:40:21Z</time>
      </trkpt>
      <trkpt lat="36.95555" lon="-4.54218">
        <ele>1222.955</ele>
        <time>2021-07-16T15:40:32Z</time>
      </trkpt>
      <trkpt lat="36.95563" lon="-4.54063">
        <ele>1223.441</ele>
        <time>2021-07-16T15:40:43Z</time>
      </trkpt>
      <trkpt lat="36.95629" lon="-4.53939">
        <ele>1214.111</ele>
        <time>2021-07-16T15:40:54Z</time>
      </trkpt>
      <trkpt lat="36.95725" lon="-4.53824">
        <ele>1202.575</ele>
        <time>2021-07-16T15:41:05Z</time>
      </trkpt>
      <trkpt lat="36.95799" lon="-4.53657">
        <ele>1186.343</ele>
        <time>2021-07-16T15:41:16Z</time>
      </trkpt>
      <trkpt lat="36.95866" lon="-4.53538">
        <ele>1174.141</ele>
        <time>2021-07-16T15:41:27Z</time>
      </trkpt>
      <trkpt lat="36.95864" lon="-4.53391">
        <ele>1163.818</ele>
        <time>2021-07-16T15:41:38Z</time>
      </trkpt>
      <trkpt lat="36.95813" lon="-4.53276">
        <ele>1148.283</ele>
        <time>2021-07-16T15:41:49Z</time>
      </trkpt>
      <trkpt lat="36.95841" lon="-4.53134">
        <ele>1140.261</ele>
        <time>2021-07-16T15:42:00Z</time>
      </trkpt>
      <trkpt lat="36.95891" lon="-4.52987">
        <ele>1123.596</ele>
        <time>2021-07-16T15:42:11Z</time>
      </trkpt>
      <trkpt lat="36.95966" lon="-4.52843">
        <ele>1109.318</ele>
        <time>2021-07-16T15:42:22Z</time>
      </trkpt>
      <trkpt lat="36.96058" lon="-4.52681">
        <ele>1101.99</ele>
        <time>2021-07-16T15:42:33Z</time>
      </trkpt>
      <trkpt lat="36.96136" lon="-4.52506">
        <ele>1091.696</ele>
        <time>2021-07-16T15:42:44Z</time>
      </trkpt>
      <trkpt lat="36.96183" lon="-4.52302">
        <ele>1068.692</ele>
        <time>2021-07-16T15:42:55Z</time>
      </trkpt>
      <trkpt lat="36.96237" lon="-4.52119">
        <ele>1039.137</ele>
        <time>2021-07-16T15:43:06Z</time>
      </trkpt>
      <trkpt lat="36.96224" lon="-4.51889">
        <ele>1021.757</ele>
        <time>2021-07-16T15:43:17Z</time>
      </trkpt>
      <trkpt lat="36.96244" lon="-4.51657">
        <ele>995.9032</ele>
        <time>2021-07-16T15:43:28Z</time>
      </trkpt>
      <trkpt lat="36.96318" lon="-4.51439">
        <ele>977.9131</ele>
        <time>2021-07-16T15:43:39Z</time>
      </trkpt>
      <trkpt lat="36.96389" lon="-4.51222">
        <ele>962.789</ele>
        <time>2021-07-16T15:43:50Z</time>
      </trkpt>
      <trkpt lat="36.96423" lon="-4.51113">
        <ele>952.5532</ele>
        <time>2021-07-16T15:44:01Z</time>
      </trkpt>
      <trkpt lat="36.96431" lon="-4.51078">
        <ele>952.0765</ele>
        <time>2021-07-16T15:44:12Z</time>
      </trkpt>
      <trkpt lat="36.9643" lon="-4.5108">
        <ele>952.8003</ele>
        <time>2021-07-16T15:45:11Z</time>
      </trkpt>
      <trkpt lat="36.96433" lon="-4.51075">
        <ele>952.86</ele>
        <time>2021-07-16T15:45:26Z</time>
      </trkpt>
      <trkpt lat="36.96512" lon="-4.50966">
        <ele>947.3439</ele>
        <time>2021-07-16T15:45:37Z</time>
      </trkpt>
      <trkpt lat="36.96617" lon="-4.5077">
        <ele>957.4788</ele>
        <time>2021-07-16T15:45:48Z</time>
      </trkpt>
      <trkpt lat="36.96712" lon="-4.50511">
        <ele>958.1733</ele>
        <time>2021-07-16T15:45:59Z</time>
      </trkpt>
      <trkpt lat="36.96865" lon="-4.50307">
        <ele>959.7179</ele>
        <time>2021-07-16T15:46:10Z</time>
      </trkpt>
      <trkpt lat="36.97003" lon="-4.50097">
        <ele>933.0452</ele>
        <time>2021-07-16T15:46:21Z</time>
      </trkpt>
      <trkpt lat="36.97014" lon="-4.50039">
        <ele>920.2627</ele>
        <time>2021-07-16T15:46:32Z</time>
      </trkpt>
      <trkpt lat="36.97004" lon="-4.49967">
        <ele>910.6625</ele>
        <time>2021-07-16T15:46:43Z</time>
      </trkpt>
      <trkpt lat="36.9712" lon="-4.49745">
        <ele>889.5376</ele>
        <time>2021-07-16T15:46:54Z</time>
      </trkpt>
      <trkpt lat="36.97226" lon="-4.49537">
        <ele>879.4682</ele>
        <time>2021-07-16T15:47:05Z</time>
      </trkpt>
      <trkpt lat="36.97343" lon="-4.49355">
        <ele>865.7835</ele>
        <time>2021-07-16T15:47:16Z</time>
      </trkpt>
      <trkpt lat="36.97376" lon="-4.49229">
        <ele>863.884</ele>
        <time>2021-07-16T15:47:27Z</time>
      </trkpt>
      <trkpt lat="36.97352" lon="-4.49172">
        <ele>866.7533</ele>
        <time>2021-07-16T15:47:38Z</time>
      </trkpt>
      <trkpt lat="36.97261" lon="-4.49023">
        <ele>880.1114</ele>
        <time>2021-07-16T15:47:49Z</time>
      </trkpt>
      <trkpt lat="36.97159" lon="-4.48956">
        <ele>875.3294</ele>
        <time>2021-07-16T15:48:00Z</time>
      </trkpt>
      <trkpt lat="36.9704" lon="-4.48961">
        <ele>860.075</ele>
        <time>2021-07-16T15:48:11Z</time>
      </trkpt>
      <trkpt lat="36.96996" lon="-4.48945">
        <ele>852.4419</ele>
        <time>2021-07-16T15:48:22Z</time>
      </trkpt>
      <trkpt lat="36.96962" lon="-4.48812">
        <ele>836.1532</ele>
        <time>2021-07-16T15:48:33Z</time>
      </trkpt>
      <trkpt lat="36.96921" lon="-4.48727">
        <ele>829.877</ele>
        <time>2021-07-16T15:48:44Z</time>
      </trkpt>
      <trkpt lat="36.96848" lon="-4.48763">
        <ele>823.7614</ele>
        <time>2021-07-16T15:48:55Z</time>
      </trkpt>
      <trkpt lat="36.96735" lon="-4.48836">
        <ele>815.4447</ele>
        <time>2021-07-16T15:49:06Z</time>
      </trkpt>
      <trkpt lat="36.96624" lon="-4.48865">
        <ele>807.6773</ele>
        <time>2021-07-16T15:49:17Z</time>
      </trkpt>
      <trkpt lat="36.96516" lon="-4.48835">
        <ele>798.3736</ele>
        <time>2021-07-16T15:49:28Z</time>
      </trkpt>
      <trkpt lat="36.96436" lon="-4.48782">
        <ele>794.0113</ele>
        <time>2021-07-16T15:49:39Z</time>
      </trkpt>
      <trkpt lat="36.96384" lon="-4.48689">
        <ele>791.5236</ele>
        <time>2021-07-16T15:49:50Z</time>
      </trkpt>
      <trkpt lat="36.96436" lon="-4.48591">
        <ele>794.0205</ele>
        <time>2021-07-16T15:50:01Z</time>
      </trkpt>
      <trkpt lat="36.96494" lon="-4.48496">
        <ele>793.1903</ele>
        <time>2021-07-16T15:50:12Z</time>
      </trkpt>
      <trkpt lat="36.96489" lon="-4.48436">
        <ele>792.2765</ele>
        <time>2021-07-16T15:50:23Z</time>
      </trkpt>
      <trkpt lat="36.96437" lon="-4.48417">
        <ele>789.7158</ele>
        <time>2021-07-16T15:50:34Z</time>
      </trkpt>
      <trkpt lat="36.963" lon="-4.48454">
        <ele>778.0824</ele>
        <time>2021-07-16T15:50:45Z</time>
      </trkpt>
      <trkpt lat="36.96189" lon="-4.4844">
        <ele>765.4052</ele>
        <time>2021-07-16T15:50:56Z</time>
      </trkpt>
      <trkpt lat="36.96119" lon="-4.48398">
        <ele>760.2283</ele>
        <time>2021-07-16T15:51:07Z</time>
      </trkpt>
      <trkpt lat="36.96036" lon="-4.48429">
        <ele>754.1796</ele>
        <time>2021-07-16T15:51:18Z</time>
      </trkpt>
      <trkpt lat="36.95997" lon="-4.48481">
        <ele>757.1883</ele>
        <time>2021-07-16T15:51:29Z</time>
      </trkpt>
      <trkpt lat="36.95956" lon="-4.48534">
        <ele>758.1778</ele>
        <time>2021-07-16T15:51:40Z</time>
      </trkpt>
      <trkpt lat="36.95902" lon="-4.48581">
        <ele>765.3162</ele>
        <time>2021-07-16T15:51:51Z</time>
      </trkpt>
      <trkpt lat="36.95844" lon="-4.48637">
        <ele>769.5756</ele>
        <time>2021-07-16T15:52:02Z</time>
      </trkpt>
      <trkpt lat="36.95773" lon="-4.48668">
        <ele>764.1065</ele>
        <time>2021-07-16T15:52:13Z</time>
      </trkpt>
      <trkpt lat="36.95716" lon="-4.48707">
        <ele>719.4917</ele>
        <time>2021-07-16T15:52:24Z</time>
      </trkpt>
      <trkpt lat="36.95657" lon="-4.48744">
        <ele>720.3551</ele>
        <time>2021-07-16T15:52:35Z</time>
      </trkpt>
      <trkpt lat="36.95651" lon="-4.48714">
        <ele>745.9256</ele>
        <time>2021-07-16T15:52:46Z</time>
      </trkpt>
      <trkpt lat="36.95628" lon="-4.48634">
        <ele>758.6203</ele>
        <time>2021-07-16T15:52:57Z</time>
      </trkpt>
      <trkpt lat="36.95615" lon="-4.48567">
        <ele>746.8547</ele>
        <time>2021-07-16T15:53:08Z</time>
      </trkpt>
      <trkpt lat="36.95593" lon="-4.48528">
        <ele>733.1289</ele>
        <time>2021-07-16T15:53:19Z</time>
      </trkpt>
      <trkpt lat="36.95535" lon="-4.48485">
        <ele>751.542</ele>
        <time>2021-07-16T15:53:30Z</time>
      </trkpt>
      <trkpt lat="36.9552" lon="-4.4845">
        <ele>765.6199</ele>
        <time>2021-07-16T15:53:41Z</time>
      </trkpt>
      <trkpt lat="36.95505" lon="-4.48409">
        <ele>777.4935</ele>
        <time>2021-07-16T15:53:52Z</time>
      </trkpt>
      <trkpt lat="36.95485" lon="-4.48364">
        <ele>765.2843</ele>
        <time>2021-07-16T15:54:03Z</time>
      </trkpt>
      <trkpt lat="36.95432" lon="-4.48328">
        <ele>742.8139</ele>
        <time>2021-07-16T15:54:14Z</time>
      </trkpt>
      <trkpt lat="36.95405" lon="-4.48272">
        <ele>730.2599</ele>
        <time>2021-07-16T15:54:25Z</time>
      </trkpt>
      <trkpt lat="36.95382" lon="-4.48236">
        <ele>743.0154</ele>
        <time>2021-07-16T15:54:36Z</time>
      </trkpt>
      <trkpt lat="36.95361" lon="-4.4821">
        <ele>756.1706</ele>
        <time>2021-07-16T15:54:47Z</time>
      </trkpt>
      <trkpt lat="36.95358" lon="-4.48211">
        <ele>781.6343</ele>
        <time>2021-07-16T15:55:03Z</time>
      </trkpt>
      <trkpt lat="36.95364" lon="-4.48207">
        <ele>742.9362</ele>
        <time>2021-07-16T15:55:30Z</time>
      </trkpt>
      <trkpt lat="36.95363" lon="-4.48205">
        <ele>740.4205</ele>
        <time>2021-07-16T15:56:30Z</time>
      </trkpt>
      <trkpt lat="36.95366" lon="-4.48206">
        <ele>738.3245</ele>
        <time>2021-07-16T15:57:30Z</time>
      </trkpt>
      <trkpt lat="36.95366" lon="-4.48204">
        <ele>740.156</ele>
        <time>2021-07-16T15:58:30Z</time>
      </trkpt>
      <trkpt lat="36.95383" lon="-4.48234">
        <ele>739.3134</ele>
        <time>2021-07-16T15:58:41Z</time>
      </trkpt>
      <trkpt lat="36.95419" lon="-4.48297">
        <ele>734.1217</ele>
        <time>2021-07-16T15:58:52Z</time>
      </trkpt>
      <trkpt lat="36.9547" lon="-4.48348">
        <ele>729.5015</ele>
        <time>2021-07-16T15:59:03Z</time>
      </trkpt>
      <trkpt lat="36.95505" lon="-4.48396">
        <ele>729.7086</ele>
        <time>2021-07-16T15:59:14Z</time>
      </trkpt>
      <trkpt lat="36.95525" lon="-4.48455">
        <ele>742.2665</ele>
        <time>2021-07-16T15:59:25Z</time>
      </trkpt>
      <trkpt lat="36.95558" lon="-4.485">
        <ele>760.7803</ele>
        <time>2021-07-16T15:59:36Z</time>
      </trkpt>
      <trkpt lat="36.95605" lon="-4.48564">
        <ele>779.1559</ele>
        <time>2021-07-16T15:59:47Z</time>
      </trkpt>
      <trkpt lat="36.95626" lon="-4.48643">
        <ele>773.4498</ele>
        <time>2021-07-16T15:59:58Z</time>
      </trkpt>
      <trkpt lat="36.95647" lon="-4.48711">
        <ele>745.3622</ele>
        <time>2021-07-16T16:00:09Z</time>
      </trkpt>
      <trkpt lat="36.9569" lon="-4.48723">
        <ele>751.5855</ele>
        <time>2021-07-16T16:00:20Z</time>
      </trkpt>
      <trkpt lat="36.95718" lon="-4.48718">
        <ele>758.2924</ele>
        <time>2021-07-16T16:00:31Z</time>
      </trkpt>
      <trkpt lat="36.95764" lon="-4.48674">
        <ele>773.7962</ele>
        <time>2021-07-16T16:00:42Z</time>
      </trkpt>
      <trkpt lat="36.95828" lon="-4.48651">
        <ele>769.8726</ele>
        <time>2021-07-16T16:00:53Z</time>
      </trkpt>
      <trkpt lat="36.95873" lon="-4.48606">
        <ele>767.1615</ele>
        <time>2021-07-16T16:01:04Z</time>
      </trkpt>
      <trkpt lat="36.95919" lon="-4.48564">
        <ele>765.5751</ele>
        <time>2021-07-16T16:01:15Z</time>
      </trkpt>
      <trkpt lat="36.9596" lon="-4.48531">
        <ele>763.9058</ele>
        <time>2021-07-16T16:01:26Z</time>
      </trkpt>
      <trkpt lat="36.95995" lon="-4.48482">
        <ele>769.3145</ele>
        <time>2021-07-16T16:01:37Z</time>
      </trkpt>
      <trkpt lat="36.96024" lon="-4.48434">
        <ele>770.3156</ele>
        <time>2021-07-16T16:01:48Z</time>
      </trkpt>
      <trkpt lat="36.96067" lon="-4.48412">
        <ele>766.6401</ele>
        <time>2021-07-16T16:01:59Z</time>
      </trkpt>
      <trkpt lat="36.96125" lon="-4.48396">
        <ele>763.7194</ele>
        <time>2021-07-16T16:02:10Z</time>
      </trkpt>
      <trkpt lat="36.96179" lon="-4.48432">
        <ele>766.1193</ele>
        <time>2021-07-16T16:02:21Z</time>
      </trkpt>
      <trkpt lat="36.96273" lon="-4.48457">
        <ele>771.2856</ele>
        <time>2021-07-16T16:02:32Z</time>
      </trkpt>
      <trkpt lat="36.96406" lon="-4.48428">
        <ele>778.0235</ele>
        <time>2021-07-16T16:02:43Z</time>
      </trkpt>
      <trkpt lat="36.96496" lon="-4.48414">
        <ele>786.5071</ele>
        <time>2021-07-16T16:02:54Z</time>
      </trkpt>
      <trkpt lat="36.9651" lon="-4.48487">
        <ele>786.4574</ele>
        <time>2021-07-16T16:03:05Z</time>
      </trkpt>
      <trkpt lat="36.96451" lon="-4.48569">
        <ele>790.2124</ele>
        <time>2021-07-16T16:03:16Z</time>
      </trkpt>
      <trkpt lat="36.96399" lon="-4.48674">
        <ele>788.5244</ele>
        <time>2021-07-16T16:03:27Z</time>
      </trkpt>
      <trkpt lat="36.96415" lon="-4.48758">
        <ele>789.8381</ele>
        <time>2021-07-16T16:03:38Z</time>
      </trkpt>
      <trkpt lat="36.96501" lon="-4.4883">
        <ele>796.1389</ele>
        <time>2021-07-16T16:03:49Z</time>
      </trkpt>
      <trkpt lat="36.96608" lon="-4.4887">
        <ele>805.9496</ele>
        <time>2021-07-16T16:04:00Z</time>
      </trkpt>
      <trkpt lat="36.96729" lon="-4.48834">
        <ele>818.5037</ele>
        <time>2021-07-16T16:04:11Z</time>
      </trkpt>
      <trkpt lat="36.96847" lon="-4.48761">
        <ele>827.4126</ele>
        <time>2021-07-16T16:04:22Z</time>
      </trkpt>
      <trkpt lat="36.96936" lon="-4.48729">
        <ele>830.6475</ele>
        <time>2021-07-16T16:04:33Z</time>
      </trkpt>
      <trkpt lat="36.96966" lon="-4.4882">
        <ele>831.5632</ele>
        <time>2021-07-16T16:04:44Z</time>
      </trkpt>
      <trkpt lat="36.96997" lon="-4.48945">
        <ele>845.3183</ele>
        <time>2021-07-16T16:04:55Z</time>
      </trkpt>
      <trkpt lat="36.97039" lon="-4.48959">
        <ele>854.4422</ele>
        <time>2021-07-16T16:05:06Z</time>
      </trkpt>
      <trkpt lat="36.97161" lon="-4.48955">
        <ele>876.8793</ele>
        <time>2021-07-16T16:05:17Z</time>
      </trkpt>
      <trkpt lat="36.9723" lon="-4.48992">
        <ele>886.9512</ele>
        <time>2021-07-16T16:05:28Z</time>
      </trkpt>
      <trkpt lat="36.97223" lon="-4.48992">
        <ele>886.9998</ele>
        <time>2021-07-16T16:05:39Z</time>
      </trkpt>
      <trkpt lat="36.9727" lon="-4.49031">
        <ele>883.7144</ele>
        <time>2021-07-16T16:05:50Z</time>
      </trkpt>
      <trkpt lat="36.97347" lon="-4.49156">
        <ele>868.1201</ele>
        <time>2021-07-16T16:06:01Z</time>
      </trkpt>
      <trkpt lat="36.97381" lon="-4.49231">
        <ele>861.8519</ele>
        <time>2021-07-16T16:06:12Z</time>
      </trkpt>
      <trkpt lat="36.97381" lon="-4.49232">
        <ele>864.6212</ele>
        <time>2021-07-16T16:07:12Z</time>
      </trkpt>
      <trkpt lat="36.97344" lon="-4.49314">
        <ele>866.2316</ele>
        <time>2021-07-16T16:07:23Z</time>
      </trkpt>
      <trkpt lat="36.97236" lon="-4.49522">
        <ele>874.9672</ele>
        <time>2021-07-16T16:07:34Z</time>
      </trkpt>
      <trkpt lat="36.97123" lon="-4.49742">
        <ele>887.9486</ele>
        <time>2021-07-16T16:07:45Z</time>
      </trkpt>
      <trkpt lat="36.97006" lon="-4.49969">
        <ele>909.5509</ele>
        <time>2021-07-16T16:07:56Z</time>
      </trkpt>
      <trkpt lat="36.97005" lon="-4.50041">
        <ele>922.8108</ele>
        <time>2021-07-16T16:08:07Z</time>
      </trkpt>
      <trkpt lat="36.97013" lon="-4.50091">
        <ele>933.6776</ele>
        <time>2021-07-16T16:08:18Z</time>
      </trkpt>
      <trkpt lat="36.96881" lon="-4.5029">
        <ele>944.1147</ele>
        <time>2021-07-16T16:08:29Z</time>
      </trkpt>
      <trkpt lat="36.96734" lon="-4.50468">
        <ele>953.7842</ele>
        <time>2021-07-16T16:08:40Z</time>
      </trkpt>
      <trkpt lat="36.96635" lon="-4.50733">
        <ele>958.8108</ele>
        <time>2021-07-16T16:08:51Z</time>
      </trkpt>
      <trkpt lat="36.96495" lon="-4.50992">
        <ele>951.7211</ele>
        <time>2021-07-16T16:09:02Z</time>
      </trkpt>
      <trkpt lat="36.96352" lon="-4.51222">
        <ele>957.765</ele>
        <time>2021-07-16T16:09:13Z</time>
      </trkpt>
      <trkpt lat="36.96197" lon="-4.51491">
        <ele>950.5078</ele>
        <time>2021-07-16T16:09:24Z</time>
      </trkpt>
      <trkpt lat="36.96036" lon="-4.51675">
        <ele>944.2118</ele>
        <time>2021-07-16T16:09:35Z</time>
      </trkpt>
      <trkpt lat="36.95916" lon="-4.51808">
        <ele>947.0647</ele>
        <time>2021-07-16T16:09:46Z</time>
      </trkpt>
      <trkpt lat="36.95837" lon="-4.51931">
        <ele>933.3578</ele>
        <time>2021-07-16T16:09:57Z</time>
      </trkpt>
      <trkpt lat="36.95691" lon="-4.52015">
        <ele>926.0003</ele>
        <time>2021-07-16T16:10:08Z</time>
      </trkpt>
      <trkpt lat="36.95557" lon="-4.52205">
        <ele>915.6792</ele>
        <time>2021-07-16T16:10:19Z</time>
      </trkpt>
      <trkpt lat="36.95407" lon="-4.52436">
        <ele>912.8019</ele>
        <time>2021-07-16T16:10:30Z</time>
      </trkpt>
      <trkpt lat="36.95316" lon="-4.52661">
        <ele>898.3368</ele>
        <time>2021-07-16T16:10:41Z</time>
      </trkpt>
      <trkpt lat="36.9522" lon="-4.52871">
        <ele>893.1622</ele>
        <time>2021-07-16T16:10:52Z</time>
      </trkpt>
      <trkpt lat="36.95075" lon="-4.52966">
        <ele>873.6127</ele>
        <time>2021-07-16T16:11:03Z</time>
      </trkpt>
      <trkpt lat="36.94964" lon="-4.53169">
        <ele>863.5386</ele>
        <time>2021-07-16T16:11:14Z</time>
      </trkpt>
      <trkpt lat="36.94816" lon="-4.53294">
        <ele>854.8308</ele>
        <time>2021-07-16T16:11:25Z</time>
      </trkpt>
      <trkpt lat="36.94705" lon="-4.53429">
        <ele>850.5202</ele>
        <time>2021-07-16T16:11:36Z</time>
      </trkpt>
      <trkpt lat="36.946" lon="-4.53615">
        <ele>849.3882</ele>
        <time>2021-07-16T16:11:47Z</time>
      </trkpt>
      <trkpt lat="36.94496" lon="-4.53651">
        <ele>832.2066</ele>
        <time>2021-07-16T16:11:58Z</time>
      </trkpt>
      <trkpt lat="36.94416" lon="-4.53634">
        <ele>817.8236</ele>
        <time>2021-07-16T16:12:09Z</time>
      </trkpt>
      <trkpt lat="36.94365" lon="-4.5353">
        <ele>800.2372</ele>
        <time>2021-07-16T16:12:20Z</time>
      </trkpt>
      <trkpt lat="36.94234" lon="-4.53482">
        <ele>782.6866</ele>
        <time>2021-07-16T16:12:31Z</time>
      </trkpt>
      <trkpt lat="36.94192" lon="-4.53566">
        <ele>777.4473</ele>
        <time>2021-07-16T16:12:42Z</time>
      </trkpt>
      <trkpt lat="36.94129" lon="-4.53341">
        <ele>759.48</ele>
        <time>2021-07-16T16:12:53Z</time>
      </trkpt>
      <trkpt lat="36.94044" lon="-4.53258">
        <ele>734.9559</ele>
        <time>2021-07-16T16:13:04Z</time>
      </trkpt>
      <trkpt lat="36.93914" lon="-4.53224">
        <ele>715.916</ele>
        <time>2021-07-16T16:13:15Z</time>
      </trkpt>
      <trkpt lat="36.93774" lon="-4.53043">
        <ele>692.6437</ele>
        <time>2021-07-16T16:13:26Z</time>
      </trkpt>
      <trkpt lat="36.93663" lon="-4.5296">
        <ele>672.8129</ele>
        <time>2021-07-16T16:13:37Z</time>
      </trkpt>
      <trkpt lat="36.93533" lon="-4.52996">
        <ele>657.0653</ele>
        <time>2021-07-16T16:13:48Z</time>
      </trkpt>
      <trkpt lat="36.93484" lon="-4.52858">
        <ele>644.6852</ele>
        <time>2021-07-16T16:13:59Z</time>
      </trkpt>
      <trkpt lat="36.93352" lon="-4.52822">
        <ele>631.6462</ele>
        <time>2021-07-16T16:14:10Z</time>
      </trkpt>
      <trkpt lat="36.93277" lon="-4.52841">
        <ele>615.9317</ele>
        <time>2021-07-16T16:14:21Z</time>
      </trkpt>
      <trkpt lat="36.93202" lon="-4.52888">
        <ele>604.429</ele>
        <time>2021-07-16T16:14:32Z</time>
      </trkpt>
      <trkpt lat="36.9314" lon="-4.52798">
        <ele>595.7645</ele>
        <time>2021-07-16T16:14:43Z</time>
      </trkpt>
      <trkpt lat="36.93083" lon="-4.52741">
        <ele>585.3993</ele>
        <time>2021-07-16T16:14:54Z</time>
      </trkpt>
      <trkpt lat="36.93074" lon="-4.52611">
        <ele>564.3434</ele>
        <time>2021-07-16T16:15:05Z</time>
      </trkpt>
      <trkpt lat="36.93153" lon="-4.52421">
        <ele>545.2459</ele>
        <time>2021-07-16T16:15:16Z</time>
      </trkpt>
      <trkpt lat="36.93209" lon="-4.52179">
        <ele>536.2288</ele>
        <time>2021-07-16T16:15:27Z</time>
      </trkpt>
      <trkpt lat="36.9329" lon="-4.51935">
        <ele>513.8986</ele>
        <time>2021-07-16T16:15:38Z</time>
      </trkpt>
      <trkpt lat="36.93389" lon="-4.51668">
        <ele>509.2788</ele>
        <time>2021-07-16T16:15:49Z</time>
      </trkpt>
      <trkpt lat="36.93372" lon="-4.51485">
        <ele>492.7085</ele>
        <time>2021-07-16T16:16:00Z</time>
      </trkpt>
      <trkpt lat="36.93448" lon="-4.5135">
        <ele>478.8271</ele>
        <time>2021-07-16T16:16:11Z</time>
      </trkpt>
      <trkpt lat="36.93444" lon="-4.51199">
        <ele>487.7726</ele>
        <time>2021-07-16T16:16:22Z</time>
      </trkpt>
      <trkpt lat="36.93362" lon="-4.51037">
        <ele>515.7888</ele>
        <time>2021-07-16T16:16:33Z</time>
      </trkpt>
      <trkpt lat="36.93349" lon="-4.50857">
        <ele>540.0079</ele>
        <time>2021-07-16T16:16:44Z</time>
      </trkpt>
      <trkpt lat="36.93282" lon="-4.50692">
        <ele>550.7138</ele>
        <time>2021-07-16T16:16:55Z</time>
      </trkpt>
      <trkpt lat="36.93231" lon="-4.50578">
        <ele>565.6208</ele>
        <time>2021-07-16T16:17:06Z</time>
      </trkpt>
      <trkpt lat="36.93385" lon="-4.50568">
        <ele>588.2422</ele>
        <time>2021-07-16T16:17:17Z</time>
      </trkpt>
      <trkpt lat="36.93412" lon="-4.50431">
        <ele>608.1399</ele>
        <time>2021-07-16T16:17:28Z</time>
      </trkpt>
      <trkpt lat="36.93475" lon="-4.50254">
        <ele>630.7391</ele>
        <time>2021-07-16T16:17:39Z</time>
      </trkpt>
      <trkpt lat="36.93502" lon="-4.50057">
        <ele>651.1515</ele>
        <time>2021-07-16T16:17:50Z</time>
      </trkpt>
      <trkpt lat="36.93567" lon="-4.49888">
        <ele>670.2516</ele>
        <time>2021-07-16T16:18:01Z</time>
      </trkpt>
      <trkpt lat="36.93617" lon="-4.49688">
        <ele>677.1974</ele>
        <time>2021-07-16T16:18:12Z</time>
      </trkpt>
      <trkpt lat="36.93557" lon="-4.49473">
        <ele>686.8513</ele>
        <time>2021-07-16T16:18:23Z</time>
      </trkpt>
      <trkpt lat="36.93503" lon="-4.49312">
        <ele>699.4581</ele>
        <time>2021-07-16T16:18:34Z</time>
      </trkpt>
      <trkpt lat="36.93543" lon="-4.49108">
        <ele>710.2795</ele>
        <time>2021-07-16T16:18:45Z</time>
      </trkpt>
      <trkpt lat="36.93629" lon="-4.48911">
        <ele>716.3564</ele>
        <time>2021-07-16T16:18:56Z</time>
      </trkpt>
      <trkpt lat="36.9366" lon="-4.48732">
        <ele>723.6841</ele>
        <time>2021-07-16T16:19:07Z</time>
      </trkpt>
      <trkpt lat="36.938" lon="-4.48689">
        <ele>727.0336</ele>
        <time>2021-07-16T16:19:18Z</time>
      </trkpt>
      <trkpt lat="36.93968" lon="-4.48577">
        <ele>732.6985</ele>
        <time>2021-07-16T16:19:29Z</time>
      </trkpt>
      <trkpt lat="36.94093" lon="-4.48415">
        <ele>740.4557</ele>
        <time>2021-07-16T16:19:40Z</time>
      </trkpt>
      <trkpt lat="36.94246" lon="-4.48259">
        <ele>750.206</ele>
        <time>2021-07-16T16:19:51Z</time>
      </trkpt>
      <trkpt lat="36.94274" lon="-4.48169">
        <ele>761.3652</ele>
        <time>2021-07-16T16:20:02Z</time>
      </trkpt>
      <trkpt lat="36.94249" lon="-4.47995">
        <ele>771.3513</ele>
        <time>2021-07-16T16:20:13Z</time>
      </trkpt>
      <trkpt lat="36.94268" lon="-4.47777">
        <ele>782.6832</ele>
        <time>2021-07-16T16:20:24Z</time>
      </trkpt>
      <trkpt lat="36.94231" lon="-4.47603">
        <ele>789.6227</ele>
        <time>2021-07-16T16:20:35Z</time>
      </trkpt>
      <trkpt lat="36.94171" lon="-4.47436">
        <ele>793.8636</ele>
        <time>2021-07-16T16:20:46Z</time>
      </trkpt>
      <trkpt lat="36.94282" lon="-4.47293">
        <ele>805.1489</ele>
        <time>2021-07-16T16:20:57Z</time>
      </trkpt>
      <trkpt lat="36.94382" lon="-4.47118">
        <ele>810.2787</ele>
        <time>2021-07-16T16:21:08Z</time>
      </trkpt>
      <trkpt lat="36.94457" lon="-4.46954">
        <ele>809.5623</ele>
        <time>2021-07-16T16:21:19Z</time>
      </trkpt>
      <trkpt lat="36.94436" lon="-4.46799">
        <ele>811.9724</ele>
        <time>2021-07-16T16:21:30Z</time>
      </trkpt>
      <trkpt lat="36.94456" lon="-4.46611">
        <ele>815.6319</ele>
        <time>2021-07-16T16:21:41Z</time>
      </trkpt>
      <trkpt lat="36.94506" lon="-4.46413">
        <ele>824.9246</ele>
        <time>2021-07-16T16:21:52Z</time>
      </trkpt>
      <trkpt lat="36.9462" lon="-4.46376">
        <ele>822.0493</ele>
        <time>2021-07-16T16:22:03Z</time>
      </trkpt>
      <trkpt lat="36.94754" lon="-4.46327">
        <ele>824.7175</ele>
        <time>2021-07-16T16:22:14Z</time>
      </trkpt>
      <trkpt lat="36.94858" lon="-4.46283">
        <ele>824.6273</ele>
        <time>2021-07-16T16:22:25Z</time>
      </trkpt>
      <trkpt lat="36.94887" lon="-4.46272">
        <ele>825.6788</ele>
        <time>2021-07-16T16:22:36Z</time>
      </trkpt>
      <trkpt lat="36.94888" lon="-4.46265">
        <ele>825.6132</ele>
        <time>2021-07-16T16:22:59Z</time>
      </trkpt>
      <trkpt lat="36.94892" lon="-4.46266">
        <ele>825.1658</ele>
        <time>2021-07-16T16:23:43Z</time>
      </trkpt>
      <trkpt lat="36.94955" lon="-4.46294">
        <ele>823.9599</ele>
        <time>2021-07-16T16:23:54Z</time>
      </trkpt>
      <trkpt lat="36.95027" lon="-4.46295">
        <ele>826.2998</ele>
        <time>2021-07-16T16:24:05Z</time>
      </trkpt>
      <trkpt lat="36.95127" lon="-4.46254">
        <ele>819.2449</ele>
        <time>2021-07-16T16:24:16Z</time>
      </trkpt>
      <trkpt lat="36.95258" lon="-4.462">
        <ele>816.5612</ele>
        <time>2021-07-16T16:24:27Z</time>
      </trkpt>
      <trkpt lat="36.95403" lon="-4.46188">
        <ele>813.533</ele>
        <time>2021-07-16T16:24:38Z</time>
      </trkpt>
      <trkpt lat="36.95481" lon="-4.46034">
        <ele>791.6306</ele>
        <time>2021-07-16T16:24:49Z</time>
      </trkpt>
      <trkpt lat="36.95484" lon="-4.45757">
        <ele>782.9629</ele>
        <time>2021-07-16T16:25:00Z</time>
      </trkpt>
      <trkpt lat="36.9554" lon="-4.45536">
        <ele>781.7122</ele>
        <time>2021-07-16T16:25:11Z</time>
      </trkpt>
      <trkpt lat="36.95682" lon="-4.45339">
        <ele>766.5522</ele>
        <time>2021-07-16T16:25:22Z</time>
      </trkpt>
      <trkpt lat="36.95816" lon="-4.45106">
        <ele>759.2312</ele>
        <time>2021-07-16T16:25:33Z</time>
      </trkpt>
      <trkpt lat="36.95893" lon="-4.44926">
        <ele>748.958</ele>
        <time>2021-07-16T16:25:44Z</time>
      </trkpt>
      <trkpt lat="36.95955" lon="-4.4482">
        <ele>734.4618</ele>
        <time>2021-07-16T16:25:55Z</time>
      </trkpt>
      <trkpt lat="36.96069" lon="-4.4487">
        <ele>745.1421</ele>
        <time>2021-07-16T16:26:06Z</time>
      </trkpt>
      <trkpt lat="36.96232" lon="-4.44771">
        <ele>757.6652</ele>
        <time>2021-07-16T16:26:17Z</time>
      </trkpt>
      <trkpt lat="36.96299" lon="-4.44643">
        <ele>768.7947</ele>
        <time>2021-07-16T16:26:28Z</time>
      </trkpt>
      <trkpt lat="36.96248" lon="-4.44743">
        <ele>762.7715</ele>
        <time>2021-07-16T16:26:39Z</time>
      </trkpt>
      <trkpt lat="36.96134" lon="-4.44855">
        <ele>750.0461</ele>
        <time>2021-07-16T16:26:50Z</time>
      </trkpt>
      <trkpt lat="36.96142" lon="-4.44821">
        <ele>749.3657</ele>
        <time>2021-07-16T16:27:01Z</time>
      </trkpt>
      <trkpt lat="36.96227" lon="-4.44728">
        <ele>753.9446</ele>
        <time>2021-07-16T16:27:12Z</time>
      </trkpt>
      <trkpt lat="36.96223" lon="-4.44653">
        <ele>749.5236</ele>
        <time>2021-07-16T16:27:23Z</time>
      </trkpt>
      <trkpt lat="36.96216" lon="-4.44597">
        <ele>756.8716</ele>
        <time>2021-07-16T16:27:34Z</time>
      </trkpt>
      <trkpt lat="36.96142" lon="-4.44577">
        <ele>749.8416</ele>
        <time>2021-07-16T16:27:45Z</time>
      </trkpt>
      <trkpt lat="36.96075" lon="-4.44577">
        <ele>744.7031</ele>
        <time>2021-07-16T16:27:56Z</time>
      </trkpt>
      <trkpt lat="36.9605" lon="-4.4453">
        <ele>746.6127</ele>
        <time>2021-07-16T16:28:07Z</time>
      </trkpt>
      <trkpt lat="36.96144" lon="-4.44522">
        <ele>757.5042</ele>
        <time>2021-07-16T16:28:18Z</time>
      </trkpt>
      <trkpt lat="36.96206" lon="-4.4447">
        <ele>765.507</ele>
        <time>2021-07-16T16:28:29Z</time>
      </trkpt>
      <trkpt lat="36.96346" lon="-4.44378">
        <ele>775.6762</ele>
        <time>2021-07-16T16:28:40Z</time>
      </trkpt>
      <trkpt lat="36.96537" lon="-4.44289">
        <ele>803.0114</ele>
        <time>2021-07-16T16:28:51Z</time>
      </trkpt>
      <trkpt lat="36.96659" lon="-4.44142">
        <ele>803.5893</ele>
        <time>2021-07-16T16:29:02Z</time>
      </trkpt>
      <trkpt lat="36.96783" lon="-4.44012">
        <ele>814.721</ele>
        <time>2021-07-16T16:29:13Z</time>
      </trkpt>
      <trkpt lat="36.96895" lon="-4.43844">
        <ele>813.243</ele>
        <time>2021-07-16T16:29:24Z</time>
      </trkpt>
      <trkpt lat="36.96931" lon="-4.43702">
        <ele>810.011</ele>
        <time>2021-07-16T16:29:35Z</time>
      </trkpt>
      <trkpt lat="36.96993" lon="-4.43512">
        <ele>810.7853</ele>
        <time>2021-07-16T16:29:46Z</time>
      </trkpt>
      <trkpt lat="36.97129" lon="-4.43409">
        <ele>808.6339</ele>
        <time>2021-07-16T16:29:57Z</time>
      </trkpt>
      <trkpt lat="36.97161" lon="-4.43199">
        <ele>797.838</ele>
        <time>2021-07-16T16:30:08Z</time>
      </trkpt>
      <trkpt lat="36.97198" lon="-4.42991">
        <ele>795.4719</ele>
        <time>2021-07-16T16:30:19Z</time>
      </trkpt>
      <trkpt lat="36.97234" lon="-4.42767">
        <ele>782.6715</ele>
        <time>2021-07-16T16:30:30Z</time>
      </trkpt>
      <trkpt lat="36.9728" lon="-4.42521">
        <ele>767.7481</ele>
        <time>2021-07-16T16:30:41Z</time>
      </trkpt>
      <trkpt lat="36.97319" lon="-4.42278">
        <ele>754.6785</ele>
        <time>2021-07-16T16:30:52Z</time>
      </trkpt>
      <trkpt lat="36.97357" lon="-4.42067">
        <ele>739.963</ele>
        <time>2021-07-16T16:31:03Z</time>
      </trkpt>
      <trkpt lat="36.97431" lon="-4.41815">
        <ele>734.4086</ele>
        <time>2021-07-16T16:31:14Z</time>
      </trkpt>
      <trkpt lat="36.975" lon="-4.41581">
        <ele>727.6794</ele>
        <time>2021-07-16T16:31:25Z</time>
      </trkpt>
      <trkpt lat="36.97584" lon="-4.41358">
        <ele>720.8993</ele>
        <time>2021-07-16T16:31:36Z</time>
      </trkpt>
      <trkpt lat="36.97655" lon="-4.41203">
        <ele>714.944</ele>
        <time>2021-07-16T16:31:47Z</time>
      </trkpt>
      <trkpt lat="36.97714" lon="-4.41214">
        <ele>717.8469</ele>
        <time>2021-07-16T16:31:58Z</time>
      </trkpt>
      <trkpt lat="36.97837" lon="-4.41117">
        <ele>712.7754</ele>
        <time>2021-07-16T16:32:09Z</time>
      </trkpt>
      <trkpt lat="36.97961" lon="-4.40989">
        <ele>713.9724</ele>
        <time>2021-07-16T16:32:20Z</time>
      </trkpt>
      <trkpt lat="36.98055" lon="-4.40801">
        <ele>710.5708</ele>
        <time>2021-07-16T16:32:31Z</time>
      </trkpt>
      <trkpt lat="36.98195" lon="-4.40728">
        <ele>708.3031</ele>
        <time>2021-07-16T16:32:42Z</time>
      </trkpt>
      <trkpt lat="36.98287" lon="-4.40537">
        <ele>703.3289</ele>
        <time>2021-07-16T16:32:53Z</time>
      </trkpt>
      <trkpt lat="36.98385" lon="-4.40326">
        <ele>692.7556</ele>
        <time>2021-07-16T16:33:04Z</time>
      </trkpt>
      <trkpt lat="36.98524" lon="-4.40165">
        <ele>678.5754</ele>
        <time>2021-07-16T16:33:15Z</time>
      </trkpt>
      <trkpt lat="36.98661" lon="-4.40142">
        <ele>668.221</ele>
        <time>2021-07-16T16:33:26Z</time>
      </trkpt>
      <trkpt lat="36.98714" lon="-4.40115">
        <ele>664.4908</ele>
        <time>2021-07-16T16:33:37Z</time>
      </trkpt>
      <trkpt lat="36.98703" lon="-4.40002">
        <ele>667.4541</ele>
        <time>2021-07-16T16:33:48Z</time>
      </trkpt>
      <trkpt lat="36.98708" lon="-4.3989">
        <ele>667.9013</ele>
        <time>2021-07-16T16:33:59Z</time>
      </trkpt>
      <trkpt lat="36.98714" lon="-4.39886">
        <ele>667.6244</ele>
        <time>2021-07-16T16:34:11Z</time>
      </trkpt>
      <trkpt lat="36.98642" lon="-4.39987">
        <ele>668.625</ele>
        <time>2021-07-16T16:34:22Z</time>
      </trkpt>
      <trkpt lat="36.98609" lon="-4.40022">
        <ele>671.1918</ele>
        <time>2021-07-16T16:34:33Z</time>
      </trkpt>
      <trkpt lat="36.98613" lon="-4.4002">
        <ele>670.8759</ele>
        <time>2021-07-16T16:35:10Z</time>
      </trkpt>
      <trkpt lat="36.98541" lon="-4.40065">
        <ele>674.9691</ele>
        <time>2021-07-16T16:35:21Z</time>
      </trkpt>
      <trkpt lat="36.98382" lon="-4.40097">
        <ele>679.3654</ele>
        <time>2021-07-16T16:35:32Z</time>
      </trkpt>
      <trkpt lat="36.9821" lon="-4.40148">
        <ele>677.722</ele>
        <time>2021-07-16T16:35:43Z</time>
      </trkpt>
      <trkpt lat="36.98057" lon="-4.40236">
        <ele>669.823</ele>
        <time>2021-07-16T16:35:54Z</time>
      </trkpt>
      <trkpt lat="36.97949" lon="-4.40194">
        <ele>668.7223</ele>
        <time>2021-07-16T16:36:05Z</time>
      </trkpt>
      <trkpt lat="36.97879" lon="-4.40067">
        <ele>679.0093</ele>
        <time>2021-07-16T16:36:16Z</time>
      </trkpt>
      <trkpt lat="36.97836" lon="-4.39896">
        <ele>680.719</ele>
        <time>2021-07-16T16:36:27Z</time>
      </trkpt>
      <trkpt lat="36.97891" lon="-4.39758">
        <ele>684.1427</ele>
        <time>2021-07-16T16:36:38Z</time>
      </trkpt>
      <trkpt lat="36.98022" lon="-4.39668">
        <ele>687.9605</ele>
        <time>2021-07-16T16:36:49Z</time>
      </trkpt>
      <trkpt lat="36.98169" lon="-4.39475">
        <ele>681.5452</ele>
        <time>2021-07-16T16:37:00Z</time>
      </trkpt>
      <trkpt lat="36.98319" lon="-4.39319">
        <ele>684.232</ele>
        <time>2021-07-16T16:37:11Z</time>
      </trkpt>
      <trkpt lat="36.98421" lon="-4.39111">
        <ele>669.6253</ele>
        <time>2021-07-16T16:37:22Z</time>
      </trkpt>
      <trkpt lat="36.98545" lon="-4.38877">
        <ele>671.8886</ele>
        <time>2021-07-16T16:37:33Z</time>
      </trkpt>
      <trkpt lat="36.98676" lon="-4.38814">
        <ele>671.078</ele>
        <time>2021-07-16T16:37:44Z</time>
      </trkpt>
      <trkpt lat="36.98821" lon="-4.38687">
        <ele>667.5676</ele>
        <time>2021-07-16T16:37:55Z</time>
      </trkpt>
      <trkpt lat="36.99009" lon="-4.38615">
        <ele>688.0254</ele>
        <time>2021-07-16T16:38:06Z</time>
      </trkpt>
      <trkpt lat="36.99131" lon="-4.38481">
        <ele>687.3078</ele>
        <time>2021-07-16T16:38:17Z</time>
      </trkpt>
      <trkpt lat="36.99262" lon="-4.38307">
        <ele>676.2094</ele>
        <time>2021-07-16T16:38:28Z</time>
      </trkpt>
      <trkpt lat="36.99401" lon="-4.38108">
        <ele>661.6739</ele>
        <time>2021-07-16T16:38:39Z</time>
      </trkpt>
      <trkpt lat="36.99538" lon="-4.37982">
        <ele>671.8647</ele>
        <time>2021-07-16T16:38:50Z</time>
      </trkpt>
      <trkpt lat="36.99599" lon="-4.37852">
        <ele>677.1326</ele>
        <time>2021-07-16T16:39:01Z</time>
      </trkpt>
      <trkpt lat="36.99594" lon="-4.37683">
        <ele>682.8486</ele>
        <time>2021-07-16T16:39:12Z</time>
      </trkpt>
      <trkpt lat="36.99561" lon="-4.37589">
        <ele>687.4805</ele>
        <time>2021-07-16T16:39:23Z</time>
      </trkpt>
      <trkpt lat="36.99589" lon="-4.37631">
        <ele>688.1106</ele>
        <time>2021-07-16T16:39:34Z</time>
      </trkpt>
      <trkpt lat="36.9959" lon="-4.37636">
        <ele>686.0359</ele>
        <time>2021-07-16T16:39:45Z</time>
      </trkpt>
      <trkpt lat="36.99584" lon="-4.37628">
        <ele>684.9526</ele>
        <time>2021-07-16T16:39:56Z</time>
      </trkpt>
      <trkpt lat="36.99587" lon="-4.37645">
        <ele>688.3043</ele>
        <time>2021-07-16T16:40:07Z</time>
      </trkpt>
      <trkpt lat="36.99585" lon="-4.3765">
        <ele>689.7715</ele>
        <time>2021-07-16T16:40:18Z</time>
      </trkpt>
      <trkpt lat="36.99585" lon="-4.3765">
        <ele>689.7715</ele>
        <time>2021-07-16T16:41:18Z</time>
      </trkpt>
      <trkpt lat="36.99581" lon="-4.37652">
        <ele>690.7877</ele>
        <time>2021-07-16T16:41:29Z</time>
      </trkpt>
      <trkpt lat="36.99581" lon="-4.37652">
        <ele>690.7877</ele>
        <time>2021-07-16T16:42:29Z</time>
      </trkpt>
      <trkpt lat="36.99578" lon="-4.37647">
        <ele>684.7797</ele>
        <time>2021-07-16T16:43:24Z</time>
      </trkpt>
      <trkpt lat="36.99586" lon="-4.37624">
        <ele>684.8708</ele>
        <time>2021-07-16T16:43:35Z</time>
      </trkpt>
      <trkpt lat="36.99583" lon="-4.37619">
        <ele>687.7334</ele>
        <time>2021-07-16T16:43:46Z</time>
      </trkpt>
      <trkpt lat="36.99586" lon="-4.37621">
        <ele>683.8806</ele>
        <time>2021-07-16T16:44:24Z</time>
      </trkpt>
      <trkpt lat="36.99582" lon="-4.37622">
        <ele>684.6996</ele>
        <time>2021-07-16T16:44:59Z</time>
      </trkpt>
      <trkpt lat="36.99587" lon="-4.37626">
        <ele>685.4985</ele>
        <time>2021-07-16T16:45:45Z</time>
      </trkpt>
      <trkpt lat="36.99591" lon="-4.37627">
        <ele>684.6179</ele>
        <time>2021-07-16T16:46:07Z</time>
      </trkpt>
      <trkpt lat="36.99587" lon="-4.37628">
        <ele>686.8663</ele>
        <time>2021-07-16T16:46:22Z</time>
      </trkpt>
      <trkpt lat="36.99585" lon="-4.37624">
        <ele>686.513</ele>
        <time>2021-07-16T16:46:59Z</time>
      </trkpt>
      <trkpt lat="36.99581" lon="-4.37625">
        <ele>686.6628</ele>
        <time>2021-07-16T16:47:13Z</time>
      </trkpt>
      <trkpt lat="36.99578" lon="-4.37622">
        <ele>685.6014</ele>
        <time>2021-07-16T16:47:25Z</time>
      </trkpt>
      <trkpt lat="36.99582" lon="-4.3762">
        <ele>685.0721</ele>
        <time>2021-07-16T16:47:51Z</time>
      </trkpt>
      <trkpt lat="36.99585" lon="-4.37624">
        <ele>685.8304</ele>
        <time>2021-07-16T16:48:37Z</time>
      </trkpt>
      <trkpt lat="36.99581" lon="-4.37622">
        <ele>687.8877</ele>
        <time>2021-07-16T16:48:58Z</time>
      </trkpt>
      <trkpt lat="36.99584" lon="-4.37623">
        <ele>685.3134</ele>
        <time>2021-07-16T16:49:13Z</time>
      </trkpt>
      <trkpt lat="36.99587" lon="-4.37626">
        <ele>687.557</ele>
        <time>2021-07-16T16:49:27Z</time>
      </trkpt>
      <trkpt lat="36.99583" lon="-4.37623">
        <ele>684.8721</ele>
        <time>2021-07-16T16:50:18Z</time>
      </trkpt>
      <trkpt lat="36.99587" lon="-4.37625">
        <ele>684.5415</ele>
        <time>2021-07-16T16:50:31Z</time>
      </trkpt>
      <trkpt lat="36.99585" lon="-4.37629">
        <ele>685.1891</ele>
        <time>2021-07-16T16:50:56Z</time>
      </trkpt>
      <trkpt lat="36.99584" lon="-4.37628">
        <ele>685.2717</ele>
        <time>2021-07-16T16:51:56Z</time>
      </trkpt>
      <trkpt lat="36.99585" lon="-4.37623">
        <ele>682.5326</ele>
        <time>2021-07-16T16:52:55Z</time>
      </trkpt>
      <trkpt lat="36.99589" lon="-4.37623">
        <ele>681.787</ele>
        <time>2021-07-16T16:53:06Z</time>
      </trkpt>
      <trkpt lat="36.99585" lon="-4.37625">
        <ele>682.1819</ele>
        <time>2021-07-16T16:53:26Z</time>
      </trkpt>
      <trkpt lat="36.99581" lon="-4.37623">
        <ele>683.5434</ele>
        <time>2021-07-16T16:53:37Z</time>
      </trkpt>
      <trkpt lat="36.99581" lon="-4.37626">
        <ele>688.9139</ele>
        <time>2021-07-16T16:54:36Z</time>
      </trkpt>
      <trkpt lat="36.99579" lon="-4.37623">
        <ele>687.058</ele>
        <time>2021-07-16T16:54:57Z</time>
      </trkpt>
      <trkpt lat="36.99581" lon="-4.37621">
        <ele>685.3409</ele>
        <time>2021-07-16T16:55:57Z</time>
      </trkpt>
      <trkpt lat="36.99587" lon="-4.37622">
        <ele>686.8756</ele>
        <time>2021-07-16T16:56:36Z</time>
      </trkpt>
      <trkpt lat="36.99584" lon="-4.37627">
        <ele>684.9543</ele>
        <time>2021-07-16T16:57:05Z</time>
      </trkpt>
      <trkpt lat="36.99597" lon="-4.37673">
        <ele>681.8997</ele>
        <time>2021-07-16T16:57:16Z</time>
      </trkpt>
      <trkpt lat="36.99547" lon="-4.37594">
        <ele>684.7023</ele>
        <time>2021-07-16T16:57:27Z</time>
      </trkpt>
      <trkpt lat="36.99454" lon="-4.37404">
        <ele>679.8074</ele>
        <time>2021-07-16T16:57:38Z</time>
      </trkpt>
      <trkpt lat="36.99352" lon="-4.37202">
        <ele>679.3091</ele>
        <time>2021-07-16T16:57:49Z</time>
      </trkpt>
      <trkpt lat="36.9941" lon="-4.37024">
        <ele>688.812</ele>
        <time>2021-07-16T16:58:00Z</time>
      </trkpt>
      <trkpt lat="36.99542" lon="-4.36924">
        <ele>687.5501</ele>
        <time>2021-07-16T16:58:11Z</time>
      </trkpt>
      <trkpt lat="36.99632" lon="-4.3681">
        <ele>683.227</ele>
        <time>2021-07-16T16:58:22Z</time>
      </trkpt>
      <trkpt lat="36.99648" lon="-4.36702">
        <ele>681.1357</ele>
        <time>2021-07-16T16:58:33Z</time>
      </trkpt>
      <trkpt lat="36.99718" lon="-4.36699">
        <ele>679.6963</ele>
        <time>2021-07-16T16:58:44Z</time>
      </trkpt>
      <trkpt lat="36.99771" lon="-4.36751">
        <ele>685.4639</ele>
        <time>2021-07-16T16:58:55Z</time>
      </trkpt>
      <trkpt lat="36.99825" lon="-4.36768">
        <ele>687.0551</ele>
        <time>2021-07-16T16:59:06Z</time>
      </trkpt>
      <trkpt lat="36.99887" lon="-4.36773">
        <ele>688.3883</ele>
        <time>2021-07-16T16:59:17Z</time>
      </trkpt>
      <trkpt lat="36.99952" lon="-4.36768">
        <ele>686.8991</ele>
        <time>2021-07-16T16:59:28Z</time>
      </trkpt>
      <trkpt lat="37.00036" lon="-4.36752">
        <ele>686.0131</ele>
        <time>2021-07-16T16:59:39Z</time>
      </trkpt>
      <trkpt lat="37.0015" lon="-4.3672">
        <ele>685.2774</ele>
        <time>2021-07-16T16:59:50Z</time>
      </trkpt>
      <trkpt lat="37.00252" lon="-4.36671">
        <ele>685.6746</ele>
        <time>2021-07-16T17:00:01Z</time>
      </trkpt>
      <trkpt lat="37.00346" lon="-4.36595">
        <ele>688.6625</ele>
        <time>2021-07-16T17:00:12Z</time>
      </trkpt>
      <trkpt lat="37.00474" lon="-4.36461">
        <ele>686.8896</ele>
        <time>2021-07-16T17:00:23Z</time>
      </trkpt>
      <trkpt lat="37.00575" lon="-4.36322">
        <ele>679.1286</ele>
        <time>2021-07-16T17:00:34Z</time>
      </trkpt>
      <trkpt lat="37.00709" lon="-4.36254">
        <ele>675.3268</ele>
        <time>2021-07-16T17:00:45Z</time>
      </trkpt>
      <trkpt lat="37.00849" lon="-4.36318">
        <ele>675.4242</ele>
        <time>2021-07-16T17:00:56Z</time>
      </trkpt>
      <trkpt lat="37.00932" lon="-4.3647">
        <ele>671.4603</ele>
        <time>2021-07-16T17:01:07Z</time>
      </trkpt>
      <trkpt lat="37.01052" lon="-4.36456">
        <ele>662.3583</ele>
        <time>2021-07-16T17:01:18Z</time>
      </trkpt>
      <trkpt lat="37.01183" lon="-4.36362">
        <ele>656.8342</ele>
        <time>2021-07-16T17:01:29Z</time>
      </trkpt>
      <trkpt lat="37.01296" lon="-4.36279">
        <ele>658.1135</ele>
        <time>2021-07-16T17:01:40Z</time>
      </trkpt>
      <trkpt lat="37.014" lon="-4.36047">
        <ele>662.816</ele>
        <time>2021-07-16T17:01:51Z</time>
      </trkpt>
      <trkpt lat="37.01505" lon="-4.35824">
        <ele>664.2309</ele>
        <time>2021-07-16T17:02:02Z</time>
      </trkpt>
      <trkpt lat="37.01677" lon="-4.35716">
        <ele>666.66</ele>
        <time>2021-07-16T17:02:13Z</time>
      </trkpt>
      <trkpt lat="37.01821" lon="-4.3548">
        <ele>667.5552</ele>
        <time>2021-07-16T17:02:24Z</time>
      </trkpt>
      <trkpt lat="37.01972" lon="-4.35288">
        <ele>673.6838</ele>
        <time>2021-07-16T17:02:35Z</time>
      </trkpt>
      <trkpt lat="37.02162" lon="-4.35259">
        <ele>675.7535</ele>
        <time>2021-07-16T17:02:46Z</time>
      </trkpt>
      <trkpt lat="37.02279" lon="-4.35101">
        <ele>678.4603</ele>
        <time>2021-07-16T17:02:57Z</time>
      </trkpt>
      <trkpt lat="37.02404" lon="-4.34915">
        <ele>684.5501</ele>
        <time>2021-07-16T17:03:08Z</time>
      </trkpt>
      <trkpt lat="37.02477" lon="-4.3474">
        <ele>681.0107</ele>
        <time>2021-07-16T17:03:19Z</time>
      </trkpt>
      <trkpt lat="37.02503" lon="-4.34543">
        <ele>685.5558</ele>
        <time>2021-07-16T17:03:30Z</time>
      </trkpt>
      <trkpt lat="37.02571" lon="-4.34386">
        <ele>688.1775</ele>
        <time>2021-07-16T17:03:41Z</time>
      </trkpt>
      <trkpt lat="37.02606" lon="-4.34334">
        <ele>685.2562</ele>
        <time>2021-07-16T17:03:52Z</time>
      </trkpt>
      <trkpt lat="37.02633" lon="-4.34236">
        <ele>684.653</ele>
        <time>2021-07-16T17:04:03Z</time>
      </trkpt>
      <trkpt lat="37.02651" lon="-4.34121">
        <ele>687.2087</ele>
        <time>2021-07-16T17:04:14Z</time>
      </trkpt>
      <trkpt lat="37.0268" lon="-4.34012">
        <ele>689.9857</ele>
        <time>2021-07-16T17:04:25Z</time>
      </trkpt>
      <trkpt lat="37.02732" lon="-4.3393">
        <ele>695.6414</ele>
        <time>2021-07-16T17:04:36Z</time>
      </trkpt>
      <trkpt lat="37.02773" lon="-4.33886">
        <ele>699.9374</ele>
        <time>2021-07-16T17:04:47Z</time>
      </trkpt>
      <trkpt lat="37.02791" lon="-4.33863">
        <ele>700.3379</ele>
        <time>2021-07-16T17:04:58Z</time>
      </trkpt>
      <trkpt lat="37.02779" lon="-4.33821">
        <ele>701.1838</ele>
        <time>2021-07-16T17:05:09Z</time>
      </trkpt>
      <trkpt lat="37.0276" lon="-4.33775">
        <ele>699.566</ele>
        <time>2021-07-16T17:05:20Z</time>
      </trkpt>
      <trkpt lat="37.02735" lon="-4.33727">
        <ele>700.6447</ele>
        <time>2021-07-16T17:05:31Z</time>
      </trkpt>
      <trkpt lat="37.02744" lon="-4.33658">
        <ele>702.263</ele>
        <time>2021-07-16T17:05:42Z</time>
      </trkpt>
      <trkpt lat="37.02791" lon="-4.33551">
        <ele>699.3056</ele>
        <time>2021-07-16T17:05:53Z</time>
      </trkpt>
      <trkpt lat="37.02808" lon="-4.33407">
        <ele>700.3312</ele>
        <time>2021-07-16T17:06:04Z</time>
      </trkpt>
      <trkpt lat="37.02804" lon="-4.3328">
        <ele>697.776</ele>
        <time>2021-07-16T17:06:15Z</time>
      </trkpt>
      <trkpt lat="37.02812" lon="-4.33234">
        <ele>695.1809</ele>
        <time>2021-07-16T17:06:26Z</time>
      </trkpt>
      <trkpt lat="37.02808" lon="-4.33195">
        <ele>694.4325</ele>
        <time>2021-07-16T17:06:37Z</time>
      </trkpt>
      <trkpt lat="37.02713" lon="-4.33176">
        <ele>704.3543</ele>
        <time>2021-07-16T17:06:48Z</time>
      </trkpt>
      <trkpt lat="37.02583" lon="-4.33173">
        <ele>706.2206</ele>
        <time>2021-07-16T17:06:59Z</time>
      </trkpt>
      <trkpt lat="37.02514" lon="-4.3314">
        <ele>711.5239</ele>
        <time>2021-07-16T17:07:10Z</time>
      </trkpt>
      <trkpt lat="37.02452" lon="-4.3308">
        <ele>712.5005</ele>
        <time>2021-07-16T17:07:21Z</time>
      </trkpt>
      <trkpt lat="37.02334" lon="-4.32883">
        <ele>719.4494</ele>
        <time>2021-07-16T17:07:32Z</time>
      </trkpt>
      <trkpt lat="37.0224" lon="-4.32687">
        <ele>729.6742</ele>
        <time>2021-07-16T17:07:43Z</time>
      </trkpt>
      <trkpt lat="37.02129" lon="-4.32546">
        <ele>735.0678</ele>
        <time>2021-07-16T17:07:54Z</time>
      </trkpt>
      <trkpt lat="37.02029" lon="-4.3239">
        <ele>748.3742</ele>
        <time>2021-07-16T17:08:05Z</time>
      </trkpt>
      <trkpt lat="37.01981" lon="-4.32213">
        <ele>765.5345</ele>
        <time>2021-07-16T17:08:16Z</time>
      </trkpt>
      <trkpt lat="37.01944" lon="-4.3206">
        <ele>782.661</ele>
        <time>2021-07-16T17:08:27Z</time>
      </trkpt>
      <trkpt lat="37.01907" lon="-4.31919">
        <ele>789.4409</ele>
        <time>2021-07-16T17:08:38Z</time>
      </trkpt>
      <trkpt lat="37.01828" lon="-4.31826">
        <ele>806.9504</ele>
        <time>2021-07-16T17:08:49Z</time>
      </trkpt>
      <trkpt lat="37.01746" lon="-4.31734">
        <ele>804.9087</ele>
        <time>2021-07-16T17:09:00Z</time>
      </trkpt>
      <trkpt lat="37.01706" lon="-4.31604">
        <ele>808.1176</ele>
        <time>2021-07-16T17:09:11Z</time>
      </trkpt>
      <trkpt lat="37.0174" lon="-4.31483">
        <ele>810.2417</ele>
        <time>2021-07-16T17:09:22Z</time>
      </trkpt>
      <trkpt lat="37.01807" lon="-4.31411">
        <ele>811.8067</ele>
        <time>2021-07-16T17:09:33Z</time>
      </trkpt>
      <trkpt lat="37.0183" lon="-4.31295">
        <ele>815.1032</ele>
        <time>2021-07-16T17:09:44Z</time>
      </trkpt>
      <trkpt lat="37.01833" lon="-4.31181">
        <ele>814.705</ele>
        <time>2021-07-16T17:09:55Z</time>
      </trkpt>
      <trkpt lat="37.0177" lon="-4.31088">
        <ele>817.2476</ele>
        <time>2021-07-16T17:10:06Z</time>
      </trkpt>
      <trkpt lat="37.0169" lon="-4.31025">
        <ele>813.2177</ele>
        <time>2021-07-16T17:10:17Z</time>
      </trkpt>
      <trkpt lat="37.01623" lon="-4.30982">
        <ele>821.6245</ele>
        <time>2021-07-16T17:10:28Z</time>
      </trkpt>
      <trkpt lat="37.0162" lon="-4.30854">
        <ele>834.0361</ele>
        <time>2021-07-16T17:10:39Z</time>
      </trkpt>
      <trkpt lat="37.01597" lon="-4.30734">
        <ele>852.8419</ele>
        <time>2021-07-16T17:10:50Z</time>
      </trkpt>
      <trkpt lat="37.01578" lon="-4.30629">
        <ele>862.9188</ele>
        <time>2021-07-16T17:11:01Z</time>
      </trkpt>
      <trkpt lat="37.01565" lon="-4.30557">
        <ele>870.5259</ele>
        <time>2021-07-16T17:11:12Z</time>
      </trkpt>
      <trkpt lat="37.01554" lon="-4.30556">
        <ele>868.8588</ele>
        <time>2021-07-16T17:11:23Z</time>
      </trkpt>
      <trkpt lat="37.0155" lon="-4.30552">
        <ele>862.5533</ele>
        <time>2021-07-16T17:11:34Z</time>
      </trkpt>
      <trkpt lat="37.0157" lon="-4.30555">
        <ele>863.1078</ele>
        <time>2021-07-16T17:11:45Z</time>
      </trkpt>
      <trkpt lat="37.01582" lon="-4.30643">
        <ele>857.8731</ele>
        <time>2021-07-16T17:11:56Z</time>
      </trkpt>
      <trkpt lat="37.01569" lon="-4.30647">
        <ele>860.5388</ele>
        <time>2021-07-16T17:12:07Z</time>
      </trkpt>
      <trkpt lat="37.01564" lon="-4.30649">
        <ele>861.3718</ele>
        <time>2021-07-16T17:12:18Z</time>
      </trkpt>
      <trkpt lat="37.01556" lon="-4.30644">
        <ele>865.1965</ele>
        <time>2021-07-16T17:20:26Z</time>
      </trkpt>
      <trkpt lat="37.01564" lon="-4.30647">
        <ele>860.7069</ele>
        <time>2021-07-16T17:20:37Z</time>
      </trkpt>
      <trkpt lat="37.01568" lon="-4.30649">
        <ele>860.5126</ele>
        <time>2021-07-16T17:20:49Z</time>
      </trkpt>
      <trkpt lat="37.01567" lon="-4.30648">
        <ele>860.576</ele>
        <time>2021-07-16T17:21:49Z</time>
      </trkpt>
      <trkpt lat="37.01563" lon="-4.3065">
        <ele>860.5103</ele>
        <time>2021-07-16T17:22:18Z</time>
      </trkpt>
      <trkpt lat="37.01566" lon="-4.30648">
        <ele>859.5591</ele>
        <time>2021-07-16T17:22:50Z</time>
      </trkpt>
      <trkpt lat="37.01566" lon="-4.30647">
        <ele>860.1175</ele>
        <time>2021-07-16T17:23:50Z</time>
      </trkpt>
      <trkpt lat="37.01563" lon="-4.3065">
        <ele>860.4194</ele>
        <time>2021-07-16T17:24:02Z</time>
      </trkpt>
      <trkpt lat="37.01566" lon="-4.30651">
        <ele>860.6465</ele>
        <time>2021-07-16T17:24:17Z</time>
      </trkpt>
      <trkpt lat="37.01565" lon="-4.30649">
        <ele>859.8768</ele>
        <time>2021-07-16T17:25:17Z</time>
      </trkpt>
      <trkpt lat="37.01568" lon="-4.30649">
        <ele>859.8197</ele>
        <time>2021-07-16T17:26:16Z</time>
      </trkpt>
      <trkpt lat="37.01564" lon="-4.3065">
        <ele>860.1877</ele>
        <time>2021-07-16T17:27:06Z</time>
      </trkpt>
      <trkpt lat="37.01563" lon="-4.30654">
        <ele>860.4056</ele>
        <time>2021-07-16T17:27:48Z</time>
      </trkpt>
      <trkpt lat="37.01566" lon="-4.30652">
        <ele>860.2528</ele>
        <time>2021-07-16T17:28:12Z</time>
      </trkpt>
      <trkpt lat="37.01566" lon="-4.30655">
        <ele>860.5806</ele>
        <time>2021-07-16T17:29:11Z</time>
      </trkpt>
      <trkpt lat="37.01579" lon="-4.30658">
        <ele>858.1559</ele>
        <time>2021-07-16T17:29:22Z</time>
      </trkpt>
      <trkpt lat="37.01587" lon="-4.30651">
        <ele>855.9028</ele>
        <time>2021-07-16T17:29:33Z</time>
      </trkpt>
      <trkpt lat="37.01601" lon="-4.30647">
        <ele>851.5166</ele>
        <time>2021-07-16T17:29:44Z</time>
      </trkpt>
      <trkpt lat="37.01616" lon="-4.30645">
        <ele>848.7083</ele>
        <time>2021-07-16T17:29:55Z</time>
      </trkpt>
      <trkpt lat="37.01627" lon="-4.30642">
        <ele>844.9741</ele>
        <time>2021-07-16T17:30:06Z</time>
      </trkpt>
      <trkpt lat="37.01637" lon="-4.3064">
        <ele>842.8263</ele>
        <time>2021-07-16T17:30:17Z</time>
      </trkpt>
      <trkpt lat="37.01653" lon="-4.30638">
        <ele>839.8186</ele>
        <time>2021-07-16T17:30:28Z</time>
      </trkpt>
      <trkpt lat="37.01664" lon="-4.30636">
        <ele>836.4236</ele>
        <time>2021-07-16T17:30:39Z</time>
      </trkpt>
      <trkpt lat="37.0166" lon="-4.3064">
        <ele>838.2001</ele>
        <time>2021-07-16T17:30:50Z</time>
      </trkpt>
      <trkpt lat="37.01663" lon="-4.30645">
        <ele>837.0793</ele>
        <time>2021-07-16T17:31:01Z</time>
      </trkpt>
      <trkpt lat="37.01663" lon="-4.30639">
        <ele>836.4757</ele>
        <time>2021-07-16T17:31:13Z</time>
      </trkpt>
      <trkpt lat="37.01662" lon="-4.30634">
        <ele>835.8415</ele>
        <time>2021-07-16T17:31:43Z</time>
      </trkpt>
      <trkpt lat="37.01659" lon="-4.30623">
        <ele>836.9011</ele>
        <time>2021-07-16T17:31:54Z</time>
      </trkpt>
      <trkpt lat="37.01659" lon="-4.30606">
        <ele>836.0455</ele>
        <time>2021-07-16T17:32:05Z</time>
      </trkpt>
      <trkpt lat="37.01669" lon="-4.30611">
        <ele>837.848</ele>
        <time>2021-07-16T17:32:16Z</time>
      </trkpt>
      <trkpt lat="37.01671" lon="-4.30617">
        <ele>835.3549</ele>
        <time>2021-07-16T17:32:27Z</time>
      </trkpt>
      <trkpt lat="37.01675" lon="-4.30617">
        <ele>835.0004</ele>
        <time>2021-07-16T17:32:51Z</time>
      </trkpt>
      <trkpt lat="37.01673" lon="-4.30613">
        <ele>834.3144</ele>
        <time>2021-07-16T17:33:43Z</time>
      </trkpt>
      <trkpt lat="37.01673" lon="-4.30608">
        <ele>834.4073</ele>
        <time>2021-07-16T17:34:17Z</time>
      </trkpt>
      <trkpt lat="37.01682" lon="-4.306">
        <ele>832.8359</ele>
        <time>2021-07-16T17:34:28Z</time>
      </trkpt>
      <trkpt lat="37.01696" lon="-4.30605">
        <ele>830.7287</ele>
        <time>2021-07-16T17:34:39Z</time>
      </trkpt>
      <trkpt lat="37.01707" lon="-4.30609">
        <ele>829.9888</ele>
        <time>2021-07-16T17:34:50Z</time>
      </trkpt>
      <trkpt lat="37.01714" lon="-4.3061">
        <ele>827.2921</ele>
        <time>2021-07-16T17:35:01Z</time>
      </trkpt>
      <trkpt lat="37.0172" lon="-4.30612">
        <ele>826.6116</ele>
        <time>2021-07-16T17:35:12Z</time>
      </trkpt>
      <trkpt lat="37.01725" lon="-4.30606">
        <ele>826.1359</ele>
        <time>2021-07-16T17:35:23Z</time>
      </trkpt>
      <trkpt lat="37.01721" lon="-4.30609">
        <ele>824.7304</ele>
        <time>2021-07-16T17:35:34Z</time>
      </trkpt>
      <trkpt lat="37.0171" lon="-4.30607">
        <ele>826.4023</ele>
        <time>2021-07-16T17:35:45Z</time>
      </trkpt>
      <trkpt lat="37.01697" lon="-4.30601">
        <ele>827.6924</ele>
        <time>2021-07-16T17:35:56Z</time>
      </trkpt>
      <trkpt lat="37.01685" lon="-4.30597">
        <ele>833.1724</ele>
        <time>2021-07-16T17:36:07Z</time>
      </trkpt>
      <trkpt lat="37.01674" lon="-4.30594">
        <ele>834.3366</ele>
        <time>2021-07-16T17:36:18Z</time>
      </trkpt>
      <trkpt lat="37.01663" lon="-4.30604">
        <ele>835.546</ele>
        <time>2021-07-16T17:36:29Z</time>
      </trkpt>
      <trkpt lat="37.01654" lon="-4.30607">
        <ele>838.1658</ele>
        <time>2021-07-16T17:36:40Z</time>
      </trkpt>
      <trkpt lat="37.01646" lon="-4.30618">
        <ele>839.2655</ele>
        <time>2021-07-16T17:36:51Z</time>
      </trkpt>
      <trkpt lat="37.01641" lon="-4.30623">
        <ele>843.6663</ele>
        <time>2021-07-16T17:37:02Z</time>
      </trkpt>
      <trkpt lat="37.01633" lon="-4.30631">
        <ele>843.5247</ele>
        <time>2021-07-16T17:37:13Z</time>
      </trkpt>
      <trkpt lat="37.01626" lon="-4.3064">
        <ele>844.4209</ele>
        <time>2021-07-16T17:37:24Z</time>
      </trkpt>
      <trkpt lat="37.01618" lon="-4.30644">
        <ele>848.72</ele>
        <time>2021-07-16T17:37:35Z</time>
      </trkpt>
      <trkpt lat="37.01608" lon="-4.30648">
        <ele>849.6452</ele>
        <time>2021-07-16T17:37:46Z</time>
      </trkpt>
      <trkpt lat="37.01599" lon="-4.30653">
        <ele>853.2034</ele>
        <time>2021-07-16T17:37:57Z</time>
      </trkpt>
      <trkpt lat="37.01591" lon="-4.30653">
        <ele>853.6768</ele>
        <time>2021-07-16T17:38:08Z</time>
      </trkpt>
      <trkpt lat="37.01581" lon="-4.30654">
        <ele>857.1563</ele>
        <time>2021-07-16T17:38:19Z</time>
      </trkpt>
      <trkpt lat="37.01572" lon="-4.30652">
        <ele>858.0459</ele>
        <time>2021-07-16T17:38:30Z</time>
      </trkpt>
      <trkpt lat="37.01566" lon="-4.30648">
        <ele>859.1883</ele>
        <time>2021-07-16T17:38:41Z</time>
      </trkpt>
      <trkpt lat="37.01564" lon="-4.30644">
        <ele>860.549</ele>
        <time>2021-07-16T17:39:00Z</time>
      </trkpt>
      <trkpt lat="37.01561" lon="-4.30646">
        <ele>859.9184</ele>
        <time>2021-07-16T17:39:27Z</time>
      </trkpt>
      <trkpt lat="37.01565" lon="-4.30646">
        <ele>863.1828</ele>
        <time>2021-07-16T17:39:48Z</time>
      </trkpt>
      <trkpt lat="37.01562" lon="-4.30646">
        <ele>859.8231</ele>
        <time>2021-07-16T17:40:47Z</time>
      </trkpt>
      <trkpt lat="37.01563" lon="-4.30654">
        <ele>861.3697</ele>
        <time>2021-07-16T17:41:10Z</time>
      </trkpt>
      <trkpt lat="37.01563" lon="-4.3065">
        <ele>860.7509</ele>
        <time>2021-07-16T17:41:39Z</time>
      </trkpt>
      <trkpt lat="37.01568" lon="-4.30649">
        <ele>860.8832</ele>
        <time>2021-07-16T17:42:10Z</time>
      </trkpt>
      <trkpt lat="37.01564" lon="-4.30651">
        <ele>861.2063</ele>
        <time>2021-07-16T17:42:26Z</time>
      </trkpt>
      <trkpt lat="37.01564" lon="-4.30651">
        <ele>861.3361</ele>
        <time>2021-07-16T17:43:25Z</time>
      </trkpt>
      <trkpt lat="37.01564" lon="-4.30649">
        <ele>861.5966</ele>
        <time>2021-07-16T17:44:24Z</time>
      </trkpt>
      <trkpt lat="37.01568" lon="-4.30647">
        <ele>860.8993</ele>
        <time>2021-07-16T17:45:03Z</time>
      </trkpt>
    </trkseg>
  </trk>
</gpx>